<?xml version="1.0" encoding="UTF-8" standalone="no" ?>
<gpx xmlns="http://www.topografix.com/GPX/1/1" xmlns:xsi="http://www.w3.org/2001/XMLSchema-instance" xsi:schemaLocation="http://www.topografix.com/GPX/1/1 http://www.topografix.com/GPX/1/1/gpx.xsd" version="1.1" creator="VisuGPX - https://www.visugpx.com">
  <metadata>
    <name>11109605-J1 St.Enimie Le Rozier ou Les Vignes</name>
  </metadata>
  <trk>
    <name><![CDATA[11109605-J1 St.Enimie Le Rozier ou Les Vignes]]></name>
    <trkseg>
      <trkpt lat="44.40088" lon="3.29398">
        <ele>805</ele>
        <time>2020-03-10T17:18:42Z</time>
      </trkpt>
      <trkpt lat="44.40086" lon="3.29428">
        <ele>805</ele>
        <time>2020-03-10T17:18:46Z</time>
      </trkpt>
      <trkpt lat="44.40079" lon="3.29459">
        <ele>805</ele>
        <time>2020-03-10T17:18:50Z</time>
      </trkpt>
      <trkpt lat="44.40068" lon="3.29475">
        <ele>805</ele>
        <time>2020-03-10T17:18:53Z</time>
      </trkpt>
      <trkpt lat="44.40061" lon="3.29481">
        <ele>805</ele>
        <time>2020-03-10T17:18:54Z</time>
      </trkpt>
      <trkpt lat="44.39932" lon="3.29548">
        <ele>806</ele>
        <time>2020-03-10T17:19:19Z</time>
      </trkpt>
      <trkpt lat="44.39855" lon="3.29603">
        <ele>809</ele>
        <time>2020-03-10T17:19:34Z</time>
      </trkpt>
      <trkpt lat="44.39743" lon="3.2964">
        <ele>810</ele>
        <time>2020-03-10T17:19:55Z</time>
      </trkpt>
      <trkpt lat="44.39706" lon="3.29651">
        <ele>809</ele>
        <time>2020-03-10T17:20:01Z</time>
      </trkpt>
      <trkpt lat="44.39614" lon="3.29653">
        <ele>806</ele>
        <time>2020-03-10T17:20:18Z</time>
      </trkpt>
      <trkpt lat="44.39598" lon="3.2966">
        <ele>806</ele>
        <time>2020-03-10T17:20:21Z</time>
      </trkpt>
      <trkpt lat="44.3954" lon="3.29703">
        <ele>809</ele>
        <time>2020-03-10T17:20:32Z</time>
      </trkpt>
      <trkpt lat="44.39497" lon="3.29725">
        <ele>811</ele>
        <time>2020-03-10T17:20:40Z</time>
      </trkpt>
      <trkpt lat="44.39437" lon="3.29773">
        <ele>812</ele>
        <time>2020-03-10T17:20:53Z</time>
      </trkpt>
      <trkpt lat="44.39418" lon="3.29784">
        <ele>813</ele>
        <time>2020-03-10T17:20:56Z</time>
      </trkpt>
      <trkpt lat="44.39398" lon="3.29789">
        <ele>814</ele>
        <time>2020-03-10T17:21:00Z</time>
      </trkpt>
      <trkpt lat="44.39375" lon="3.29788">
        <ele>813</ele>
        <time>2020-03-10T17:21:04Z</time>
      </trkpt>
      <trkpt lat="44.39327" lon="3.29772">
        <ele>810</ele>
        <time>2020-03-10T17:21:13Z</time>
      </trkpt>
      <trkpt lat="44.39286" lon="3.29778">
        <ele>809</ele>
        <time>2020-03-10T17:21:20Z</time>
      </trkpt>
      <trkpt lat="44.39241" lon="3.29807">
        <ele>809</ele>
        <time>2020-03-10T17:21:29Z</time>
      </trkpt>
      <trkpt lat="44.39114" lon="3.30001">
        <ele>809</ele>
        <time>2020-03-10T17:22:03Z</time>
      </trkpt>
      <trkpt lat="44.39065" lon="3.30109">
        <ele>810</ele>
        <time>2020-03-10T17:22:19Z</time>
      </trkpt>
      <trkpt lat="44.39048" lon="3.30137">
        <ele>811</ele>
        <time>2020-03-10T17:22:23Z</time>
      </trkpt>
      <trkpt lat="44.39016" lon="3.30168">
        <ele>810</ele>
        <time>2020-03-10T17:22:30Z</time>
      </trkpt>
      <trkpt lat="44.38952" lon="3.30199">
        <ele>811</ele>
        <time>2020-03-10T17:22:42Z</time>
      </trkpt>
      <trkpt lat="44.38935" lon="3.30215">
        <ele>811</ele>
        <time>2020-03-10T17:22:46Z</time>
      </trkpt>
      <trkpt lat="44.3892" lon="3.30236">
        <ele>811</ele>
        <time>2020-03-10T17:22:50Z</time>
      </trkpt>
      <trkpt lat="44.38862" lon="3.30337">
        <ele>815</ele>
        <time>2020-03-10T17:23:06Z</time>
      </trkpt>
      <trkpt lat="44.38828" lon="3.30374">
        <ele>815</ele>
        <time>2020-03-10T17:23:14Z</time>
      </trkpt>
      <trkpt lat="44.388" lon="3.30393">
        <ele>816</ele>
        <time>2020-03-10T17:23:20Z</time>
      </trkpt>
      <trkpt lat="44.38715" lon="3.30427">
        <ele>816</ele>
        <time>2020-03-10T17:23:35Z</time>
      </trkpt>
      <trkpt lat="44.38676" lon="3.30447">
        <ele>816</ele>
        <time>2020-03-10T17:23:43Z</time>
      </trkpt>
      <trkpt lat="44.38619" lon="3.30481">
        <ele>817</ele>
        <time>2020-03-10T17:23:54Z</time>
      </trkpt>
      <trkpt lat="44.38593" lon="3.30514">
        <ele>817</ele>
        <time>2020-03-10T17:24:00Z</time>
      </trkpt>
      <trkpt lat="44.38537" lon="3.30648">
        <ele>819</ele>
        <time>2020-03-10T17:24:20Z</time>
      </trkpt>
      <trkpt lat="44.38499" lon="3.30696">
        <ele>820</ele>
        <time>2020-03-10T17:24:29Z</time>
      </trkpt>
      <trkpt lat="44.38487" lon="3.30725">
        <ele>820</ele>
        <time>2020-03-10T17:24:33Z</time>
      </trkpt>
      <trkpt lat="44.38486" lon="3.30782">
        <ele>820</ele>
        <time>2020-03-10T17:24:40Z</time>
      </trkpt>
      <trkpt lat="44.38483" lon="3.30804">
        <ele>819</ele>
        <time>2020-03-10T17:24:43Z</time>
      </trkpt>
      <trkpt lat="44.38475" lon="3.30826">
        <ele>820</ele>
        <time>2020-03-10T17:24:46Z</time>
      </trkpt>
      <trkpt lat="44.38452" lon="3.30876">
        <ele>821</ele>
        <time>2020-03-10T17:24:54Z</time>
      </trkpt>
      <trkpt lat="44.38441" lon="3.3092">
        <ele>821</ele>
        <time>2020-03-10T17:25:00Z</time>
      </trkpt>
      <trkpt lat="44.38436" lon="3.30967">
        <ele>823</ele>
        <time>2020-03-10T17:25:06Z</time>
      </trkpt>
      <trkpt lat="44.38436" lon="3.3109">
        <ele>828</ele>
        <time>2020-03-10T17:25:21Z</time>
      </trkpt>
      <trkpt lat="44.38433" lon="3.31114">
        <ele>830</ele>
        <time>2020-03-10T17:25:25Z</time>
      </trkpt>
      <trkpt lat="44.38427" lon="3.31138">
        <ele>831</ele>
        <time>2020-03-10T17:25:28Z</time>
      </trkpt>
      <trkpt lat="44.38405" lon="3.31187">
        <ele>833</ele>
        <time>2020-03-10T17:25:35Z</time>
      </trkpt>
      <trkpt lat="44.38393" lon="3.31227">
        <ele>835</ele>
        <time>2020-03-10T17:25:41Z</time>
      </trkpt>
      <trkpt lat="44.38397" lon="3.31317">
        <ele>843</ele>
        <time>2020-03-10T17:25:52Z</time>
      </trkpt>
      <trkpt lat="44.38394" lon="3.31346">
        <ele>845</ele>
        <time>2020-03-10T17:25:56Z</time>
      </trkpt>
      <trkpt lat="44.38385" lon="3.31376">
        <ele>847</ele>
        <time>2020-03-10T17:26:00Z</time>
      </trkpt>
      <trkpt lat="44.38368" lon="3.31421">
        <ele>848</ele>
        <time>2020-03-10T17:26:06Z</time>
      </trkpt>
      <trkpt lat="44.3836" lon="3.31453">
        <ele>848</ele>
        <time>2020-03-10T17:26:11Z</time>
      </trkpt>
      <trkpt lat="44.38358" lon="3.31482">
        <ele>850</ele>
        <time>2020-03-10T17:26:14Z</time>
      </trkpt>
      <trkpt lat="44.3836" lon="3.31525">
        <ele>853</ele>
        <time>2020-03-10T17:26:20Z</time>
      </trkpt>
      <trkpt lat="44.38356" lon="3.31556">
        <ele>854</ele>
        <time>2020-03-10T17:26:24Z</time>
      </trkpt>
      <trkpt lat="44.38339" lon="3.31601">
        <ele>852</ele>
        <time>2020-03-10T17:26:30Z</time>
      </trkpt>
      <trkpt lat="44.38334" lon="3.31661">
        <ele>854</ele>
        <time>2020-03-10T17:26:38Z</time>
      </trkpt>
      <trkpt lat="44.3833" lon="3.31678">
        <ele>856</ele>
        <time>2020-03-10T17:26:40Z</time>
      </trkpt>
      <trkpt lat="44.38322" lon="3.31695">
        <ele>858</ele>
        <time>2020-03-10T17:26:43Z</time>
      </trkpt>
      <trkpt lat="44.38275" lon="3.31738">
        <ele>860</ele>
        <time>2020-03-10T17:26:53Z</time>
      </trkpt>
      <trkpt lat="44.38235" lon="3.31791">
        <ele>864</ele>
        <time>2020-03-10T17:27:03Z</time>
      </trkpt>
      <trkpt lat="44.38165" lon="3.31943">
        <ele>875</ele>
        <time>2020-03-10T17:27:26Z</time>
      </trkpt>
      <trkpt lat="44.38112" lon="3.31993">
        <ele>881</ele>
        <time>2020-03-10T17:27:37Z</time>
      </trkpt>
      <trkpt lat="44.38085" lon="3.32008">
        <ele>882</ele>
        <time>2020-03-10T17:27:42Z</time>
      </trkpt>
      <trkpt lat="44.38" lon="3.32034">
        <ele>881</ele>
        <time>2020-03-10T17:27:58Z</time>
      </trkpt>
      <trkpt lat="44.37984" lon="3.32053">
        <ele>883</ele>
        <time>2020-03-10T17:28:02Z</time>
      </trkpt>
      <trkpt lat="44.37978" lon="3.32071">
        <ele>884</ele>
        <time>2020-03-10T17:28:04Z</time>
      </trkpt>
      <trkpt lat="44.37975" lon="3.32092">
        <ele>886</ele>
        <time>2020-03-10T17:28:07Z</time>
      </trkpt>
      <trkpt lat="44.3799" lon="3.32155">
        <ele>890</ele>
        <time>2020-03-10T17:28:15Z</time>
      </trkpt>
      <trkpt lat="44.37993" lon="3.32182">
        <ele>892</ele>
        <time>2020-03-10T17:28:19Z</time>
      </trkpt>
      <trkpt lat="44.37988" lon="3.32207">
        <ele>894</ele>
        <time>2020-03-10T17:28:22Z</time>
      </trkpt>
      <trkpt lat="44.3798" lon="3.32226">
        <ele>895</ele>
        <time>2020-03-10T17:28:25Z</time>
      </trkpt>
      <trkpt lat="44.37966" lon="3.3224">
        <ele>895</ele>
        <time>2020-03-10T17:28:28Z</time>
      </trkpt>
      <trkpt lat="44.37859" lon="3.32301">
        <ele>901</ele>
        <time>2020-03-10T17:28:48Z</time>
      </trkpt>
      <trkpt lat="44.37819" lon="3.32321">
        <ele>904</ele>
        <time>2020-03-10T17:28:56Z</time>
      </trkpt>
      <trkpt lat="44.37802" lon="3.32321">
        <ele>906</ele>
        <time>2020-03-10T17:28:59Z</time>
      </trkpt>
      <trkpt lat="44.37784" lon="3.32317">
        <ele>907</ele>
        <time>2020-03-10T17:29:02Z</time>
      </trkpt>
      <trkpt lat="44.37751" lon="3.32278">
        <ele>905</ele>
        <time>2020-03-10T17:29:10Z</time>
      </trkpt>
      <trkpt lat="44.37738" lon="3.3227">
        <ele>904</ele>
        <time>2020-03-10T17:29:12Z</time>
      </trkpt>
      <trkpt lat="44.37723" lon="3.32267">
        <ele>903</ele>
        <time>2020-03-10T17:29:15Z</time>
      </trkpt>
      <trkpt lat="44.37708" lon="3.3227">
        <ele>902</ele>
        <time>2020-03-10T17:29:18Z</time>
      </trkpt>
      <trkpt lat="44.37692" lon="3.32284">
        <ele>903</ele>
        <time>2020-03-10T17:29:21Z</time>
      </trkpt>
      <trkpt lat="44.37684" lon="3.32304">
        <ele>904</ele>
        <time>2020-03-10T17:29:24Z</time>
      </trkpt>
      <trkpt lat="44.3768" lon="3.32321">
        <ele>904</ele>
        <time>2020-03-10T17:29:26Z</time>
      </trkpt>
      <trkpt lat="44.3768" lon="3.32342">
        <ele>906</ele>
        <time>2020-03-10T17:29:29Z</time>
      </trkpt>
      <trkpt lat="44.37697" lon="3.32407">
        <ele>911</ele>
        <time>2020-03-10T17:29:38Z</time>
      </trkpt>
      <trkpt lat="44.37693" lon="3.3246">
        <ele>916</ele>
        <time>2020-03-10T17:29:45Z</time>
      </trkpt>
      <trkpt lat="44.37656" lon="3.32552">
        <ele>917</ele>
        <time>2020-03-10T17:29:58Z</time>
      </trkpt>
      <trkpt lat="44.37648" lon="3.32579">
        <ele>919</ele>
        <time>2020-03-10T17:30:02Z</time>
      </trkpt>
      <trkpt lat="44.37646" lon="3.32604">
        <ele>920</ele>
        <time>2020-03-10T17:30:05Z</time>
      </trkpt>
      <trkpt lat="44.37647" lon="3.32626">
        <ele>919</ele>
        <time>2020-03-10T17:30:08Z</time>
      </trkpt>
      <trkpt lat="44.3766" lon="3.32685">
        <ele>918</ele>
        <time>2020-03-10T17:30:16Z</time>
      </trkpt>
      <trkpt lat="44.37662" lon="3.32703">
        <ele>917</ele>
        <time>2020-03-10T17:30:18Z</time>
      </trkpt>
      <trkpt lat="44.37662" lon="3.3273">
        <ele>916</ele>
        <time>2020-03-10T17:30:21Z</time>
      </trkpt>
      <trkpt lat="44.37656" lon="3.32762">
        <ele>915</ele>
        <time>2020-03-10T17:30:26Z</time>
      </trkpt>
      <trkpt lat="44.37642" lon="3.32798">
        <ele>913</ele>
        <time>2020-03-10T17:30:31Z</time>
      </trkpt>
      <trkpt lat="44.37601" lon="3.32884">
        <ele>910</ele>
        <time>2020-03-10T17:30:44Z</time>
      </trkpt>
      <trkpt lat="44.37569" lon="3.3296">
        <ele>908</ele>
        <time>2020-03-10T17:30:55Z</time>
      </trkpt>
      <trkpt lat="44.37559" lon="3.33004">
        <ele>908</ele>
        <time>2020-03-10T17:31:01Z</time>
      </trkpt>
      <trkpt lat="44.37557" lon="3.33039">
        <ele>907</ele>
        <time>2020-03-10T17:31:06Z</time>
      </trkpt>
      <trkpt lat="44.37553" lon="3.33067">
        <ele>906</ele>
        <time>2020-03-10T17:31:09Z</time>
      </trkpt>
      <trkpt lat="44.37539" lon="3.33108">
        <ele>905</ele>
        <time>2020-03-10T17:31:15Z</time>
      </trkpt>
      <trkpt lat="44.37516" lon="3.3314">
        <ele>906</ele>
        <time>2020-03-10T17:31:21Z</time>
      </trkpt>
      <trkpt lat="44.37421" lon="3.33238">
        <ele>904</ele>
        <time>2020-03-10T17:31:42Z</time>
      </trkpt>
      <trkpt lat="44.37401" lon="3.33273">
        <ele>902</ele>
        <time>2020-03-10T17:31:47Z</time>
      </trkpt>
      <trkpt lat="44.37392" lon="3.33314">
        <ele>902</ele>
        <time>2020-03-10T17:31:53Z</time>
      </trkpt>
      <trkpt lat="44.37393" lon="3.33354">
        <ele>902</ele>
        <time>2020-03-10T17:31:58Z</time>
      </trkpt>
      <trkpt lat="44.37414" lon="3.335">
        <ele>897</ele>
        <time>2020-03-10T17:32:17Z</time>
      </trkpt>
      <trkpt lat="44.3741" lon="3.33539">
        <ele>899</ele>
        <time>2020-03-10T17:32:22Z</time>
      </trkpt>
      <trkpt lat="44.37401" lon="3.33566">
        <ele>900</ele>
        <time>2020-03-10T17:32:26Z</time>
      </trkpt>
      <trkpt lat="44.37339" lon="3.33698">
        <ele>898</ele>
        <time>2020-03-10T17:32:46Z</time>
      </trkpt>
      <trkpt lat="44.37332" lon="3.33741">
        <ele>897</ele>
        <time>2020-03-10T17:32:51Z</time>
      </trkpt>
      <trkpt lat="44.3733" lon="3.33802">
        <ele>898</ele>
        <time>2020-03-10T17:32:59Z</time>
      </trkpt>
      <trkpt lat="44.37325" lon="3.33828">
        <ele>898</ele>
        <time>2020-03-10T17:33:03Z</time>
      </trkpt>
      <trkpt lat="44.37315" lon="3.33852">
        <ele>898</ele>
        <time>2020-03-10T17:33:06Z</time>
      </trkpt>
      <trkpt lat="44.37239" lon="3.33956">
        <ele>890</ele>
        <time>2020-03-10T17:33:25Z</time>
      </trkpt>
      <trkpt lat="44.37151" lon="3.34091">
        <ele>880</ele>
        <time>2020-03-10T17:33:48Z</time>
      </trkpt>
      <trkpt lat="44.37099" lon="3.34195">
        <ele>881</ele>
        <time>2020-03-10T17:34:04Z</time>
      </trkpt>
      <trkpt lat="44.36985" lon="3.34316">
        <ele>875</ele>
        <time>2020-03-10T17:34:30Z</time>
      </trkpt>
      <trkpt lat="44.36964" lon="3.34349">
        <ele>874</ele>
        <time>2020-03-10T17:34:35Z</time>
      </trkpt>
      <trkpt lat="44.36951" lon="3.34381">
        <ele>872</ele>
        <time>2020-03-10T17:34:40Z</time>
      </trkpt>
      <trkpt lat="44.36949" lon="3.34398">
        <ele>871</ele>
        <time>2020-03-10T17:34:42Z</time>
      </trkpt>
      <trkpt lat="44.36949" lon="3.34416">
        <ele>871</ele>
        <time>2020-03-10T17:34:45Z</time>
      </trkpt>
      <trkpt lat="44.36959" lon="3.34467">
        <ele>871</ele>
        <time>2020-03-10T17:34:51Z</time>
      </trkpt>
      <trkpt lat="44.36961" lon="3.34486">
        <ele>870</ele>
        <time>2020-03-10T17:34:54Z</time>
      </trkpt>
      <trkpt lat="44.3696" lon="3.34503">
        <ele>870</ele>
        <time>2020-03-10T17:34:56Z</time>
      </trkpt>
      <trkpt lat="44.36951" lon="3.34564">
        <ele>865</ele>
        <time>2020-03-10T17:35:04Z</time>
      </trkpt>
      <trkpt lat="44.36951" lon="3.34579">
        <ele>864</ele>
        <time>2020-03-10T17:35:06Z</time>
      </trkpt>
      <trkpt lat="44.36952" lon="3.34593">
        <ele>863</ele>
        <time>2020-03-10T17:35:08Z</time>
      </trkpt>
      <trkpt lat="44.36956" lon="3.3461">
        <ele>863</ele>
        <time>2020-03-10T17:35:10Z</time>
      </trkpt>
      <trkpt lat="44.36982" lon="3.347">
        <ele>864</ele>
        <time>2020-03-10T17:35:22Z</time>
      </trkpt>
      <trkpt lat="44.36986" lon="3.34734">
        <ele>865</ele>
        <time>2020-03-10T17:35:27Z</time>
      </trkpt>
      <trkpt lat="44.36985" lon="3.34751">
        <ele>865</ele>
        <time>2020-03-10T17:35:29Z</time>
      </trkpt>
      <trkpt lat="44.36982" lon="3.34768">
        <ele>865</ele>
        <time>2020-03-10T17:35:31Z</time>
      </trkpt>
      <trkpt lat="44.36965" lon="3.34793">
        <ele>864</ele>
        <time>2020-03-10T17:35:35Z</time>
      </trkpt>
      <trkpt lat="44.36881" lon="3.349">
        <ele>858</ele>
        <time>2020-03-10T17:35:56Z</time>
      </trkpt>
      <trkpt lat="44.36864" lon="3.34914">
        <ele>858</ele>
        <time>2020-03-10T17:35:59Z</time>
      </trkpt>
      <trkpt lat="44.36801" lon="3.34943">
        <ele>860</ele>
        <time>2020-03-10T17:36:11Z</time>
      </trkpt>
      <trkpt lat="44.36777" lon="3.34957">
        <ele>860</ele>
        <time>2020-03-10T17:36:16Z</time>
      </trkpt>
      <trkpt lat="44.36758" lon="3.34983">
        <ele>861</ele>
        <time>2020-03-10T17:36:20Z</time>
      </trkpt>
      <trkpt lat="44.36746" lon="3.35017">
        <ele>862</ele>
        <time>2020-03-10T17:36:25Z</time>
      </trkpt>
      <trkpt lat="44.3673" lon="3.35073">
        <ele>863</ele>
        <time>2020-03-10T17:36:33Z</time>
      </trkpt>
      <trkpt lat="44.36722" lon="3.35091">
        <ele>863</ele>
        <time>2020-03-10T17:36:35Z</time>
      </trkpt>
      <trkpt lat="44.36704" lon="3.3511">
        <ele>864</ele>
        <time>2020-03-10T17:36:39Z</time>
      </trkpt>
      <trkpt lat="44.36648" lon="3.3516">
        <ele>867</ele>
        <time>2020-03-10T17:36:51Z</time>
      </trkpt>
      <trkpt lat="44.36621" lon="3.35174">
        <ele>868</ele>
        <time>2020-03-10T17:36:56Z</time>
      </trkpt>
      <trkpt lat="44.36592" lon="3.35185">
        <ele>868</ele>
        <time>2020-03-10T17:37:02Z</time>
      </trkpt>
      <trkpt lat="44.36547" lon="3.35189">
        <ele>867</ele>
        <time>2020-03-10T17:37:10Z</time>
      </trkpt>
      <trkpt lat="44.36507" lon="3.35187">
        <ele>866</ele>
        <time>2020-03-10T17:37:17Z</time>
      </trkpt>
      <trkpt lat="44.36481" lon="3.35191">
        <ele>865</ele>
        <time>2020-03-10T17:37:22Z</time>
      </trkpt>
      <trkpt lat="44.36457" lon="3.35201">
        <ele>863</ele>
        <time>2020-03-10T17:37:26Z</time>
      </trkpt>
      <trkpt lat="44.36386" lon="3.35241">
        <ele>859</ele>
        <time>2020-03-10T17:37:40Z</time>
      </trkpt>
      <trkpt lat="44.36301" lon="3.35284">
        <ele>855</ele>
        <time>2020-03-10T17:37:56Z</time>
      </trkpt>
      <trkpt lat="44.36093" lon="3.35405">
        <ele>843</ele>
        <time>2020-03-10T17:38:36Z</time>
      </trkpt>
      <trkpt lat="44.36064" lon="3.3542">
        <ele>841</ele>
        <time>2020-03-10T17:38:41Z</time>
      </trkpt>
      <trkpt lat="44.35996" lon="3.35444">
        <ele>838</ele>
        <time>2020-03-10T17:38:54Z</time>
      </trkpt>
      <trkpt lat="44.35977" lon="3.35448">
        <ele>837</ele>
        <time>2020-03-10T17:38:57Z</time>
      </trkpt>
      <trkpt lat="44.35963" lon="3.35448">
        <ele>837</ele>
        <time>2020-03-10T17:39:00Z</time>
      </trkpt>
      <trkpt lat="44.35878" lon="3.35416">
        <ele>830</ele>
        <time>2020-03-10T17:39:15Z</time>
      </trkpt>
      <trkpt lat="44.35704" lon="3.35367">
        <ele>822</ele>
        <time>2020-03-10T17:39:47Z</time>
      </trkpt>
      <trkpt lat="44.35638" lon="3.35364">
        <ele>820</ele>
        <time>2020-03-10T17:39:59Z</time>
      </trkpt>
      <trkpt lat="44.35517" lon="3.35352">
        <ele>818</ele>
        <time>2020-03-10T17:40:20Z</time>
      </trkpt>
      <trkpt lat="44.35496" lon="3.35351">
        <ele>817</ele>
        <time>2020-03-10T17:40:24Z</time>
      </trkpt>
      <trkpt lat="44.35464" lon="3.35356">
        <ele>815</ele>
        <time>2020-03-10T17:40:30Z</time>
      </trkpt>
      <trkpt lat="44.35414" lon="3.35381">
        <ele>813</ele>
        <time>2020-03-10T17:40:39Z</time>
      </trkpt>
      <trkpt lat="44.35389" lon="3.354">
        <ele>812</ele>
        <time>2020-03-10T17:40:44Z</time>
      </trkpt>
      <trkpt lat="44.35334" lon="3.35456">
        <ele>809</ele>
        <time>2020-03-10T17:40:56Z</time>
      </trkpt>
      <trkpt lat="44.35323" lon="3.3547">
        <ele>809</ele>
        <time>2020-03-10T17:40:59Z</time>
      </trkpt>
      <trkpt lat="44.35308" lon="3.35501">
        <ele>809</ele>
        <time>2020-03-10T17:41:04Z</time>
      </trkpt>
      <trkpt lat="44.353" lon="3.35531">
        <ele>812</ele>
        <time>2020-03-10T17:41:08Z</time>
      </trkpt>
      <trkpt lat="44.35292" lon="3.35547">
        <ele>813</ele>
        <time>2020-03-10T17:41:10Z</time>
      </trkpt>
      <trkpt lat="44.3525" lon="3.35606">
        <ele>814</ele>
        <time>2020-03-10T17:41:21Z</time>
      </trkpt>
      <trkpt lat="44.35237" lon="3.35617">
        <ele>814</ele>
        <time>2020-03-10T17:41:24Z</time>
      </trkpt>
      <trkpt lat="44.35223" lon="3.35624">
        <ele>814</ele>
        <time>2020-03-10T17:41:26Z</time>
      </trkpt>
      <trkpt lat="44.3518" lon="3.3564">
        <ele>813</ele>
        <time>2020-03-10T17:41:34Z</time>
      </trkpt>
      <trkpt lat="44.35151" lon="3.35664">
        <ele>812</ele>
        <time>2020-03-10T17:41:40Z</time>
      </trkpt>
      <trkpt lat="44.3514" lon="3.35686">
        <ele>813</ele>
        <time>2020-03-10T17:41:44Z</time>
      </trkpt>
      <trkpt lat="44.35131" lon="3.3571">
        <ele>814</ele>
        <time>2020-03-10T17:41:47Z</time>
      </trkpt>
      <trkpt lat="44.3513" lon="3.35732">
        <ele>816</ele>
        <time>2020-03-10T17:41:50Z</time>
      </trkpt>
      <trkpt lat="44.3513" lon="3.35772">
        <ele>820</ele>
        <time>2020-03-10T17:41:55Z</time>
      </trkpt>
      <trkpt lat="44.35126" lon="3.35819">
        <ele>822</ele>
        <time>2020-03-10T17:42:01Z</time>
      </trkpt>
      <trkpt lat="44.35109" lon="3.35911">
        <ele>821</ele>
        <time>2020-03-10T17:42:13Z</time>
      </trkpt>
      <trkpt lat="44.351" lon="3.35936">
        <ele>819</ele>
        <time>2020-03-10T17:42:17Z</time>
      </trkpt>
      <trkpt lat="44.35069" lon="3.35988">
        <ele>816</ele>
        <time>2020-03-10T17:42:25Z</time>
      </trkpt>
      <trkpt lat="44.35054" lon="3.36026">
        <ele>814</ele>
        <time>2020-03-10T17:42:31Z</time>
      </trkpt>
      <trkpt lat="44.3502" lon="3.36158">
        <ele>814</ele>
        <time>2020-03-10T17:42:49Z</time>
      </trkpt>
      <trkpt lat="44.35011" lon="3.36181">
        <ele>815</ele>
        <time>2020-03-10T17:42:52Z</time>
      </trkpt>
      <trkpt lat="44.35005" lon="3.3619">
        <ele>816</ele>
        <time>2020-03-10T17:42:53Z</time>
      </trkpt>
      <trkpt lat="44.34997" lon="3.36201">
        <ele>816</ele>
        <time>2020-03-10T17:42:55Z</time>
      </trkpt>
      <trkpt lat="44.34941" lon="3.36255">
        <ele>821</ele>
        <time>2020-03-10T17:43:08Z</time>
      </trkpt>
      <trkpt lat="44.34927" lon="3.36265">
        <ele>821</ele>
        <time>2020-03-10T17:43:10Z</time>
      </trkpt>
      <trkpt lat="44.34885" lon="3.36282">
        <ele>821</ele>
        <time>2020-03-10T17:43:18Z</time>
      </trkpt>
      <trkpt lat="44.34875" lon="3.3629">
        <ele>821</ele>
        <time>2020-03-10T17:43:20Z</time>
      </trkpt>
      <trkpt lat="44.34867" lon="3.36302">
        <ele>821</ele>
        <time>2020-03-10T17:43:22Z</time>
      </trkpt>
      <trkpt lat="44.34864" lon="3.36317">
        <ele>822</ele>
        <time>2020-03-10T17:43:24Z</time>
      </trkpt>
      <trkpt lat="44.34864" lon="3.36333">
        <ele>822</ele>
        <time>2020-03-10T17:43:26Z</time>
      </trkpt>
      <trkpt lat="44.34869" lon="3.36349">
        <ele>821</ele>
        <time>2020-03-10T17:43:29Z</time>
      </trkpt>
      <trkpt lat="44.3488" lon="3.36363">
        <ele>822</ele>
        <time>2020-03-10T17:43:31Z</time>
      </trkpt>
      <trkpt lat="44.34906" lon="3.36385">
        <ele>823</ele>
        <time>2020-03-10T17:43:37Z</time>
      </trkpt>
      <trkpt lat="44.34915" lon="3.36397">
        <ele>824</ele>
        <time>2020-03-10T17:43:39Z</time>
      </trkpt>
      <trkpt lat="44.34923" lon="3.36413">
        <ele>825</ele>
        <time>2020-03-10T17:43:41Z</time>
      </trkpt>
      <trkpt lat="44.34927" lon="3.36432">
        <ele>825</ele>
        <time>2020-03-10T17:43:44Z</time>
      </trkpt>
      <trkpt lat="44.34948" lon="3.36548">
        <ele>828</ele>
        <time>2020-03-10T17:43:59Z</time>
      </trkpt>
      <trkpt lat="44.34949" lon="3.36574">
        <ele>828</ele>
        <time>2020-03-10T17:44:02Z</time>
      </trkpt>
      <trkpt lat="44.34947" lon="3.36595">
        <ele>828</ele>
        <time>2020-03-10T17:44:05Z</time>
      </trkpt>
      <trkpt lat="44.34939" lon="3.36624">
        <ele>829</ele>
        <time>2020-03-10T17:44:09Z</time>
      </trkpt>
      <trkpt lat="44.34928" lon="3.36645">
        <ele>830</ele>
        <time>2020-03-10T17:44:12Z</time>
      </trkpt>
      <trkpt lat="44.34915" lon="3.36663">
        <ele>831</ele>
        <time>2020-03-10T17:44:16Z</time>
      </trkpt>
      <trkpt lat="44.34846" lon="3.36727">
        <ele>830</ele>
        <time>2020-03-10T17:44:30Z</time>
      </trkpt>
      <trkpt lat="44.34833" lon="3.36742">
        <ele>831</ele>
        <time>2020-03-10T17:44:33Z</time>
      </trkpt>
      <trkpt lat="44.34825" lon="3.36755">
        <ele>829</ele>
        <time>2020-03-10T17:44:35Z</time>
      </trkpt>
      <trkpt lat="44.34821" lon="3.36768">
        <ele>827</ele>
        <time>2020-03-10T17:44:37Z</time>
      </trkpt>
      <trkpt lat="44.34816" lon="3.36796">
        <ele>824</ele>
        <time>2020-03-10T17:44:41Z</time>
      </trkpt>
      <trkpt lat="44.34814" lon="3.36842">
        <ele>820</ele>
        <time>2020-03-10T17:44:47Z</time>
      </trkpt>
      <trkpt lat="44.34819" lon="3.36868">
        <ele>821</ele>
        <time>2020-03-10T17:44:50Z</time>
      </trkpt>
      <trkpt lat="44.3483" lon="3.3691">
        <ele>823</ele>
        <time>2020-03-10T17:44:56Z</time>
      </trkpt>
      <trkpt lat="44.34829" lon="3.36934">
        <ele>822</ele>
        <time>2020-03-10T17:44:59Z</time>
      </trkpt>
      <trkpt lat="44.34809" lon="3.37062">
        <ele>810</ele>
        <time>2020-03-10T17:45:16Z</time>
      </trkpt>
      <trkpt lat="44.34809" lon="3.37092">
        <ele>809</ele>
        <time>2020-03-10T17:45:19Z</time>
      </trkpt>
      <trkpt lat="44.34811" lon="3.37109">
        <ele>810</ele>
        <time>2020-03-10T17:45:22Z</time>
      </trkpt>
      <trkpt lat="44.34823" lon="3.37157">
        <ele>816</ele>
        <time>2020-03-10T17:45:28Z</time>
      </trkpt>
      <trkpt lat="44.34826" lon="3.37182">
        <ele>818</ele>
        <time>2020-03-10T17:45:31Z</time>
      </trkpt>
      <trkpt lat="44.34825" lon="3.37231">
        <ele>820</ele>
        <time>2020-03-10T17:45:38Z</time>
      </trkpt>
      <trkpt lat="44.3482" lon="3.37249">
        <ele>820</ele>
        <time>2020-03-10T17:45:40Z</time>
      </trkpt>
      <trkpt lat="44.34809" lon="3.37263">
        <ele>819</ele>
        <time>2020-03-10T17:45:43Z</time>
      </trkpt>
      <trkpt lat="44.34797" lon="3.3727">
        <ele>818</ele>
        <time>2020-03-10T17:45:45Z</time>
      </trkpt>
      <trkpt lat="44.34727" lon="3.37293">
        <ele>802</ele>
        <time>2020-03-10T17:45:58Z</time>
      </trkpt>
      <trkpt lat="44.34712" lon="3.37303">
        <ele>797</ele>
        <time>2020-03-10T17:46:01Z</time>
      </trkpt>
      <trkpt lat="44.34708" lon="3.37309">
        <ele>797</ele>
        <time>2020-03-10T17:46:02Z</time>
      </trkpt>
      <trkpt lat="44.34702" lon="3.37319">
        <ele>797</ele>
        <time>2020-03-10T17:46:03Z</time>
      </trkpt>
      <trkpt lat="44.34684" lon="3.37363">
        <ele>800</ele>
        <time>2020-03-10T17:46:10Z</time>
      </trkpt>
      <trkpt lat="44.34661" lon="3.37406">
        <ele>797</ele>
        <time>2020-03-10T17:46:17Z</time>
      </trkpt>
      <trkpt lat="44.34658" lon="3.37417">
        <ele>797</ele>
        <time>2020-03-10T17:46:18Z</time>
      </trkpt>
      <trkpt lat="44.34655" lon="3.37429">
        <ele>797</ele>
        <time>2020-03-10T17:46:20Z</time>
      </trkpt>
      <trkpt lat="44.34655" lon="3.37443">
        <ele>798</ele>
        <time>2020-03-10T17:46:22Z</time>
      </trkpt>
      <trkpt lat="44.3466" lon="3.37478">
        <ele>806</ele>
        <time>2020-03-10T17:46:26Z</time>
      </trkpt>
      <trkpt lat="44.3466" lon="3.37489">
        <ele>808</ele>
        <time>2020-03-10T17:46:28Z</time>
      </trkpt>
      <trkpt lat="44.34657" lon="3.37501">
        <ele>807</ele>
        <time>2020-03-10T17:46:29Z</time>
      </trkpt>
      <trkpt lat="44.34653" lon="3.37512">
        <ele>807</ele>
        <time>2020-03-10T17:46:31Z</time>
      </trkpt>
      <trkpt lat="44.34631" lon="3.37551">
        <ele>802</ele>
        <time>2020-03-10T17:46:37Z</time>
      </trkpt>
      <trkpt lat="44.3461" lon="3.37601">
        <ele>803</ele>
        <time>2020-03-10T17:46:44Z</time>
      </trkpt>
      <trkpt lat="44.34599" lon="3.37623">
        <ele>804</ele>
        <time>2020-03-10T17:46:48Z</time>
      </trkpt>
      <trkpt lat="44.34567" lon="3.37655">
        <ele>796</ele>
        <time>2020-03-10T17:46:55Z</time>
      </trkpt>
      <trkpt lat="44.34557" lon="3.37667">
        <ele>795</ele>
        <time>2020-03-10T17:46:57Z</time>
      </trkpt>
      <trkpt lat="44.34547" lon="3.37683">
        <ele>794</ele>
        <time>2020-03-10T17:47:00Z</time>
      </trkpt>
      <trkpt lat="44.34526" lon="3.37736">
        <ele>797</ele>
        <time>2020-03-10T17:47:08Z</time>
      </trkpt>
      <trkpt lat="44.34514" lon="3.37759">
        <ele>797</ele>
        <time>2020-03-10T17:47:11Z</time>
      </trkpt>
      <trkpt lat="44.34479" lon="3.37815">
        <ele>795</ele>
        <time>2020-03-10T17:47:21Z</time>
      </trkpt>
      <trkpt lat="44.3446" lon="3.37841">
        <ele>795</ele>
        <time>2020-03-10T17:47:25Z</time>
      </trkpt>
      <trkpt lat="44.34444" lon="3.37859">
        <ele>794</ele>
        <time>2020-03-10T17:47:29Z</time>
      </trkpt>
      <trkpt lat="44.34414" lon="3.37889">
        <ele>792</ele>
        <time>2020-03-10T17:47:36Z</time>
      </trkpt>
      <trkpt lat="44.34388" lon="3.37909">
        <ele>792</ele>
        <time>2020-03-10T17:47:41Z</time>
      </trkpt>
      <trkpt lat="44.34327" lon="3.3794">
        <ele>780</ele>
        <time>2020-03-10T17:47:53Z</time>
      </trkpt>
      <trkpt lat="44.3431" lon="3.37952">
        <ele>776</ele>
        <time>2020-03-10T17:47:56Z</time>
      </trkpt>
      <trkpt lat="44.34294" lon="3.3797">
        <ele>772</ele>
        <time>2020-03-10T17:48:00Z</time>
      </trkpt>
      <trkpt lat="44.34291" lon="3.37984">
        <ele>774</ele>
        <time>2020-03-10T17:48:01Z</time>
      </trkpt>
      <trkpt lat="44.34291" lon="3.37993">
        <ele>775</ele>
        <time>2020-03-10T17:48:03Z</time>
      </trkpt>
      <trkpt lat="44.34295" lon="3.38002">
        <ele>778</ele>
        <time>2020-03-10T17:48:04Z</time>
      </trkpt>
      <trkpt lat="44.34324" lon="3.38054">
        <ele>783</ele>
        <time>2020-03-10T17:48:12Z</time>
      </trkpt>
      <trkpt lat="44.34337" lon="3.38087">
        <ele>783</ele>
        <time>2020-03-10T17:48:17Z</time>
      </trkpt>
      <trkpt lat="44.34345" lon="3.38125">
        <ele>780</ele>
        <time>2020-03-10T17:48:22Z</time>
      </trkpt>
      <trkpt lat="44.34353" lon="3.38192">
        <ele>769</ele>
        <time>2020-03-10T17:48:31Z</time>
      </trkpt>
      <trkpt lat="44.34356" lon="3.38207">
        <ele>766</ele>
        <time>2020-03-10T17:48:33Z</time>
      </trkpt>
      <trkpt lat="44.34361" lon="3.38221">
        <ele>765</ele>
        <time>2020-03-10T17:48:35Z</time>
      </trkpt>
      <trkpt lat="44.34368" lon="3.38233">
        <ele>764</ele>
        <time>2020-03-10T17:48:37Z</time>
      </trkpt>
      <trkpt lat="44.34377" lon="3.38243">
        <ele>765</ele>
        <time>2020-03-10T17:48:39Z</time>
      </trkpt>
      <trkpt lat="44.34387" lon="3.3825">
        <ele>767</ele>
        <time>2020-03-10T17:48:41Z</time>
      </trkpt>
      <trkpt lat="44.344" lon="3.38256">
        <ele>769</ele>
        <time>2020-03-10T17:48:43Z</time>
      </trkpt>
      <trkpt lat="44.34443" lon="3.38268">
        <ele>779</ele>
        <time>2020-03-10T17:48:51Z</time>
      </trkpt>
      <trkpt lat="44.34457" lon="3.38279">
        <ele>779</ele>
        <time>2020-03-10T17:48:54Z</time>
      </trkpt>
      <trkpt lat="44.34469" lon="3.38296">
        <ele>776</ele>
        <time>2020-03-10T17:48:57Z</time>
      </trkpt>
      <trkpt lat="44.34498" lon="3.38355">
        <ele>762</ele>
        <time>2020-03-10T17:49:06Z</time>
      </trkpt>
      <trkpt lat="44.34509" lon="3.38373">
        <ele>760</ele>
        <time>2020-03-10T17:49:09Z</time>
      </trkpt>
      <trkpt lat="44.34519" lon="3.3838">
        <ele>762</ele>
        <time>2020-03-10T17:49:11Z</time>
      </trkpt>
      <trkpt lat="44.34553" lon="3.38398">
        <ele>769</ele>
        <time>2020-03-10T17:49:17Z</time>
      </trkpt>
      <trkpt lat="44.34567" lon="3.38418">
        <ele>766</ele>
        <time>2020-03-10T17:49:21Z</time>
      </trkpt>
      <trkpt lat="44.34584" lon="3.38447">
        <ele>759</ele>
        <time>2020-03-10T17:49:26Z</time>
      </trkpt>
      <trkpt lat="44.34605" lon="3.3847">
        <ele>758</ele>
        <time>2020-03-10T17:49:31Z</time>
      </trkpt>
      <trkpt lat="44.34613" lon="3.38476">
        <ele>759</ele>
        <time>2020-03-10T17:49:32Z</time>
      </trkpt>
      <trkpt lat="44.34643" lon="3.3849">
        <ele>768</ele>
        <time>2020-03-10T17:49:38Z</time>
      </trkpt>
      <trkpt lat="44.34649" lon="3.38493">
        <ele>770</ele>
        <time>2020-03-10T17:49:39Z</time>
      </trkpt>
      <trkpt lat="44.34654" lon="3.385">
        <ele>769</ele>
        <time>2020-03-10T17:49:40Z</time>
      </trkpt>
      <trkpt lat="44.34658" lon="3.3851">
        <ele>767</ele>
        <time>2020-03-10T17:49:42Z</time>
      </trkpt>
      <trkpt lat="44.34673" lon="3.38575">
        <ele>749</ele>
        <time>2020-03-10T17:49:50Z</time>
      </trkpt>
      <trkpt lat="44.34682" lon="3.38595">
        <ele>744</ele>
        <time>2020-03-10T17:49:53Z</time>
      </trkpt>
      <trkpt lat="44.34689" lon="3.38605">
        <ele>743</ele>
        <time>2020-03-10T17:49:55Z</time>
      </trkpt>
      <trkpt lat="44.3471" lon="3.38621">
        <ele>746</ele>
        <time>2020-03-10T17:49:59Z</time>
      </trkpt>
      <trkpt lat="44.34773" lon="3.38656">
        <ele>757</ele>
        <time>2020-03-10T17:50:11Z</time>
      </trkpt>
      <trkpt lat="44.34786" lon="3.38668">
        <ele>758</ele>
        <time>2020-03-10T17:50:14Z</time>
      </trkpt>
      <trkpt lat="44.34807" lon="3.38712">
        <ele>751</ele>
        <time>2020-03-10T17:50:21Z</time>
      </trkpt>
      <trkpt lat="44.34824" lon="3.38733">
        <ele>752</ele>
        <time>2020-03-10T17:50:25Z</time>
      </trkpt>
      <trkpt lat="44.34836" lon="3.38779">
        <ele>743</ele>
        <time>2020-03-10T17:50:31Z</time>
      </trkpt>
      <trkpt lat="44.34867" lon="3.38852">
        <ele>735</ele>
        <time>2020-03-10T17:50:42Z</time>
      </trkpt>
      <trkpt lat="44.34874" lon="3.38861">
        <ele>736</ele>
        <time>2020-03-10T17:50:44Z</time>
      </trkpt>
      <trkpt lat="44.34902" lon="3.38891">
        <ele>742</ele>
        <time>2020-03-10T17:50:50Z</time>
      </trkpt>
      <trkpt lat="44.34916" lon="3.38916">
        <ele>741</ele>
        <time>2020-03-10T17:50:54Z</time>
      </trkpt>
      <trkpt lat="44.34926" lon="3.38943">
        <ele>737</ele>
        <time>2020-03-10T17:50:58Z</time>
      </trkpt>
      <trkpt lat="44.34932" lon="3.38971">
        <ele>731</ele>
        <time>2020-03-10T17:51:02Z</time>
      </trkpt>
      <trkpt lat="44.34941" lon="3.38995">
        <ele>728</ele>
        <time>2020-03-10T17:51:05Z</time>
      </trkpt>
      <trkpt lat="44.34959" lon="3.39019">
        <ele>733</ele>
        <time>2020-03-10T17:51:09Z</time>
      </trkpt>
      <trkpt lat="44.34973" lon="3.39043">
        <ele>735</ele>
        <time>2020-03-10T17:51:13Z</time>
      </trkpt>
      <trkpt lat="44.34982" lon="3.39073">
        <ele>733</ele>
        <time>2020-03-10T17:51:18Z</time>
      </trkpt>
      <trkpt lat="44.34989" lon="3.39118">
        <ele>724</ele>
        <time>2020-03-10T17:51:23Z</time>
      </trkpt>
      <trkpt lat="44.34993" lon="3.39131">
        <ele>722</ele>
        <time>2020-03-10T17:51:25Z</time>
      </trkpt>
      <trkpt lat="44.34999" lon="3.39138">
        <ele>723</ele>
        <time>2020-03-10T17:51:27Z</time>
      </trkpt>
      <trkpt lat="44.35009" lon="3.39146">
        <ele>723</ele>
        <time>2020-03-10T17:51:29Z</time>
      </trkpt>
      <trkpt lat="44.35167" lon="3.39213">
        <ele>718</ele>
        <time>2020-03-10T17:51:58Z</time>
      </trkpt>
      <trkpt lat="44.3519" lon="3.39221">
        <ele>714</ele>
        <time>2020-03-10T17:52:02Z</time>
      </trkpt>
      <trkpt lat="44.3521" lon="3.39223">
        <ele>712</ele>
        <time>2020-03-10T17:52:06Z</time>
      </trkpt>
      <trkpt lat="44.35232" lon="3.39223">
        <ele>711</ele>
        <time>2020-03-10T17:52:10Z</time>
      </trkpt>
      <trkpt lat="44.35265" lon="3.39211">
        <ele>712</ele>
        <time>2020-03-10T17:52:16Z</time>
      </trkpt>
      <trkpt lat="44.35295" lon="3.39196">
        <ele>711</ele>
        <time>2020-03-10T17:52:21Z</time>
      </trkpt>
      <trkpt lat="44.35323" lon="3.39178">
        <ele>712</ele>
        <time>2020-03-10T17:52:27Z</time>
      </trkpt>
      <trkpt lat="44.3535" lon="3.39144">
        <ele>719</ele>
        <time>2020-03-10T17:52:33Z</time>
      </trkpt>
      <trkpt lat="44.35363" lon="3.39137">
        <ele>719</ele>
        <time>2020-03-10T17:52:36Z</time>
      </trkpt>
      <trkpt lat="44.35402" lon="3.39141">
        <ele>708</ele>
        <time>2020-03-10T17:52:43Z</time>
      </trkpt>
      <trkpt lat="44.35419" lon="3.3914">
        <ele>705</ele>
        <time>2020-03-10T17:52:46Z</time>
      </trkpt>
      <trkpt lat="44.35477" lon="3.39125">
        <ele>705</ele>
        <time>2020-03-10T17:52:56Z</time>
      </trkpt>
      <trkpt lat="44.35502" lon="3.39124">
        <ele>703</ele>
        <time>2020-03-10T17:53:01Z</time>
      </trkpt>
      <trkpt lat="44.35647" lon="3.39135">
        <ele>686</ele>
        <time>2020-03-10T17:53:27Z</time>
      </trkpt>
      <trkpt lat="44.35655" lon="3.39133">
        <ele>686</ele>
        <time>2020-03-10T17:53:28Z</time>
      </trkpt>
      <trkpt lat="44.35671" lon="3.39126">
        <ele>687</ele>
        <time>2020-03-10T17:53:31Z</time>
      </trkpt>
      <trkpt lat="44.35694" lon="3.39104">
        <ele>691</ele>
        <time>2020-03-10T17:53:36Z</time>
      </trkpt>
      <trkpt lat="44.35717" lon="3.39057">
        <ele>703</ele>
        <time>2020-03-10T17:53:43Z</time>
      </trkpt>
      <trkpt lat="44.35721" lon="3.39054">
        <ele>703</ele>
        <time>2020-03-10T17:53:44Z</time>
      </trkpt>
      <trkpt lat="44.3573" lon="3.39053">
        <ele>701</ele>
        <time>2020-03-10T17:53:46Z</time>
      </trkpt>
      <trkpt lat="44.3574" lon="3.39055">
        <ele>699</ele>
        <time>2020-03-10T17:53:48Z</time>
      </trkpt>
      <trkpt lat="44.35782" lon="3.39094">
        <ele>685</ele>
        <time>2020-03-10T17:53:56Z</time>
      </trkpt>
      <trkpt lat="44.35804" lon="3.39105">
        <ele>683</ele>
        <time>2020-03-10T17:54:01Z</time>
      </trkpt>
      <trkpt lat="44.35825" lon="3.39112">
        <ele>682</ele>
        <time>2020-03-10T17:54:04Z</time>
      </trkpt>
      <trkpt lat="44.35917" lon="3.3913">
        <ele>689</ele>
        <time>2020-03-10T17:54:21Z</time>
      </trkpt>
      <trkpt lat="44.35947" lon="3.39134">
        <ele>693</ele>
        <time>2020-03-10T17:54:26Z</time>
      </trkpt>
      <trkpt lat="44.35954" lon="3.39138">
        <ele>694</ele>
        <time>2020-03-10T17:54:28Z</time>
      </trkpt>
      <trkpt lat="44.35958" lon="3.39147">
        <ele>692</ele>
        <time>2020-03-10T17:54:29Z</time>
      </trkpt>
      <trkpt lat="44.35961" lon="3.39158">
        <ele>690</ele>
        <time>2020-03-10T17:54:31Z</time>
      </trkpt>
      <trkpt lat="44.35959" lon="3.39171">
        <ele>688</ele>
        <time>2020-03-10T17:54:32Z</time>
      </trkpt>
      <trkpt lat="44.35955" lon="3.39178">
        <ele>689</ele>
        <time>2020-03-10T17:54:33Z</time>
      </trkpt>
      <trkpt lat="44.35949" lon="3.39184">
        <ele>689</ele>
        <time>2020-03-10T17:54:35Z</time>
      </trkpt>
      <trkpt lat="44.35937" lon="3.39189">
        <ele>688</ele>
        <time>2020-03-10T17:54:37Z</time>
      </trkpt>
      <trkpt lat="44.35907" lon="3.39195">
        <ele>683</ele>
        <time>2020-03-10T17:54:42Z</time>
      </trkpt>
      <trkpt lat="44.35828" lon="3.39225">
        <ele>668</ele>
        <time>2020-03-10T17:54:57Z</time>
      </trkpt>
      <trkpt lat="44.35792" lon="3.39248">
        <ele>660</ele>
        <time>2020-03-10T17:55:04Z</time>
      </trkpt>
      <trkpt lat="44.35735" lon="3.39313">
        <ele>664</ele>
        <time>2020-03-10T17:55:17Z</time>
      </trkpt>
      <trkpt lat="44.35713" lon="3.39333">
        <ele>662</ele>
        <time>2020-03-10T17:55:22Z</time>
      </trkpt>
      <trkpt lat="44.35691" lon="3.39349">
        <ele>660</ele>
        <time>2020-03-10T17:55:26Z</time>
      </trkpt>
      <trkpt lat="44.3565" lon="3.3937">
        <ele>653</ele>
        <time>2020-03-10T17:55:34Z</time>
      </trkpt>
      <trkpt lat="44.35629" lon="3.39386">
        <ele>652</ele>
        <time>2020-03-10T17:55:38Z</time>
      </trkpt>
      <trkpt lat="44.35583" lon="3.3943">
        <ele>649</ele>
        <time>2020-03-10T17:55:48Z</time>
      </trkpt>
      <trkpt lat="44.35554" lon="3.39461">
        <ele>642</ele>
        <time>2020-03-10T17:55:55Z</time>
      </trkpt>
      <trkpt lat="44.35537" lon="3.39484">
        <ele>640</ele>
        <time>2020-03-10T17:55:59Z</time>
      </trkpt>
      <trkpt lat="44.35519" lon="3.39516">
        <ele>638</ele>
        <time>2020-03-10T17:56:04Z</time>
      </trkpt>
      <trkpt lat="44.35504" lon="3.39555">
        <ele>637</ele>
        <time>2020-03-10T17:56:10Z</time>
      </trkpt>
      <trkpt lat="44.35441" lon="3.39769">
        <ele>628</ele>
        <time>2020-03-10T17:56:39Z</time>
      </trkpt>
      <trkpt lat="44.35439" lon="3.39779">
        <ele>627</ele>
        <time>2020-03-10T17:56:40Z</time>
      </trkpt>
      <trkpt lat="44.3544" lon="3.3979">
        <ele>627</ele>
        <time>2020-03-10T17:56:42Z</time>
      </trkpt>
      <trkpt lat="44.35448" lon="3.39835">
        <ele>630</ele>
        <time>2020-03-10T17:56:48Z</time>
      </trkpt>
      <trkpt lat="44.35479" lon="3.39912">
        <ele>630</ele>
        <time>2020-03-10T17:56:59Z</time>
      </trkpt>
      <trkpt lat="44.355" lon="3.39981">
        <ele>620</ele>
        <time>2020-03-10T17:57:08Z</time>
      </trkpt>
      <trkpt lat="44.35508" lon="3.39993">
        <ele>620</ele>
        <time>2020-03-10T17:57:11Z</time>
      </trkpt>
      <trkpt lat="44.35527" lon="3.40013">
        <ele>625</ele>
        <time>2020-03-10T17:57:15Z</time>
      </trkpt>
      <trkpt lat="44.35538" lon="3.40029">
        <ele>626</ele>
        <time>2020-03-10T17:57:18Z</time>
      </trkpt>
      <trkpt lat="44.35548" lon="3.40053">
        <ele>623</ele>
        <time>2020-03-10T17:57:21Z</time>
      </trkpt>
      <trkpt lat="44.35571" lon="3.40121">
        <ele>614</ele>
        <time>2020-03-10T17:57:31Z</time>
      </trkpt>
      <trkpt lat="44.35586" lon="3.40144">
        <ele>615</ele>
        <time>2020-03-10T17:57:35Z</time>
      </trkpt>
      <trkpt lat="44.3561" lon="3.40169">
        <ele>613</ele>
        <time>2020-03-10T17:57:40Z</time>
      </trkpt>
      <trkpt lat="44.35611" lon="3.40175">
        <ele>611</ele>
        <time>2020-03-10T17:57:41Z</time>
      </trkpt>
      <trkpt lat="44.3561" lon="3.40182">
        <ele>607</ele>
        <time>2020-03-10T17:57:42Z</time>
      </trkpt>
      <trkpt lat="44.35607" lon="3.40185">
        <ele>605</ele>
        <time>2020-03-10T17:57:42Z</time>
      </trkpt>
      <trkpt lat="44.35602" lon="3.40184">
        <ele>604</ele>
        <time>2020-03-10T17:57:43Z</time>
      </trkpt>
      <trkpt lat="44.35592" lon="3.40174">
        <ele>606</ele>
        <time>2020-03-10T17:57:45Z</time>
      </trkpt>
      <trkpt lat="44.35573" lon="3.40151">
        <ele>606</ele>
        <time>2020-03-10T17:57:50Z</time>
      </trkpt>
      <trkpt lat="44.35549" lon="3.40118">
        <ele>603</ele>
        <time>2020-03-10T17:57:56Z</time>
      </trkpt>
      <trkpt lat="44.35508" lon="3.40043">
        <ele>602</ele>
        <time>2020-03-10T17:58:08Z</time>
      </trkpt>
      <trkpt lat="44.3548" lon="3.40001">
        <ele>599</ele>
        <time>2020-03-10T17:58:15Z</time>
      </trkpt>
      <trkpt lat="44.3543" lon="3.3992">
        <ele>593</ele>
        <time>2020-03-10T17:58:29Z</time>
      </trkpt>
      <trkpt lat="44.35421" lon="3.39898">
        <ele>593</ele>
        <time>2020-03-10T17:58:32Z</time>
      </trkpt>
      <trkpt lat="44.35416" lon="3.39881">
        <ele>594</ele>
        <time>2020-03-10T17:58:34Z</time>
      </trkpt>
      <trkpt lat="44.35413" lon="3.39876">
        <ele>594</ele>
        <time>2020-03-10T17:58:35Z</time>
      </trkpt>
      <trkpt lat="44.35404" lon="3.39875">
        <ele>588</ele>
        <time>2020-03-10T17:58:37Z</time>
      </trkpt>
      <trkpt lat="44.35402" lon="3.39877">
        <ele>586</ele>
        <time>2020-03-10T17:58:37Z</time>
      </trkpt>
      <trkpt lat="44.35401" lon="3.39882">
        <ele>584</ele>
        <time>2020-03-10T17:58:38Z</time>
      </trkpt>
      <trkpt lat="44.35449" lon="3.39989">
        <ele>583</ele>
        <time>2020-03-10T17:58:54Z</time>
      </trkpt>
      <trkpt lat="44.35477" lon="3.40045">
        <ele>582</ele>
        <time>2020-03-10T17:59:03Z</time>
      </trkpt>
      <trkpt lat="44.35494" lon="3.40083">
        <ele>578</ele>
        <time>2020-03-10T17:59:08Z</time>
      </trkpt>
      <trkpt lat="44.35523" lon="3.40158">
        <ele>578</ele>
        <time>2020-03-10T17:59:19Z</time>
      </trkpt>
      <trkpt lat="44.35558" lon="3.40223">
        <ele>570</ele>
        <time>2020-03-10T17:59:30Z</time>
      </trkpt>
      <trkpt lat="44.35573" lon="3.40242">
        <ele>570</ele>
        <time>2020-03-10T17:59:33Z</time>
      </trkpt>
      <trkpt lat="44.35589" lon="3.40253">
        <ele>571</ele>
        <time>2020-03-10T17:59:36Z</time>
      </trkpt>
      <trkpt lat="44.35617" lon="3.4026">
        <ele>571</ele>
        <time>2020-03-10T17:59:41Z</time>
      </trkpt>
      <trkpt lat="44.35641" lon="3.40259">
        <ele>576</ele>
        <time>2020-03-10T17:59:46Z</time>
      </trkpt>
      <trkpt lat="44.35703" lon="3.40243">
        <ele>596</ele>
        <time>2020-03-10T17:59:57Z</time>
      </trkpt>
      <trkpt lat="44.35713" lon="3.40242">
        <ele>599</ele>
        <time>2020-03-10T17:59:59Z</time>
      </trkpt>
      <trkpt lat="44.35727" lon="3.40246">
        <ele>600</ele>
        <time>2020-03-10T18:00:01Z</time>
      </trkpt>
      <trkpt lat="44.35734" lon="3.4025">
        <ele>600</ele>
        <time>2020-03-10T18:00:03Z</time>
      </trkpt>
      <trkpt lat="44.35732" lon="3.40255">
        <ele>596</ele>
        <time>2020-03-10T18:00:03Z</time>
      </trkpt>
      <trkpt lat="44.35732" lon="3.40261">
        <ele>592</ele>
        <time>2020-03-10T18:00:04Z</time>
      </trkpt>
      <trkpt lat="44.35741" lon="3.40272">
        <ele>586</ele>
        <time>2020-03-10T18:00:06Z</time>
      </trkpt>
      <trkpt lat="44.35754" lon="3.40296">
        <ele>573</ele>
        <time>2020-03-10T18:00:10Z</time>
      </trkpt>
      <trkpt lat="44.35761" lon="3.40305">
        <ele>570</ele>
        <time>2020-03-10T18:00:12Z</time>
      </trkpt>
      <trkpt lat="44.35771" lon="3.40311">
        <ele>569</ele>
        <time>2020-03-10T18:00:14Z</time>
      </trkpt>
      <trkpt lat="44.35788" lon="3.40318">
        <ele>569</ele>
        <time>2020-03-10T18:00:17Z</time>
      </trkpt>
      <trkpt lat="44.35795" lon="3.4032">
        <ele>570</ele>
        <time>2020-03-10T18:00:18Z</time>
      </trkpt>
      <trkpt lat="44.35816" lon="3.40321">
        <ele>576</ele>
        <time>2020-03-10T18:00:22Z</time>
      </trkpt>
      <trkpt lat="44.35824" lon="3.40324">
        <ele>576</ele>
        <time>2020-03-10T18:00:23Z</time>
      </trkpt>
      <trkpt lat="44.35866" lon="3.40349">
        <ele>575</ele>
        <time>2020-03-10T18:00:31Z</time>
      </trkpt>
      <trkpt lat="44.35913" lon="3.40383">
        <ele>571</ele>
        <time>2020-03-10T18:00:41Z</time>
      </trkpt>
      <trkpt lat="44.35925" lon="3.40397">
        <ele>567</ele>
        <time>2020-03-10T18:00:44Z</time>
      </trkpt>
      <trkpt lat="44.35961" lon="3.40457">
        <ele>552</ele>
        <time>2020-03-10T18:00:54Z</time>
      </trkpt>
      <trkpt lat="44.36007" lon="3.40507">
        <ele>552</ele>
        <time>2020-03-10T18:01:04Z</time>
      </trkpt>
      <trkpt lat="44.36011" lon="3.40516">
        <ele>550</ele>
        <time>2020-03-10T18:01:05Z</time>
      </trkpt>
      <trkpt lat="44.36021" lon="3.40544">
        <ele>541</ele>
        <time>2020-03-10T18:01:09Z</time>
      </trkpt>
      <trkpt lat="44.36031" lon="3.40565">
        <ele>536</ele>
        <time>2020-03-10T18:01:12Z</time>
      </trkpt>
      <trkpt lat="44.36037" lon="3.40571">
        <ele>536</ele>
        <time>2020-03-10T18:01:14Z</time>
      </trkpt>
      <trkpt lat="44.36046" lon="3.40576">
        <ele>538</ele>
        <time>2020-03-10T18:01:15Z</time>
      </trkpt>
      <trkpt lat="44.36079" lon="3.4059">
        <ele>547</ele>
        <time>2020-03-10T18:01:22Z</time>
      </trkpt>
      <trkpt lat="44.36092" lon="3.40602">
        <ele>551</ele>
        <time>2020-03-10T18:01:24Z</time>
      </trkpt>
      <trkpt lat="44.36099" lon="3.40619">
        <ele>550</ele>
        <time>2020-03-10T18:01:27Z</time>
      </trkpt>
      <trkpt lat="44.36108" lon="3.40674">
        <ele>539</ele>
        <time>2020-03-10T18:01:34Z</time>
      </trkpt>
      <trkpt lat="44.36111" lon="3.40686">
        <ele>538</ele>
        <time>2020-03-10T18:01:36Z</time>
      </trkpt>
      <trkpt lat="44.36133" lon="3.40739">
        <ele>537</ele>
        <time>2020-03-10T18:01:43Z</time>
      </trkpt>
      <trkpt lat="44.36162" lon="3.40853">
        <ele>528</ele>
        <time>2020-03-10T18:01:59Z</time>
      </trkpt>
      <trkpt lat="44.3621" lon="3.40983">
        <ele>517</ele>
        <time>2020-03-10T18:02:17Z</time>
      </trkpt>
      <trkpt lat="44.36237" lon="3.41071">
        <ele>504</ele>
        <time>2020-03-10T18:02:30Z</time>
      </trkpt>
      <trkpt lat="44.36245" lon="3.41081">
        <ele>503</ele>
        <time>2020-03-10T18:02:32Z</time>
      </trkpt>
      <trkpt lat="44.36249" lon="3.41083">
        <ele>504</ele>
        <time>2020-03-10T18:02:32Z</time>
      </trkpt>
      <trkpt lat="44.36255" lon="3.41082">
        <ele>503</ele>
        <time>2020-03-10T18:02:33Z</time>
      </trkpt>
      <trkpt lat="44.36264" lon="3.41073">
        <ele>503</ele>
        <time>2020-03-10T18:02:35Z</time>
      </trkpt>
      <trkpt lat="44.36275" lon="3.41048">
        <ele>508</ele>
        <time>2020-03-10T18:02:39Z</time>
      </trkpt>
      <trkpt lat="44.36302" lon="3.40993">
        <ele>517</ele>
        <time>2020-03-10T18:02:48Z</time>
      </trkpt>
      <trkpt lat="44.3632" lon="3.40975">
        <ele>519</ele>
        <time>2020-03-10T18:02:52Z</time>
      </trkpt>
      <trkpt lat="44.36343" lon="3.40963">
        <ele>516</ele>
        <time>2020-03-10T18:02:56Z</time>
      </trkpt>
      <trkpt lat="44.36353" lon="3.40956">
        <ele>514</ele>
        <time>2020-03-10T18:02:58Z</time>
      </trkpt>
      <trkpt lat="44.36361" lon="3.40944">
        <ele>514</ele>
        <time>2020-03-10T18:03:00Z</time>
      </trkpt>
      <trkpt lat="44.36363" lon="3.40937">
        <ele>516</ele>
        <time>2020-03-10T18:03:01Z</time>
      </trkpt>
      <trkpt lat="44.3637" lon="3.40907">
        <ele>524</ele>
        <time>2020-03-10T18:03:05Z</time>
      </trkpt>
      <trkpt lat="44.36379" lon="3.40894">
        <ele>525</ele>
        <time>2020-03-10T18:03:07Z</time>
      </trkpt>
      <trkpt lat="44.36387" lon="3.40889">
        <ele>523</ele>
        <time>2020-03-10T18:03:09Z</time>
      </trkpt>
      <trkpt lat="44.36395" lon="3.40886">
        <ele>520</ele>
        <time>2020-03-10T18:03:10Z</time>
      </trkpt>
      <trkpt lat="44.36407" lon="3.40881">
        <ele>516</ele>
        <time>2020-03-10T18:03:13Z</time>
      </trkpt>
      <trkpt lat="44.36431" lon="3.40877">
        <ele>511</ele>
        <time>2020-03-10T18:03:17Z</time>
      </trkpt>
      <trkpt lat="44.36455" lon="3.40873">
        <ele>510</ele>
        <time>2020-03-10T18:03:21Z</time>
      </trkpt>
      <trkpt lat="44.36465" lon="3.40874">
        <ele>508</ele>
        <time>2020-03-10T18:03:23Z</time>
      </trkpt>
      <trkpt lat="44.36539" lon="3.40904">
        <ele>496</ele>
        <time>2020-03-10T18:03:37Z</time>
      </trkpt>
      <trkpt lat="44.36551" lon="3.40912">
        <ele>495</ele>
        <time>2020-03-10T18:03:39Z</time>
      </trkpt>
      <trkpt lat="44.36574" lon="3.40945">
        <ele>489</ele>
        <time>2020-03-10T18:03:45Z</time>
      </trkpt>
      <trkpt lat="44.36581" lon="3.40951">
        <ele>489</ele>
        <time>2020-03-10T18:03:46Z</time>
      </trkpt>
      <trkpt lat="44.36595" lon="3.40956">
        <ele>489</ele>
        <time>2020-03-10T18:03:49Z</time>
      </trkpt>
      <trkpt lat="44.36601" lon="3.40956">
        <ele>489</ele>
        <time>2020-03-10T18:03:50Z</time>
      </trkpt>
      <trkpt lat="44.36611" lon="3.40955">
        <ele>490</ele>
        <time>2020-03-10T18:03:52Z</time>
      </trkpt>
      <trkpt lat="44.3661" lon="3.40957">
        <ele>490</ele>
        <time>2020-03-10T18:03:52Z</time>
      </trkpt>
      <trkpt lat="44.36597" lon="3.40961">
        <ele>488</ele>
        <time>2020-03-10T18:03:54Z</time>
      </trkpt>
      <trkpt lat="44.36597" lon="3.40964">
        <ele>487</ele>
        <time>2020-03-10T18:03:55Z</time>
      </trkpt>
      <trkpt lat="44.366" lon="3.40967">
        <ele>487</ele>
        <time>2020-03-10T18:03:55Z</time>
      </trkpt>
      <trkpt lat="44.36595" lon="3.40978">
        <ele>483</ele>
        <time>2020-03-10T18:03:57Z</time>
      </trkpt>
      <trkpt lat="44.3659" lon="3.40982">
        <ele>482</ele>
        <time>2020-03-10T18:03:58Z</time>
      </trkpt>
      <trkpt lat="44.36591" lon="3.40985">
        <ele>481</ele>
        <time>2020-03-10T18:03:59Z</time>
      </trkpt>
      <trkpt lat="44.36596" lon="3.40986">
        <ele>482</ele>
        <time>2020-03-10T18:03:59Z</time>
      </trkpt>
      <trkpt lat="44.36596" lon="3.40995">
        <ele>479</ele>
        <time>2020-03-10T18:04:01Z</time>
      </trkpt>
      <trkpt lat="44.36585" lon="3.41006">
        <ele>477</ele>
        <time>2020-03-10T18:04:03Z</time>
      </trkpt>
      <trkpt lat="44.36556" lon="3.41029">
        <ele>474</ele>
        <time>2020-03-10T18:04:09Z</time>
      </trkpt>
      <trkpt lat="44.36557" lon="3.41033">
        <ele>474</ele>
        <time>2020-03-10T18:04:09Z</time>
      </trkpt>
      <trkpt lat="44.36558" lon="3.41042">
        <ele>474</ele>
        <time>2020-03-10T18:04:11Z</time>
      </trkpt>
      <trkpt lat="44.36558" lon="3.41052">
        <ele>474</ele>
        <time>2020-03-10T18:04:12Z</time>
      </trkpt>
      <trkpt lat="44.36556" lon="3.41062">
        <ele>473</ele>
        <time>2020-03-10T18:04:13Z</time>
      </trkpt>
      <trkpt lat="44.36553" lon="3.41067">
        <ele>473</ele>
        <time>2020-03-10T18:04:14Z</time>
      </trkpt>
      <trkpt lat="44.36551" lon="3.41074">
        <ele>473</ele>
        <time>2020-03-10T18:04:15Z</time>
      </trkpt>
      <trkpt lat="44.36542" lon="3.41118">
        <ele>473</ele>
        <time>2020-03-10T18:04:21Z</time>
      </trkpt>
      <trkpt lat="44.3654" lon="3.41139">
        <ele>473</ele>
        <time>2020-03-10T18:04:24Z</time>
      </trkpt>
      <trkpt lat="44.3654" lon="3.41161">
        <ele>474</ele>
        <time>2020-03-10T18:04:26Z</time>
      </trkpt>
      <trkpt lat="44.36542" lon="3.41184">
        <ele>474</ele>
        <time>2020-03-10T18:04:29Z</time>
      </trkpt>
      <trkpt lat="44.36544" lon="3.41199">
        <ele>474</ele>
        <time>2020-03-10T18:04:31Z</time>
      </trkpt>
      <trkpt lat="44.36548" lon="3.41212">
        <ele>474</ele>
        <time>2020-03-10T18:04:33Z</time>
      </trkpt>
      <trkpt lat="44.36553" lon="3.41221">
        <ele>474</ele>
        <time>2020-03-10T18:04:34Z</time>
      </trkpt>
      <trkpt lat="44.36555" lon="3.41224">
        <ele>474</ele>
        <time>2020-03-10T18:04:35Z</time>
      </trkpt>
      <trkpt lat="44.36557" lon="3.41225">
        <ele>474</ele>
        <time>2020-03-10T18:04:35Z</time>
      </trkpt>
      <trkpt lat="44.36572" lon="3.41227">
        <ele>474</ele>
        <time>2020-03-10T18:04:38Z</time>
      </trkpt>
      <trkpt lat="44.36576" lon="3.41226">
        <ele>474</ele>
        <time>2020-03-10T18:04:39Z</time>
      </trkpt>
      <trkpt lat="44.3658" lon="3.41227">
        <ele>474</ele>
        <time>2020-03-10T18:04:39Z</time>
      </trkpt>
      <trkpt lat="44.36583" lon="3.41229">
        <ele>474</ele>
        <time>2020-03-10T18:04:40Z</time>
      </trkpt>
      <trkpt lat="44.36588" lon="3.41235">
        <ele>475</ele>
        <time>2020-03-10T18:04:41Z</time>
      </trkpt>
      <trkpt lat="44.36592" lon="3.41227">
        <ele>476</ele>
        <time>2020-03-10T18:04:42Z</time>
      </trkpt>
      <trkpt lat="44.36628" lon="3.41212">
        <ele>484</ele>
        <time>2020-03-10T18:04:49Z</time>
      </trkpt>
      <trkpt lat="44.3664" lon="3.4121">
        <ele>487</ele>
        <time>2020-03-10T18:04:51Z</time>
      </trkpt>
      <trkpt lat="44.36673" lon="3.41215">
        <ele>493</ele>
        <time>2020-03-10T18:04:57Z</time>
      </trkpt>
      <trkpt lat="44.36691" lon="3.41211">
        <ele>496</ele>
        <time>2020-03-10T18:05:00Z</time>
      </trkpt>
      <trkpt lat="44.36715" lon="3.41209">
        <ele>500</ele>
        <time>2020-03-10T18:05:05Z</time>
      </trkpt>
      <trkpt lat="44.36723" lon="3.41211">
        <ele>501</ele>
        <time>2020-03-10T18:05:06Z</time>
      </trkpt>
      <trkpt lat="44.36736" lon="3.41224">
        <ele>502</ele>
        <time>2020-03-10T18:05:09Z</time>
      </trkpt>
      <trkpt lat="44.36759" lon="3.41265">
        <ele>506</ele>
        <time>2020-03-10T18:05:16Z</time>
      </trkpt>
      <trkpt lat="44.36769" lon="3.41275">
        <ele>509</ele>
        <time>2020-03-10T18:05:18Z</time>
      </trkpt>
      <trkpt lat="44.3682" lon="3.41284">
        <ele>518</ele>
        <time>2020-03-10T18:05:27Z</time>
      </trkpt>
      <trkpt lat="44.36822" lon="3.41282">
        <ele>518</ele>
        <time>2020-03-10T18:05:27Z</time>
      </trkpt>
      <trkpt lat="44.36821" lon="3.4128">
        <ele>518</ele>
        <time>2020-03-10T18:05:28Z</time>
      </trkpt>
      <trkpt lat="44.36817" lon="3.41276">
        <ele>516</ele>
        <time>2020-03-10T18:05:29Z</time>
      </trkpt>
      <trkpt lat="44.36803" lon="3.41271">
        <ele>513</ele>
        <time>2020-03-10T18:05:31Z</time>
      </trkpt>
      <trkpt lat="44.36781" lon="3.41249">
        <ele>506</ele>
        <time>2020-03-10T18:05:36Z</time>
      </trkpt>
      <trkpt lat="44.36768" lon="3.4122">
        <ele>508</ele>
        <time>2020-03-10T18:05:40Z</time>
      </trkpt>
      <trkpt lat="44.3676" lon="3.41198">
        <ele>509</ele>
        <time>2020-03-10T18:05:43Z</time>
      </trkpt>
      <trkpt lat="44.36729" lon="3.41157">
        <ele>505</ele>
        <time>2020-03-10T18:05:51Z</time>
      </trkpt>
      <trkpt lat="44.36726" lon="3.41147">
        <ele>505</ele>
        <time>2020-03-10T18:05:52Z</time>
      </trkpt>
      <trkpt lat="44.36726" lon="3.41105">
        <ele>503</ele>
        <time>2020-03-10T18:05:58Z</time>
      </trkpt>
      <trkpt lat="44.3674" lon="3.41098">
        <ele>506</ele>
        <time>2020-03-10T18:06:00Z</time>
      </trkpt>
      <trkpt lat="44.36748" lon="3.41086">
        <ele>508</ele>
        <time>2020-03-10T18:06:03Z</time>
      </trkpt>
      <trkpt lat="44.36742" lon="3.41029">
        <ele>508</ele>
        <time>2020-03-10T18:06:10Z</time>
      </trkpt>
      <trkpt lat="44.36735" lon="3.41004">
        <ele>507</ele>
        <time>2020-03-10T18:06:13Z</time>
      </trkpt>
      <trkpt lat="44.36726" lon="3.40984">
        <ele>508</ele>
        <time>2020-03-10T18:06:16Z</time>
      </trkpt>
      <trkpt lat="44.36714" lon="3.40969">
        <ele>507</ele>
        <time>2020-03-10T18:06:19Z</time>
      </trkpt>
      <trkpt lat="44.3667" lon="3.40939">
        <ele>500</ele>
        <time>2020-03-10T18:06:28Z</time>
      </trkpt>
      <trkpt lat="44.36664" lon="3.40939">
        <ele>498</ele>
        <time>2020-03-10T18:06:29Z</time>
      </trkpt>
      <trkpt lat="44.3666" lon="3.40943">
        <ele>497</ele>
        <time>2020-03-10T18:06:30Z</time>
      </trkpt>
      <trkpt lat="44.36656" lon="3.40945">
        <ele>496</ele>
        <time>2020-03-10T18:06:31Z</time>
      </trkpt>
      <trkpt lat="44.36639" lon="3.40941">
        <ele>496</ele>
        <time>2020-03-10T18:06:34Z</time>
      </trkpt>
      <trkpt lat="44.36624" lon="3.40945">
        <ele>494</ele>
        <time>2020-03-10T18:06:36Z</time>
      </trkpt>
      <trkpt lat="44.36613" lon="3.40951">
        <ele>492</ele>
        <time>2020-03-10T18:06:38Z</time>
      </trkpt>
      <trkpt lat="44.36611" lon="3.40955">
        <ele>490</ele>
        <time>2020-03-10T18:06:39Z</time>
      </trkpt>
      <trkpt lat="44.3661" lon="3.40957">
        <ele>490</ele>
        <time>2020-03-10T18:06:39Z</time>
      </trkpt>
      <trkpt lat="44.36597" lon="3.40961">
        <ele>488</ele>
        <time>2020-03-10T18:06:42Z</time>
      </trkpt>
      <trkpt lat="44.36597" lon="3.40964">
        <ele>487</ele>
        <time>2020-03-10T18:06:42Z</time>
      </trkpt>
      <trkpt lat="44.366" lon="3.40967">
        <ele>487</ele>
        <time>2020-03-10T18:06:43Z</time>
      </trkpt>
      <trkpt lat="44.36595" lon="3.40978">
        <ele>483</ele>
        <time>2020-03-10T18:06:44Z</time>
      </trkpt>
      <trkpt lat="44.3659" lon="3.40982">
        <ele>482</ele>
        <time>2020-03-10T18:06:45Z</time>
      </trkpt>
      <trkpt lat="44.36591" lon="3.40985">
        <ele>481</ele>
        <time>2020-03-10T18:06:46Z</time>
      </trkpt>
      <trkpt lat="44.36596" lon="3.40986">
        <ele>482</ele>
        <time>2020-03-10T18:06:47Z</time>
      </trkpt>
      <trkpt lat="44.36596" lon="3.40995">
        <ele>479</ele>
        <time>2020-03-10T18:06:48Z</time>
      </trkpt>
      <trkpt lat="44.36585" lon="3.41006">
        <ele>477</ele>
        <time>2020-03-10T18:06:50Z</time>
      </trkpt>
      <trkpt lat="44.36556" lon="3.41029">
        <ele>474</ele>
        <time>2020-03-10T18:06:56Z</time>
      </trkpt>
      <trkpt lat="44.36554" lon="3.41025">
        <ele>473</ele>
        <time>2020-03-10T18:06:57Z</time>
      </trkpt>
      <trkpt lat="44.3655" lon="3.41011">
        <ele>473</ele>
        <time>2020-03-10T18:06:59Z</time>
      </trkpt>
      <trkpt lat="44.36539" lon="3.40977">
        <ele>477</ele>
        <time>2020-03-10T18:07:04Z</time>
      </trkpt>
      <trkpt lat="44.36531" lon="3.40962">
        <ele>479</ele>
        <time>2020-03-10T18:07:06Z</time>
      </trkpt>
      <trkpt lat="44.36525" lon="3.40958">
        <ele>479</ele>
        <time>2020-03-10T18:07:07Z</time>
      </trkpt>
      <trkpt lat="44.36505" lon="3.40948">
        <ele>478</ele>
        <time>2020-03-10T18:07:11Z</time>
      </trkpt>
      <trkpt lat="44.3649" lon="3.40931">
        <ele>482</ele>
        <time>2020-03-10T18:07:14Z</time>
      </trkpt>
      <trkpt lat="44.36477" lon="3.40922">
        <ele>484</ele>
        <time>2020-03-10T18:07:17Z</time>
      </trkpt>
      <trkpt lat="44.36468" lon="3.40919">
        <ele>485</ele>
        <time>2020-03-10T18:07:19Z</time>
      </trkpt>
      <trkpt lat="44.36456" lon="3.40918">
        <ele>486</ele>
        <time>2020-03-10T18:07:21Z</time>
      </trkpt>
      <trkpt lat="44.36431" lon="3.40919">
        <ele>487</ele>
        <time>2020-03-10T18:07:25Z</time>
      </trkpt>
      <trkpt lat="44.36406" lon="3.40926">
        <ele>493</ele>
        <time>2020-03-10T18:07:30Z</time>
      </trkpt>
      <trkpt lat="44.36398" lon="3.40931">
        <ele>497</ele>
        <time>2020-03-10T18:07:31Z</time>
      </trkpt>
      <trkpt lat="44.36391" lon="3.40938">
        <ele>499</ele>
        <time>2020-03-10T18:07:33Z</time>
      </trkpt>
      <trkpt lat="44.36339" lon="3.41006">
        <ele>498</ele>
        <time>2020-03-10T18:07:45Z</time>
      </trkpt>
      <trkpt lat="44.36312" lon="3.41041">
        <ele>497</ele>
        <time>2020-03-10T18:07:52Z</time>
      </trkpt>
      <trkpt lat="44.36304" lon="3.4106">
        <ele>493</ele>
        <time>2020-03-10T18:07:55Z</time>
      </trkpt>
      <trkpt lat="44.36303" lon="3.4107">
        <ele>491</ele>
        <time>2020-03-10T18:07:56Z</time>
      </trkpt>
      <trkpt lat="44.36306" lon="3.41096">
        <ele>483</ele>
        <time>2020-03-10T18:07:59Z</time>
      </trkpt>
      <trkpt lat="44.36306" lon="3.41119">
        <ele>479</ele>
        <time>2020-03-10T18:08:02Z</time>
      </trkpt>
      <trkpt lat="44.36301" lon="3.41145">
        <ele>475</ele>
        <time>2020-03-10T18:08:06Z</time>
      </trkpt>
      <trkpt lat="44.36298" lon="3.41153">
        <ele>474</ele>
        <time>2020-03-10T18:08:07Z</time>
      </trkpt>
      <trkpt lat="44.36284" lon="3.41165">
        <ele>473</ele>
        <time>2020-03-10T18:08:10Z</time>
      </trkpt>
      <trkpt lat="44.36274" lon="3.41171">
        <ele>474</ele>
        <time>2020-03-10T18:08:12Z</time>
      </trkpt>
      <trkpt lat="44.3626" lon="3.41172">
        <ele>475</ele>
        <time>2020-03-10T18:08:14Z</time>
      </trkpt>
      <trkpt lat="44.36243" lon="3.41165">
        <ele>477</ele>
        <time>2020-03-10T18:08:17Z</time>
      </trkpt>
      <trkpt lat="44.3623" lon="3.41155">
        <ele>478</ele>
        <time>2020-03-10T18:08:20Z</time>
      </trkpt>
      <trkpt lat="44.36201" lon="3.41118">
        <ele>482</ele>
        <time>2020-03-10T18:08:27Z</time>
      </trkpt>
      <trkpt lat="44.3619" lon="3.411">
        <ele>483</ele>
        <time>2020-03-10T18:08:30Z</time>
      </trkpt>
      <trkpt lat="44.36152" lon="3.41017">
        <ele>484</ele>
        <time>2020-03-10T18:08:43Z</time>
      </trkpt>
      <trkpt lat="44.36105" lon="3.40902">
        <ele>488</ele>
        <time>2020-03-10T18:08:59Z</time>
      </trkpt>
      <trkpt lat="44.36072" lon="3.40836">
        <ele>486</ele>
        <time>2020-03-10T18:09:10Z</time>
      </trkpt>
      <trkpt lat="44.36037" lon="3.40751">
        <ele>486</ele>
        <time>2020-03-10T18:09:22Z</time>
      </trkpt>
      <trkpt lat="44.36026" lon="3.40732">
        <ele>485</ele>
        <time>2020-03-10T18:09:25Z</time>
      </trkpt>
      <trkpt lat="44.36013" lon="3.40715">
        <ele>483</ele>
        <time>2020-03-10T18:09:28Z</time>
      </trkpt>
      <trkpt lat="44.36008" lon="3.40705">
        <ele>482</ele>
        <time>2020-03-10T18:09:30Z</time>
      </trkpt>
      <trkpt lat="44.35987" lon="3.40648">
        <ele>488</ele>
        <time>2020-03-10T18:09:38Z</time>
      </trkpt>
      <trkpt lat="44.35972" lon="3.40622">
        <ele>491</ele>
        <time>2020-03-10T18:09:42Z</time>
      </trkpt>
      <trkpt lat="44.35897" lon="3.40521">
        <ele>492</ele>
        <time>2020-03-10T18:10:01Z</time>
      </trkpt>
      <trkpt lat="44.35872" lon="3.40496">
        <ele>491</ele>
        <time>2020-03-10T18:10:06Z</time>
      </trkpt>
      <trkpt lat="44.35842" lon="3.4047">
        <ele>493</ele>
        <time>2020-03-10T18:10:13Z</time>
      </trkpt>
      <trkpt lat="44.35825" lon="3.4046">
        <ele>493</ele>
        <time>2020-03-10T18:10:16Z</time>
      </trkpt>
      <trkpt lat="44.35776" lon="3.40449">
        <ele>490</ele>
        <time>2020-03-10T18:10:25Z</time>
      </trkpt>
      <trkpt lat="44.35763" lon="3.40448">
        <ele>488</ele>
        <time>2020-03-10T18:10:27Z</time>
      </trkpt>
      <trkpt lat="44.35729" lon="3.40448">
        <ele>483</ele>
        <time>2020-03-10T18:10:33Z</time>
      </trkpt>
      <trkpt lat="44.35713" lon="3.40446">
        <ele>482</ele>
        <time>2020-03-10T18:10:36Z</time>
      </trkpt>
      <trkpt lat="44.35664" lon="3.40424">
        <ele>480</ele>
        <time>2020-03-10T18:10:45Z</time>
      </trkpt>
      <trkpt lat="44.35632" lon="3.40416">
        <ele>479</ele>
        <time>2020-03-10T18:10:51Z</time>
      </trkpt>
      <trkpt lat="44.35568" lon="3.40403">
        <ele>481</ele>
        <time>2020-03-10T18:11:02Z</time>
      </trkpt>
      <trkpt lat="44.3555" lon="3.40397">
        <ele>482</ele>
        <time>2020-03-10T18:11:06Z</time>
      </trkpt>
      <trkpt lat="44.35531" lon="3.40386">
        <ele>484</ele>
        <time>2020-03-10T18:11:09Z</time>
      </trkpt>
      <trkpt lat="44.35455" lon="3.40333">
        <ele>481</ele>
        <time>2020-03-10T18:11:25Z</time>
      </trkpt>
      <trkpt lat="44.3544" lon="3.4032">
        <ele>479</ele>
        <time>2020-03-10T18:11:28Z</time>
      </trkpt>
      <trkpt lat="44.35434" lon="3.40312">
        <ele>479</ele>
        <time>2020-03-10T18:11:29Z</time>
      </trkpt>
      <trkpt lat="44.35424" lon="3.40285">
        <ele>480</ele>
        <time>2020-03-10T18:11:33Z</time>
      </trkpt>
      <trkpt lat="44.35399" lon="3.4024">
        <ele>482</ele>
        <time>2020-03-10T18:11:40Z</time>
      </trkpt>
      <trkpt lat="44.35382" lon="3.40198">
        <ele>487</ele>
        <time>2020-03-10T18:11:46Z</time>
      </trkpt>
      <trkpt lat="44.35371" lon="3.40176">
        <ele>487</ele>
        <time>2020-03-10T18:11:50Z</time>
      </trkpt>
      <trkpt lat="44.35302" lon="3.40047">
        <ele>484</ele>
        <time>2020-03-10T18:12:10Z</time>
      </trkpt>
      <trkpt lat="44.35274" lon="3.39966">
        <ele>487</ele>
        <time>2020-03-10T18:12:22Z</time>
      </trkpt>
      <trkpt lat="44.35263" lon="3.39915">
        <ele>491</ele>
        <time>2020-03-10T18:12:29Z</time>
      </trkpt>
      <trkpt lat="44.35259" lon="3.39902">
        <ele>491</ele>
        <time>2020-03-10T18:12:30Z</time>
      </trkpt>
      <trkpt lat="44.35233" lon="3.39842">
        <ele>491</ele>
        <time>2020-03-10T18:12:39Z</time>
      </trkpt>
      <trkpt lat="44.35223" lon="3.39814">
        <ele>489</ele>
        <time>2020-03-10T18:12:43Z</time>
      </trkpt>
      <trkpt lat="44.35208" lon="3.3975">
        <ele>486</ele>
        <time>2020-03-10T18:12:52Z</time>
      </trkpt>
      <trkpt lat="44.35204" lon="3.39734">
        <ele>486</ele>
        <time>2020-03-10T18:12:54Z</time>
      </trkpt>
      <trkpt lat="44.35199" lon="3.39719">
        <ele>486</ele>
        <time>2020-03-10T18:12:56Z</time>
      </trkpt>
      <trkpt lat="44.35189" lon="3.39701">
        <ele>485</ele>
        <time>2020-03-10T18:12:59Z</time>
      </trkpt>
      <trkpt lat="44.35183" lon="3.39693">
        <ele>484</ele>
        <time>2020-03-10T18:13:00Z</time>
      </trkpt>
      <trkpt lat="44.35162" lon="3.39669">
        <ele>483</ele>
        <time>2020-03-10T18:13:05Z</time>
      </trkpt>
      <trkpt lat="44.35126" lon="3.39639">
        <ele>487</ele>
        <time>2020-03-10T18:13:13Z</time>
      </trkpt>
      <trkpt lat="44.35099" lon="3.39606">
        <ele>492</ele>
        <time>2020-03-10T18:13:19Z</time>
      </trkpt>
      <trkpt lat="44.35085" lon="3.39593">
        <ele>493</ele>
        <time>2020-03-10T18:13:22Z</time>
      </trkpt>
      <trkpt lat="44.35025" lon="3.3956">
        <ele>500</ele>
        <time>2020-03-10T18:13:34Z</time>
      </trkpt>
      <trkpt lat="44.3501" lon="3.39558">
        <ele>498</ele>
        <time>2020-03-10T18:13:36Z</time>
      </trkpt>
      <trkpt lat="44.35002" lon="3.39559">
        <ele>497</ele>
        <time>2020-03-10T18:13:38Z</time>
      </trkpt>
      <trkpt lat="44.34982" lon="3.39569">
        <ele>490</ele>
        <time>2020-03-10T18:13:41Z</time>
      </trkpt>
      <trkpt lat="44.34967" lon="3.39575">
        <ele>487</ele>
        <time>2020-03-10T18:13:44Z</time>
      </trkpt>
      <trkpt lat="44.34951" lon="3.39573">
        <ele>488</ele>
        <time>2020-03-10T18:13:47Z</time>
      </trkpt>
      <trkpt lat="44.34919" lon="3.39562">
        <ele>494</ele>
        <time>2020-03-10T18:13:53Z</time>
      </trkpt>
      <trkpt lat="44.34895" lon="3.39558">
        <ele>496</ele>
        <time>2020-03-10T18:13:57Z</time>
      </trkpt>
      <trkpt lat="44.34877" lon="3.39558">
        <ele>496</ele>
        <time>2020-03-10T18:14:00Z</time>
      </trkpt>
      <trkpt lat="44.34827" lon="3.39569">
        <ele>490</ele>
        <time>2020-03-10T18:14:09Z</time>
      </trkpt>
      <trkpt lat="44.34779" lon="3.39569">
        <ele>491</ele>
        <time>2020-03-10T18:14:18Z</time>
      </trkpt>
      <trkpt lat="44.3475" lon="3.39577">
        <ele>488</ele>
        <time>2020-03-10T18:14:23Z</time>
      </trkpt>
      <trkpt lat="44.3473" lon="3.39581">
        <ele>485</ele>
        <time>2020-03-10T18:14:27Z</time>
      </trkpt>
      <trkpt lat="44.34693" lon="3.39575">
        <ele>485</ele>
        <time>2020-03-10T18:14:33Z</time>
      </trkpt>
      <trkpt lat="44.34675" lon="3.3957">
        <ele>485</ele>
        <time>2020-03-10T18:14:37Z</time>
      </trkpt>
      <trkpt lat="44.34659" lon="3.39561">
        <ele>486</ele>
        <time>2020-03-10T18:14:40Z</time>
      </trkpt>
      <trkpt lat="44.34624" lon="3.39531">
        <ele>486</ele>
        <time>2020-03-10T18:14:47Z</time>
      </trkpt>
      <trkpt lat="44.34599" lon="3.395">
        <ele>484</ele>
        <time>2020-03-10T18:14:53Z</time>
      </trkpt>
      <trkpt lat="44.34581" lon="3.3947">
        <ele>482</ele>
        <time>2020-03-10T18:14:58Z</time>
      </trkpt>
      <trkpt lat="44.34538" lon="3.39373">
        <ele>480</ele>
        <time>2020-03-10T18:15:13Z</time>
      </trkpt>
      <trkpt lat="44.34535" lon="3.39361">
        <ele>480</ele>
        <time>2020-03-10T18:15:14Z</time>
      </trkpt>
      <trkpt lat="44.34532" lon="3.39339">
        <ele>479</ele>
        <time>2020-03-10T18:15:17Z</time>
      </trkpt>
      <trkpt lat="44.34535" lon="3.3932">
        <ele>480</ele>
        <time>2020-03-10T18:15:20Z</time>
      </trkpt>
      <trkpt lat="44.34551" lon="3.39261">
        <ele>483</ele>
        <time>2020-03-10T18:15:28Z</time>
      </trkpt>
      <trkpt lat="44.34557" lon="3.39194">
        <ele>481</ele>
        <time>2020-03-10T18:15:36Z</time>
      </trkpt>
      <trkpt lat="44.34571" lon="3.3911">
        <ele>484</ele>
        <time>2020-03-10T18:15:47Z</time>
      </trkpt>
      <trkpt lat="44.34574" lon="3.39055">
        <ele>489</ele>
        <time>2020-03-10T18:15:54Z</time>
      </trkpt>
      <trkpt lat="44.34573" lon="3.39036">
        <ele>492</ele>
        <time>2020-03-10T18:15:57Z</time>
      </trkpt>
      <trkpt lat="44.34523" lon="3.38948">
        <ele>500</ele>
        <time>2020-03-10T18:16:11Z</time>
      </trkpt>
      <trkpt lat="44.34516" lon="3.3894">
        <ele>500</ele>
        <time>2020-03-10T18:16:12Z</time>
      </trkpt>
      <trkpt lat="44.34501" lon="3.38932">
        <ele>497</ele>
        <time>2020-03-10T18:16:15Z</time>
      </trkpt>
      <trkpt lat="44.34485" lon="3.38919">
        <ele>498</ele>
        <time>2020-03-10T18:16:19Z</time>
      </trkpt>
      <trkpt lat="44.3446" lon="3.38912">
        <ele>493</ele>
        <time>2020-03-10T18:16:23Z</time>
      </trkpt>
      <trkpt lat="44.34432" lon="3.38909">
        <ele>486</ele>
        <time>2020-03-10T18:16:28Z</time>
      </trkpt>
      <trkpt lat="44.34419" lon="3.38903">
        <ele>485</ele>
        <time>2020-03-10T18:16:31Z</time>
      </trkpt>
      <trkpt lat="44.34414" lon="3.38899">
        <ele>485</ele>
        <time>2020-03-10T18:16:32Z</time>
      </trkpt>
      <trkpt lat="44.34399" lon="3.38873">
        <ele>493</ele>
        <time>2020-03-10T18:16:36Z</time>
      </trkpt>
      <trkpt lat="44.34384" lon="3.38864">
        <ele>495</ele>
        <time>2020-03-10T18:16:39Z</time>
      </trkpt>
      <trkpt lat="44.34339" lon="3.38859">
        <ele>492</ele>
        <time>2020-03-10T18:16:47Z</time>
      </trkpt>
      <trkpt lat="44.34323" lon="3.38862">
        <ele>489</ele>
        <time>2020-03-10T18:16:50Z</time>
      </trkpt>
      <trkpt lat="44.34309" lon="3.38858">
        <ele>489</ele>
        <time>2020-03-10T18:16:52Z</time>
      </trkpt>
      <trkpt lat="44.34277" lon="3.38865">
        <ele>482</ele>
        <time>2020-03-10T18:16:58Z</time>
      </trkpt>
      <trkpt lat="44.34263" lon="3.38861">
        <ele>481</ele>
        <time>2020-03-10T18:17:01Z</time>
      </trkpt>
      <trkpt lat="44.34227" lon="3.38839">
        <ele>479</ele>
        <time>2020-03-10T18:17:08Z</time>
      </trkpt>
      <trkpt lat="44.34216" lon="3.3882">
        <ele>479</ele>
        <time>2020-03-10T18:17:11Z</time>
      </trkpt>
      <trkpt lat="44.34191" lon="3.38758">
        <ele>481</ele>
        <time>2020-03-10T18:17:20Z</time>
      </trkpt>
      <trkpt lat="44.34166" lon="3.38664">
        <ele>489</ele>
        <time>2020-03-10T18:17:32Z</time>
      </trkpt>
      <trkpt lat="44.34155" lon="3.38633">
        <ele>500</ele>
        <time>2020-03-10T18:17:37Z</time>
      </trkpt>
      <trkpt lat="44.34149" lon="3.38624">
        <ele>501</ele>
        <time>2020-03-10T18:17:38Z</time>
      </trkpt>
      <trkpt lat="44.34123" lon="3.38592">
        <ele>502</ele>
        <time>2020-03-10T18:17:45Z</time>
      </trkpt>
      <trkpt lat="44.34044" lon="3.38513">
        <ele>498</ele>
        <time>2020-03-10T18:18:02Z</time>
      </trkpt>
      <trkpt lat="44.3401" lon="3.3847">
        <ele>489</ele>
        <time>2020-03-10T18:18:10Z</time>
      </trkpt>
      <trkpt lat="44.33984" lon="3.38428">
        <ele>488</ele>
        <time>2020-03-10T18:18:17Z</time>
      </trkpt>
      <trkpt lat="44.33964" lon="3.38379">
        <ele>492</ele>
        <time>2020-03-10T18:18:24Z</time>
      </trkpt>
      <trkpt lat="44.33943" lon="3.38343">
        <ele>489</ele>
        <time>2020-03-10T18:18:30Z</time>
      </trkpt>
      <trkpt lat="44.33914" lon="3.38284">
        <ele>499</ele>
        <time>2020-03-10T18:18:39Z</time>
      </trkpt>
      <trkpt lat="44.33906" lon="3.38271">
        <ele>502</ele>
        <time>2020-03-10T18:18:41Z</time>
      </trkpt>
      <trkpt lat="44.33899" lon="3.38262">
        <ele>503</ele>
        <time>2020-03-10T18:18:43Z</time>
      </trkpt>
      <trkpt lat="44.33875" lon="3.38244">
        <ele>499</ele>
        <time>2020-03-10T18:18:48Z</time>
      </trkpt>
      <trkpt lat="44.3384" lon="3.38198">
        <ele>514</ele>
        <time>2020-03-10T18:18:57Z</time>
      </trkpt>
      <trkpt lat="44.33826" lon="3.38186">
        <ele>519</ele>
        <time>2020-03-10T18:18:59Z</time>
      </trkpt>
      <trkpt lat="44.33813" lon="3.3818">
        <ele>521</ele>
        <time>2020-03-10T18:19:02Z</time>
      </trkpt>
      <trkpt lat="44.33759" lon="3.38167">
        <ele>521</ele>
        <time>2020-03-10T18:19:12Z</time>
      </trkpt>
      <trkpt lat="44.33747" lon="3.38165">
        <ele>521</ele>
        <time>2020-03-10T18:19:14Z</time>
      </trkpt>
      <trkpt lat="44.33704" lon="3.38166">
        <ele>526</ele>
        <time>2020-03-10T18:19:21Z</time>
      </trkpt>
      <trkpt lat="44.33688" lon="3.38171">
        <ele>525</ele>
        <time>2020-03-10T18:19:24Z</time>
      </trkpt>
      <trkpt lat="44.33668" lon="3.38183">
        <ele>520</ele>
        <time>2020-03-10T18:19:28Z</time>
      </trkpt>
      <trkpt lat="44.3364" lon="3.38207">
        <ele>501</ele>
        <time>2020-03-10T18:19:34Z</time>
      </trkpt>
      <trkpt lat="44.33634" lon="3.38215">
        <ele>497</ele>
        <time>2020-03-10T18:19:36Z</time>
      </trkpt>
      <trkpt lat="44.3363" lon="3.38225">
        <ele>493</ele>
        <time>2020-03-10T18:19:37Z</time>
      </trkpt>
      <trkpt lat="44.33613" lon="3.38267">
        <ele>481</ele>
        <time>2020-03-10T18:19:43Z</time>
      </trkpt>
      <trkpt lat="44.33605" lon="3.3828">
        <ele>479</ele>
        <time>2020-03-10T18:19:45Z</time>
      </trkpt>
      <trkpt lat="44.33598" lon="3.38283">
        <ele>478</ele>
        <time>2020-03-10T18:19:47Z</time>
      </trkpt>
      <trkpt lat="44.33581" lon="3.38282">
        <ele>479</ele>
        <time>2020-03-10T18:19:50Z</time>
      </trkpt>
      <trkpt lat="44.33573" lon="3.38277">
        <ele>479</ele>
        <time>2020-03-10T18:19:51Z</time>
      </trkpt>
      <trkpt lat="44.33568" lon="3.3827">
        <ele>479</ele>
        <time>2020-03-10T18:19:52Z</time>
      </trkpt>
      <trkpt lat="44.3356" lon="3.38251">
        <ele>480</ele>
        <time>2020-03-10T18:19:55Z</time>
      </trkpt>
      <trkpt lat="44.33557" lon="3.38229">
        <ele>480</ele>
        <time>2020-03-10T18:19:58Z</time>
      </trkpt>
      <trkpt lat="44.33558" lon="3.3819">
        <ele>482</ele>
        <time>2020-03-10T18:20:03Z</time>
      </trkpt>
      <trkpt lat="44.33562" lon="3.38171">
        <ele>485</ele>
        <time>2020-03-10T18:20:06Z</time>
      </trkpt>
      <trkpt lat="44.33566" lon="3.38161">
        <ele>485</ele>
        <time>2020-03-10T18:20:07Z</time>
      </trkpt>
      <trkpt lat="44.33574" lon="3.38148">
        <ele>484</ele>
        <time>2020-03-10T18:20:09Z</time>
      </trkpt>
      <trkpt lat="44.33619" lon="3.38106">
        <ele>491</ele>
        <time>2020-03-10T18:20:19Z</time>
      </trkpt>
      <trkpt lat="44.33635" lon="3.38094">
        <ele>495</ele>
        <time>2020-03-10T18:20:22Z</time>
      </trkpt>
      <trkpt lat="44.33666" lon="3.38075">
        <ele>502</ele>
        <time>2020-03-10T18:20:28Z</time>
      </trkpt>
      <trkpt lat="44.33681" lon="3.38062">
        <ele>503</ele>
        <time>2020-03-10T18:20:31Z</time>
      </trkpt>
      <trkpt lat="44.33732" lon="3.3801">
        <ele>494</ele>
        <time>2020-03-10T18:20:43Z</time>
      </trkpt>
      <trkpt lat="44.33768" lon="3.37967">
        <ele>493</ele>
        <time>2020-03-10T18:20:51Z</time>
      </trkpt>
      <trkpt lat="44.33791" lon="3.37948">
        <ele>498</ele>
        <time>2020-03-10T18:20:56Z</time>
      </trkpt>
      <trkpt lat="44.33902" lon="3.37816">
        <ele>491</ele>
        <time>2020-03-10T18:21:22Z</time>
      </trkpt>
      <trkpt lat="44.33907" lon="3.37807">
        <ele>490</ele>
        <time>2020-03-10T18:21:23Z</time>
      </trkpt>
      <trkpt lat="44.33956" lon="3.37702">
        <ele>486</ele>
        <time>2020-03-10T18:21:39Z</time>
      </trkpt>
      <trkpt lat="44.34045" lon="3.37541">
        <ele>479</ele>
        <time>2020-03-10T18:22:05Z</time>
      </trkpt>
      <trkpt lat="44.34061" lon="3.37522">
        <ele>478</ele>
        <time>2020-03-10T18:22:09Z</time>
      </trkpt>
      <trkpt lat="44.34091" lon="3.37493">
        <ele>477</ele>
        <time>2020-03-10T18:22:15Z</time>
      </trkpt>
      <trkpt lat="44.34101" lon="3.37485">
        <ele>480</ele>
        <time>2020-03-10T18:22:17Z</time>
      </trkpt>
      <trkpt lat="44.34141" lon="3.37465">
        <ele>489</ele>
        <time>2020-03-10T18:22:25Z</time>
      </trkpt>
      <trkpt lat="44.34146" lon="3.3746">
        <ele>488</ele>
        <time>2020-03-10T18:22:26Z</time>
      </trkpt>
      <trkpt lat="44.34202" lon="3.37374">
        <ele>482</ele>
        <time>2020-03-10T18:22:41Z</time>
      </trkpt>
      <trkpt lat="44.34214" lon="3.37361">
        <ele>483</ele>
        <time>2020-03-10T18:22:43Z</time>
      </trkpt>
      <trkpt lat="44.3423" lon="3.37336">
        <ele>479</ele>
        <time>2020-03-10T18:22:48Z</time>
      </trkpt>
      <trkpt lat="44.34238" lon="3.37322">
        <ele>478</ele>
        <time>2020-03-10T18:22:50Z</time>
      </trkpt>
      <trkpt lat="44.34249" lon="3.37295">
        <ele>475</ele>
        <time>2020-03-10T18:22:54Z</time>
      </trkpt>
      <trkpt lat="44.34259" lon="3.37277">
        <ele>478</ele>
        <time>2020-03-10T18:22:57Z</time>
      </trkpt>
      <trkpt lat="44.34272" lon="3.37262">
        <ele>483</ele>
        <time>2020-03-10T18:23:00Z</time>
      </trkpt>
      <trkpt lat="44.34283" lon="3.37243">
        <ele>487</ele>
        <time>2020-03-10T18:23:03Z</time>
      </trkpt>
      <trkpt lat="44.343" lon="3.37188">
        <ele>490</ele>
        <time>2020-03-10T18:23:11Z</time>
      </trkpt>
      <trkpt lat="44.34302" lon="3.37177">
        <ele>490</ele>
        <time>2020-03-10T18:23:12Z</time>
      </trkpt>
      <trkpt lat="44.34305" lon="3.37131">
        <ele>485</ele>
        <time>2020-03-10T18:23:18Z</time>
      </trkpt>
      <trkpt lat="44.34313" lon="3.37085">
        <ele>481</ele>
        <time>2020-03-10T18:23:24Z</time>
      </trkpt>
      <trkpt lat="44.34315" lon="3.37059">
        <ele>481</ele>
        <time>2020-03-10T18:23:27Z</time>
      </trkpt>
      <trkpt lat="44.34315" lon="3.37025">
        <ele>479</ele>
        <time>2020-03-10T18:23:32Z</time>
      </trkpt>
      <trkpt lat="44.34311" lon="3.36977">
        <ele>478</ele>
        <time>2020-03-10T18:23:38Z</time>
      </trkpt>
      <trkpt lat="44.34311" lon="3.36921">
        <ele>480</ele>
        <time>2020-03-10T18:23:45Z</time>
      </trkpt>
      <trkpt lat="44.34288" lon="3.36811">
        <ele>482</ele>
        <time>2020-03-10T18:23:59Z</time>
      </trkpt>
      <trkpt lat="44.34278" lon="3.36781">
        <ele>482</ele>
        <time>2020-03-10T18:24:04Z</time>
      </trkpt>
      <trkpt lat="44.34259" lon="3.36743">
        <ele>478</ele>
        <time>2020-03-10T18:24:09Z</time>
      </trkpt>
      <trkpt lat="44.34249" lon="3.36719">
        <ele>482</ele>
        <time>2020-03-10T18:24:13Z</time>
      </trkpt>
      <trkpt lat="44.34215" lon="3.36652">
        <ele>489</ele>
        <time>2020-03-10T18:24:23Z</time>
      </trkpt>
      <trkpt lat="44.34186" lon="3.36611">
        <ele>483</ele>
        <time>2020-03-10T18:24:31Z</time>
      </trkpt>
      <trkpt lat="44.34167" lon="3.36592">
        <ele>476</ele>
        <time>2020-03-10T18:24:35Z</time>
      </trkpt>
      <trkpt lat="44.34161" lon="3.36586">
        <ele>476</ele>
        <time>2020-03-10T18:24:36Z</time>
      </trkpt>
      <trkpt lat="44.34138" lon="3.36553">
        <ele>479</ele>
        <time>2020-03-10T18:24:42Z</time>
      </trkpt>
      <trkpt lat="44.34128" lon="3.36534">
        <ele>480</ele>
        <time>2020-03-10T18:24:45Z</time>
      </trkpt>
      <trkpt lat="44.34106" lon="3.36512">
        <ele>475</ele>
        <time>2020-03-10T18:24:50Z</time>
      </trkpt>
      <trkpt lat="44.34094" lon="3.36496">
        <ele>473</ele>
        <time>2020-03-10T18:24:53Z</time>
      </trkpt>
      <trkpt lat="44.34034" lon="3.36407">
        <ele>475</ele>
        <time>2020-03-10T18:25:08Z</time>
      </trkpt>
      <trkpt lat="44.34016" lon="3.36377">
        <ele>474</ele>
        <time>2020-03-10T18:25:13Z</time>
      </trkpt>
      <trkpt lat="44.33995" lon="3.36329">
        <ele>475</ele>
        <time>2020-03-10T18:25:21Z</time>
      </trkpt>
      <trkpt lat="44.33985" lon="3.36317">
        <ele>476</ele>
        <time>2020-03-10T18:25:23Z</time>
      </trkpt>
      <trkpt lat="44.3396" lon="3.36305">
        <ele>473</ele>
        <time>2020-03-10T18:25:28Z</time>
      </trkpt>
      <trkpt lat="44.33954" lon="3.363">
        <ele>473</ele>
        <time>2020-03-10T18:25:29Z</time>
      </trkpt>
      <trkpt lat="44.33949" lon="3.36294">
        <ele>473</ele>
        <time>2020-03-10T18:25:30Z</time>
      </trkpt>
      <trkpt lat="44.33941" lon="3.36278">
        <ele>472</ele>
        <time>2020-03-10T18:25:33Z</time>
      </trkpt>
      <trkpt lat="44.33927" lon="3.36207">
        <ele>482</ele>
        <time>2020-03-10T18:25:42Z</time>
      </trkpt>
      <trkpt lat="44.3392" lon="3.36185">
        <ele>485</ele>
        <time>2020-03-10T18:25:45Z</time>
      </trkpt>
      <trkpt lat="44.33913" lon="3.36172">
        <ele>487</ele>
        <time>2020-03-10T18:25:47Z</time>
      </trkpt>
      <trkpt lat="44.33884" lon="3.3614">
        <ele>495</ele>
        <time>2020-03-10T18:25:54Z</time>
      </trkpt>
      <trkpt lat="44.3387" lon="3.3613">
        <ele>497</ele>
        <time>2020-03-10T18:25:56Z</time>
      </trkpt>
      <trkpt lat="44.33808" lon="3.36109">
        <ele>512</ele>
        <time>2020-03-10T18:26:08Z</time>
      </trkpt>
      <trkpt lat="44.33796" lon="3.36112">
        <ele>514</ele>
        <time>2020-03-10T18:26:10Z</time>
      </trkpt>
      <trkpt lat="44.33789" lon="3.3612">
        <ele>511</ele>
        <time>2020-03-10T18:26:12Z</time>
      </trkpt>
      <trkpt lat="44.3377" lon="3.36153">
        <ele>499</ele>
        <time>2020-03-10T18:26:17Z</time>
      </trkpt>
      <trkpt lat="44.3376" lon="3.36169">
        <ele>493</ele>
        <time>2020-03-10T18:26:20Z</time>
      </trkpt>
      <trkpt lat="44.33742" lon="3.36188">
        <ele>492</ele>
        <time>2020-03-10T18:26:24Z</time>
      </trkpt>
      <trkpt lat="44.33731" lon="3.36194">
        <ele>492</ele>
        <time>2020-03-10T18:26:26Z</time>
      </trkpt>
      <trkpt lat="44.33706" lon="3.36201">
        <ele>494</ele>
        <time>2020-03-10T18:26:30Z</time>
      </trkpt>
      <trkpt lat="44.33698" lon="3.36205">
        <ele>494</ele>
        <time>2020-03-10T18:26:32Z</time>
      </trkpt>
      <trkpt lat="44.33659" lon="3.36236">
        <ele>485</ele>
        <time>2020-03-10T18:26:40Z</time>
      </trkpt>
      <trkpt lat="44.33643" lon="3.36244">
        <ele>481</ele>
        <time>2020-03-10T18:26:43Z</time>
      </trkpt>
      <trkpt lat="44.33603" lon="3.36248">
        <ele>479</ele>
        <time>2020-03-10T18:26:50Z</time>
      </trkpt>
      <trkpt lat="44.33592" lon="3.36242">
        <ele>480</ele>
        <time>2020-03-10T18:26:52Z</time>
      </trkpt>
      <trkpt lat="44.33588" lon="3.36235">
        <ele>480</ele>
        <time>2020-03-10T18:26:53Z</time>
      </trkpt>
      <trkpt lat="44.33586" lon="3.36226">
        <ele>482</ele>
        <time>2020-03-10T18:26:54Z</time>
      </trkpt>
      <trkpt lat="44.33584" lon="3.36199">
        <ele>485</ele>
        <time>2020-03-10T18:26:58Z</time>
      </trkpt>
      <trkpt lat="44.33588" lon="3.36086">
        <ele>491</ele>
        <time>2020-03-10T18:27:12Z</time>
      </trkpt>
      <trkpt lat="44.33589" lon="3.36014">
        <ele>492</ele>
        <time>2020-03-10T18:27:21Z</time>
      </trkpt>
      <trkpt lat="44.33587" lon="3.35915">
        <ele>490</ele>
        <time>2020-03-10T18:27:34Z</time>
      </trkpt>
      <trkpt lat="44.33589" lon="3.35901">
        <ele>491</ele>
        <time>2020-03-10T18:27:36Z</time>
      </trkpt>
      <trkpt lat="44.33597" lon="3.35872">
        <ele>497</ele>
        <time>2020-03-10T18:27:40Z</time>
      </trkpt>
      <trkpt lat="44.33598" lon="3.35865">
        <ele>498</ele>
        <time>2020-03-10T18:27:41Z</time>
      </trkpt>
      <trkpt lat="44.33595" lon="3.35848">
        <ele>496</ele>
        <time>2020-03-10T18:27:43Z</time>
      </trkpt>
      <trkpt lat="44.3359" lon="3.35839">
        <ele>492</ele>
        <time>2020-03-10T18:27:44Z</time>
      </trkpt>
      <trkpt lat="44.33558" lon="3.358">
        <ele>489</ele>
        <time>2020-03-10T18:27:52Z</time>
      </trkpt>
      <trkpt lat="44.33522" lon="3.35752">
        <ele>484</ele>
        <time>2020-03-10T18:28:01Z</time>
      </trkpt>
      <trkpt lat="44.33497" lon="3.35711">
        <ele>482</ele>
        <time>2020-03-10T18:28:08Z</time>
      </trkpt>
      <trkpt lat="44.33472" lon="3.35662">
        <ele>482</ele>
        <time>2020-03-10T18:28:15Z</time>
      </trkpt>
      <trkpt lat="44.33463" lon="3.3565">
        <ele>483</ele>
        <time>2020-03-10T18:28:18Z</time>
      </trkpt>
      <trkpt lat="44.33454" lon="3.35639">
        <ele>484</ele>
        <time>2020-03-10T18:28:20Z</time>
      </trkpt>
      <trkpt lat="44.33426" lon="3.35617">
        <ele>478</ele>
        <time>2020-03-10T18:28:25Z</time>
      </trkpt>
      <trkpt lat="44.3339" lon="3.35576">
        <ele>483</ele>
        <time>2020-03-10T18:28:34Z</time>
      </trkpt>
      <trkpt lat="44.33375" lon="3.35564">
        <ele>486</ele>
        <time>2020-03-10T18:28:37Z</time>
      </trkpt>
      <trkpt lat="44.33263" lon="3.35495">
        <ele>478</ele>
        <time>2020-03-10T18:28:58Z</time>
      </trkpt>
      <trkpt lat="44.33226" lon="3.35484">
        <ele>476</ele>
        <time>2020-03-10T18:29:05Z</time>
      </trkpt>
      <trkpt lat="44.33169" lon="3.3545">
        <ele>476</ele>
        <time>2020-03-10T18:29:16Z</time>
      </trkpt>
      <trkpt lat="44.33093" lon="3.35434">
        <ele>474</ele>
        <time>2020-03-10T18:29:30Z</time>
      </trkpt>
      <trkpt lat="44.33078" lon="3.35429">
        <ele>473</ele>
        <time>2020-03-10T18:29:33Z</time>
      </trkpt>
      <trkpt lat="44.33019" lon="3.35398">
        <ele>472</ele>
        <time>2020-03-10T18:29:44Z</time>
      </trkpt>
      <trkpt lat="44.33" lon="3.35383">
        <ele>472</ele>
        <time>2020-03-10T18:29:48Z</time>
      </trkpt>
      <trkpt lat="44.32987" lon="3.35368">
        <ele>473</ele>
        <time>2020-03-10T18:29:51Z</time>
      </trkpt>
      <trkpt lat="44.32981" lon="3.35358">
        <ele>474</ele>
        <time>2020-03-10T18:29:52Z</time>
      </trkpt>
      <trkpt lat="44.32953" lon="3.35305">
        <ele>475</ele>
        <time>2020-03-10T18:30:01Z</time>
      </trkpt>
      <trkpt lat="44.32944" lon="3.35286">
        <ele>474</ele>
        <time>2020-03-10T18:30:04Z</time>
      </trkpt>
      <trkpt lat="44.3294" lon="3.35269">
        <ele>475</ele>
        <time>2020-03-10T18:30:06Z</time>
      </trkpt>
      <trkpt lat="44.32928" lon="3.35209">
        <ele>477</ele>
        <time>2020-03-10T18:30:14Z</time>
      </trkpt>
      <trkpt lat="44.32915" lon="3.35156">
        <ele>477</ele>
        <time>2020-03-10T18:30:21Z</time>
      </trkpt>
      <trkpt lat="44.32905" lon="3.35124">
        <ele>479</ele>
        <time>2020-03-10T18:30:25Z</time>
      </trkpt>
      <trkpt lat="44.32881" lon="3.35066">
        <ele>477</ele>
        <time>2020-03-10T18:30:34Z</time>
      </trkpt>
      <trkpt lat="44.3287" lon="3.35031">
        <ele>476</ele>
        <time>2020-03-10T18:30:39Z</time>
      </trkpt>
      <trkpt lat="44.32864" lon="3.34976">
        <ele>478</ele>
        <time>2020-03-10T18:30:46Z</time>
      </trkpt>
      <trkpt lat="44.32858" lon="3.34951">
        <ele>478</ele>
        <time>2020-03-10T18:30:49Z</time>
      </trkpt>
      <trkpt lat="44.32837" lon="3.34903">
        <ele>476</ele>
        <time>2020-03-10T18:30:56Z</time>
      </trkpt>
      <trkpt lat="44.32823" lon="3.34866">
        <ele>481</ele>
        <time>2020-03-10T18:31:02Z</time>
      </trkpt>
      <trkpt lat="44.32817" lon="3.34856">
        <ele>482</ele>
        <time>2020-03-10T18:31:03Z</time>
      </trkpt>
      <trkpt lat="44.3279" lon="3.34826">
        <ele>480</ele>
        <time>2020-03-10T18:31:10Z</time>
      </trkpt>
      <trkpt lat="44.32733" lon="3.3475">
        <ele>478</ele>
        <time>2020-03-10T18:31:24Z</time>
      </trkpt>
      <trkpt lat="44.32704" lon="3.34731">
        <ele>473</ele>
        <time>2020-03-10T18:31:29Z</time>
      </trkpt>
      <trkpt lat="44.32693" lon="3.34719">
        <ele>472</ele>
        <time>2020-03-10T18:31:32Z</time>
      </trkpt>
      <trkpt lat="44.32688" lon="3.34711">
        <ele>472</ele>
        <time>2020-03-10T18:31:33Z</time>
      </trkpt>
      <trkpt lat="44.32674" lon="3.34672">
        <ele>475</ele>
        <time>2020-03-10T18:31:39Z</time>
      </trkpt>
      <trkpt lat="44.3267" lon="3.34664">
        <ele>475</ele>
        <time>2020-03-10T18:31:40Z</time>
      </trkpt>
      <trkpt lat="44.32655" lon="3.34651">
        <ele>477</ele>
        <time>2020-03-10T18:31:43Z</time>
      </trkpt>
      <trkpt lat="44.32617" lon="3.34639">
        <ele>475</ele>
        <time>2020-03-10T18:31:50Z</time>
      </trkpt>
      <trkpt lat="44.32566" lon="3.34608">
        <ele>477</ele>
        <time>2020-03-10T18:32:00Z</time>
      </trkpt>
      <trkpt lat="44.32546" lon="3.34604">
        <ele>476</ele>
        <time>2020-03-10T18:32:03Z</time>
      </trkpt>
      <trkpt lat="44.32524" lon="3.34603">
        <ele>472</ele>
        <time>2020-03-10T18:32:07Z</time>
      </trkpt>
      <trkpt lat="44.32515" lon="3.346">
        <ele>472</ele>
        <time>2020-03-10T18:32:09Z</time>
      </trkpt>
      <trkpt lat="44.32485" lon="3.34583">
        <ele>472</ele>
        <time>2020-03-10T18:32:15Z</time>
      </trkpt>
      <trkpt lat="44.32425" lon="3.34572">
        <ele>469</ele>
        <time>2020-03-10T18:32:26Z</time>
      </trkpt>
      <trkpt lat="44.32394" lon="3.34563">
        <ele>470</ele>
        <time>2020-03-10T18:32:31Z</time>
      </trkpt>
      <trkpt lat="44.32384" lon="3.34556">
        <ele>472</ele>
        <time>2020-03-10T18:32:33Z</time>
      </trkpt>
      <trkpt lat="44.3236" lon="3.34525">
        <ele>482</ele>
        <time>2020-03-10T18:32:39Z</time>
      </trkpt>
      <trkpt lat="44.32354" lon="3.34519">
        <ele>483</ele>
        <time>2020-03-10T18:32:40Z</time>
      </trkpt>
      <trkpt lat="44.32339" lon="3.34517">
        <ele>483</ele>
        <time>2020-03-10T18:32:43Z</time>
      </trkpt>
      <trkpt lat="44.32331" lon="3.3452">
        <ele>482</ele>
        <time>2020-03-10T18:32:44Z</time>
      </trkpt>
      <trkpt lat="44.32296" lon="3.34547">
        <ele>476</ele>
        <time>2020-03-10T18:32:52Z</time>
      </trkpt>
      <trkpt lat="44.3228" lon="3.34552">
        <ele>476</ele>
        <time>2020-03-10T18:32:55Z</time>
      </trkpt>
      <trkpt lat="44.32175" lon="3.34559">
        <ele>481</ele>
        <time>2020-03-10T18:33:13Z</time>
      </trkpt>
      <trkpt lat="44.32137" lon="3.34569">
        <ele>478</ele>
        <time>2020-03-10T18:33:20Z</time>
      </trkpt>
      <trkpt lat="44.32099" lon="3.34576">
        <ele>477</ele>
        <time>2020-03-10T18:33:27Z</time>
      </trkpt>
      <trkpt lat="44.32047" lon="3.34598">
        <ele>475</ele>
        <time>2020-03-10T18:33:37Z</time>
      </trkpt>
      <trkpt lat="44.31977" lon="3.34613">
        <ele>474</ele>
        <time>2020-03-10T18:33:49Z</time>
      </trkpt>
      <trkpt lat="44.31958" lon="3.34612">
        <ele>474</ele>
        <time>2020-03-10T18:33:53Z</time>
      </trkpt>
      <trkpt lat="44.31868" lon="3.34601">
        <ele>471</ele>
        <time>2020-03-10T18:34:09Z</time>
      </trkpt>
      <trkpt lat="44.31825" lon="3.34593">
        <ele>468</ele>
        <time>2020-03-10T18:34:16Z</time>
      </trkpt>
      <trkpt lat="44.31803" lon="3.3458">
        <ele>467</ele>
        <time>2020-03-10T18:34:21Z</time>
      </trkpt>
      <trkpt lat="44.31773" lon="3.34554">
        <ele>467</ele>
        <time>2020-03-10T18:34:27Z</time>
      </trkpt>
      <trkpt lat="44.31764" lon="3.34544">
        <ele>467</ele>
        <time>2020-03-10T18:34:29Z</time>
      </trkpt>
      <trkpt lat="44.31748" lon="3.34517">
        <ele>469</ele>
        <time>2020-03-10T18:34:33Z</time>
      </trkpt>
      <trkpt lat="44.3173" lon="3.34477">
        <ele>471</ele>
        <time>2020-03-10T18:34:39Z</time>
      </trkpt>
      <trkpt lat="44.31712" lon="3.34419">
        <ele>472</ele>
        <time>2020-03-10T18:34:47Z</time>
      </trkpt>
      <trkpt lat="44.31697" lon="3.34364">
        <ele>471</ele>
        <time>2020-03-10T18:34:55Z</time>
      </trkpt>
      <trkpt lat="44.31682" lon="3.34298">
        <ele>468</ele>
        <time>2020-03-10T18:35:04Z</time>
      </trkpt>
      <trkpt lat="44.31672" lon="3.34225">
        <ele>468</ele>
        <time>2020-03-10T18:35:13Z</time>
      </trkpt>
      <trkpt lat="44.31649" lon="3.34124">
        <ele>472</ele>
        <time>2020-03-10T18:35:27Z</time>
      </trkpt>
      <trkpt lat="44.31631" lon="3.34088">
        <ele>469</ele>
        <time>2020-03-10T18:35:32Z</time>
      </trkpt>
      <trkpt lat="44.31617" lon="3.34053">
        <ele>466</ele>
        <time>2020-03-10T18:35:37Z</time>
      </trkpt>
      <trkpt lat="44.3161" lon="3.34037">
        <ele>465</ele>
        <time>2020-03-10T18:35:40Z</time>
      </trkpt>
      <trkpt lat="44.31602" lon="3.34003">
        <ele>464</ele>
        <time>2020-03-10T18:35:44Z</time>
      </trkpt>
      <trkpt lat="44.3159" lon="3.33968">
        <ele>468</ele>
        <time>2020-03-10T18:35:49Z</time>
      </trkpt>
      <trkpt lat="44.31573" lon="3.33928">
        <ele>474</ele>
        <time>2020-03-10T18:35:55Z</time>
      </trkpt>
      <trkpt lat="44.3153" lon="3.33869">
        <ele>492</ele>
        <time>2020-03-10T18:36:06Z</time>
      </trkpt>
      <trkpt lat="44.31521" lon="3.33861">
        <ele>492</ele>
        <time>2020-03-10T18:36:08Z</time>
      </trkpt>
      <trkpt lat="44.31511" lon="3.33856">
        <ele>491</ele>
        <time>2020-03-10T18:36:10Z</time>
      </trkpt>
      <trkpt lat="44.31474" lon="3.3384">
        <ele>482</ele>
        <time>2020-03-10T18:36:17Z</time>
      </trkpt>
      <trkpt lat="44.31456" lon="3.33829">
        <ele>478</ele>
        <time>2020-03-10T18:36:20Z</time>
      </trkpt>
      <trkpt lat="44.31441" lon="3.33821">
        <ele>475</ele>
        <time>2020-03-10T18:36:23Z</time>
      </trkpt>
      <trkpt lat="44.3143" lon="3.33813">
        <ele>474</ele>
        <time>2020-03-10T18:36:25Z</time>
      </trkpt>
      <trkpt lat="44.31411" lon="3.33792">
        <ele>476</ele>
        <time>2020-03-10T18:36:30Z</time>
      </trkpt>
      <trkpt lat="44.31361" lon="3.33754">
        <ele>472</ele>
        <time>2020-03-10T18:36:40Z</time>
      </trkpt>
      <trkpt lat="44.31349" lon="3.33743">
        <ele>468</ele>
        <time>2020-03-10T18:36:42Z</time>
      </trkpt>
      <trkpt lat="44.31339" lon="3.33732">
        <ele>465</ele>
        <time>2020-03-10T18:36:44Z</time>
      </trkpt>
      <trkpt lat="44.31298" lon="3.33678">
        <ele>463</ele>
        <time>2020-03-10T18:36:54Z</time>
      </trkpt>
      <trkpt lat="44.31256" lon="3.33643">
        <ele>458</ele>
        <time>2020-03-10T18:37:03Z</time>
      </trkpt>
      <trkpt lat="44.31246" lon="3.33632">
        <ele>459</ele>
        <time>2020-03-10T18:37:05Z</time>
      </trkpt>
      <trkpt lat="44.31203" lon="3.33578">
        <ele>459</ele>
        <time>2020-03-10T18:37:16Z</time>
      </trkpt>
      <trkpt lat="44.3117" lon="3.33522">
        <ele>460</ele>
        <time>2020-03-10T18:37:25Z</time>
      </trkpt>
      <trkpt lat="44.3116" lon="3.335">
        <ele>461</ele>
        <time>2020-03-10T18:37:28Z</time>
      </trkpt>
      <trkpt lat="44.31148" lon="3.33473">
        <ele>466</ele>
        <time>2020-03-10T18:37:32Z</time>
      </trkpt>
      <trkpt lat="44.31122" lon="3.33434">
        <ele>465</ele>
        <time>2020-03-10T18:37:39Z</time>
      </trkpt>
      <trkpt lat="44.31112" lon="3.33418">
        <ele>463</ele>
        <time>2020-03-10T18:37:42Z</time>
      </trkpt>
      <trkpt lat="44.31045" lon="3.33279">
        <ele>475</ele>
        <time>2020-03-10T18:38:03Z</time>
      </trkpt>
      <trkpt lat="44.31027" lon="3.33248">
        <ele>474</ele>
        <time>2020-03-10T18:38:08Z</time>
      </trkpt>
      <trkpt lat="44.30996" lon="3.33209">
        <ele>478</ele>
        <time>2020-03-10T18:38:16Z</time>
      </trkpt>
      <trkpt lat="44.30976" lon="3.33189">
        <ele>480</ele>
        <time>2020-03-10T18:38:20Z</time>
      </trkpt>
      <trkpt lat="44.30961" lon="3.33163">
        <ele>482</ele>
        <time>2020-03-10T18:38:24Z</time>
      </trkpt>
      <trkpt lat="44.30953" lon="3.33153">
        <ele>483</ele>
        <time>2020-03-10T18:38:26Z</time>
      </trkpt>
      <trkpt lat="44.30934" lon="3.33135">
        <ele>481</ele>
        <time>2020-03-10T18:38:30Z</time>
      </trkpt>
      <trkpt lat="44.30904" lon="3.33104">
        <ele>483</ele>
        <time>2020-03-10T18:38:37Z</time>
      </trkpt>
      <trkpt lat="44.30784" lon="3.3301">
        <ele>479</ele>
        <time>2020-03-10T18:39:01Z</time>
      </trkpt>
      <trkpt lat="44.30744" lon="3.32985">
        <ele>470</ele>
        <time>2020-03-10T18:39:09Z</time>
      </trkpt>
      <trkpt lat="44.30691" lon="3.32928">
        <ele>466</ele>
        <time>2020-03-10T18:39:21Z</time>
      </trkpt>
      <trkpt lat="44.30661" lon="3.32892">
        <ele>465</ele>
        <time>2020-03-10T18:39:28Z</time>
      </trkpt>
      <trkpt lat="44.30624" lon="3.3284">
        <ele>467</ele>
        <time>2020-03-10T18:39:37Z</time>
      </trkpt>
      <trkpt lat="44.30566" lon="3.32745">
        <ele>465</ele>
        <time>2020-03-10T18:39:53Z</time>
      </trkpt>
      <trkpt lat="44.30449" lon="3.3257">
        <ele>461</ele>
        <time>2020-03-10T18:40:24Z</time>
      </trkpt>
      <trkpt lat="44.30365" lon="3.32451">
        <ele>467</ele>
        <time>2020-03-10T18:40:45Z</time>
      </trkpt>
      <trkpt lat="44.30327" lon="3.32405">
        <ele>463</ele>
        <time>2020-03-10T18:40:54Z</time>
      </trkpt>
      <trkpt lat="44.30301" lon="3.32362">
        <ele>470</ele>
        <time>2020-03-10T18:41:01Z</time>
      </trkpt>
      <trkpt lat="44.30283" lon="3.32338">
        <ele>468</ele>
        <time>2020-03-10T18:41:06Z</time>
      </trkpt>
      <trkpt lat="44.30273" lon="3.32328">
        <ele>467</ele>
        <time>2020-03-10T18:41:08Z</time>
      </trkpt>
      <trkpt lat="44.30239" lon="3.32298">
        <ele>467</ele>
        <time>2020-03-10T18:41:15Z</time>
      </trkpt>
      <trkpt lat="44.30224" lon="3.32282">
        <ele>469</ele>
        <time>2020-03-10T18:41:18Z</time>
      </trkpt>
      <trkpt lat="44.30216" lon="3.3227">
        <ele>470</ele>
        <time>2020-03-10T18:41:20Z</time>
      </trkpt>
      <trkpt lat="44.30141" lon="3.32131">
        <ele>457</ele>
        <time>2020-03-10T18:41:43Z</time>
      </trkpt>
      <trkpt lat="44.30135" lon="3.32115">
        <ele>456</ele>
        <time>2020-03-10T18:41:45Z</time>
      </trkpt>
      <trkpt lat="44.30131" lon="3.32098">
        <ele>456</ele>
        <time>2020-03-10T18:41:47Z</time>
      </trkpt>
      <trkpt lat="44.30125" lon="3.32057">
        <ele>454</ele>
        <time>2020-03-10T18:41:53Z</time>
      </trkpt>
      <trkpt lat="44.30125" lon="3.32046">
        <ele>453</ele>
        <time>2020-03-10T18:41:54Z</time>
      </trkpt>
      <trkpt lat="44.30132" lon="3.32016">
        <ele>453</ele>
        <time>2020-03-10T18:41:58Z</time>
      </trkpt>
      <trkpt lat="44.30132" lon="3.31994">
        <ele>453</ele>
        <time>2020-03-10T18:42:01Z</time>
      </trkpt>
      <trkpt lat="44.30125" lon="3.31957">
        <ele>455</ele>
        <time>2020-03-10T18:42:06Z</time>
      </trkpt>
      <trkpt lat="44.30124" lon="3.31938">
        <ele>456</ele>
        <time>2020-03-10T18:42:08Z</time>
      </trkpt>
      <trkpt lat="44.30128" lon="3.31783">
        <ele>462</ele>
        <time>2020-03-10T18:42:28Z</time>
      </trkpt>
      <trkpt lat="44.30137" lon="3.31726">
        <ele>467</ele>
        <time>2020-03-10T18:42:35Z</time>
      </trkpt>
      <trkpt lat="44.30139" lon="3.31708">
        <ele>469</ele>
        <time>2020-03-10T18:42:38Z</time>
      </trkpt>
      <trkpt lat="44.30138" lon="3.3168">
        <ele>470</ele>
        <time>2020-03-10T18:42:41Z</time>
      </trkpt>
      <trkpt lat="44.30136" lon="3.31663">
        <ele>470</ele>
        <time>2020-03-10T18:42:43Z</time>
      </trkpt>
      <trkpt lat="44.30118" lon="3.31584">
        <ele>468</ele>
        <time>2020-03-10T18:42:54Z</time>
      </trkpt>
      <trkpt lat="44.30109" lon="3.31526">
        <ele>473</ele>
        <time>2020-03-10T18:43:01Z</time>
      </trkpt>
      <trkpt lat="44.30096" lon="3.31472">
        <ele>477</ele>
        <time>2020-03-10T18:43:09Z</time>
      </trkpt>
      <trkpt lat="44.30077" lon="3.31422">
        <ele>482</ele>
        <time>2020-03-10T18:43:16Z</time>
      </trkpt>
      <trkpt lat="44.30065" lon="3.31402">
        <ele>481</ele>
        <time>2020-03-10T18:43:19Z</time>
      </trkpt>
      <trkpt lat="44.30054" lon="3.31392">
        <ele>477</ele>
        <time>2020-03-10T18:43:22Z</time>
      </trkpt>
      <trkpt lat="44.30038" lon="3.31369">
        <ele>474</ele>
        <time>2020-03-10T18:43:26Z</time>
      </trkpt>
      <trkpt lat="44.30002" lon="3.31311">
        <ele>461</ele>
        <time>2020-03-10T18:43:35Z</time>
      </trkpt>
      <trkpt lat="44.29998" lon="3.31297">
        <ele>460</ele>
        <time>2020-03-10T18:43:37Z</time>
      </trkpt>
      <trkpt lat="44.29999" lon="3.31282">
        <ele>460</ele>
        <time>2020-03-10T18:43:39Z</time>
      </trkpt>
      <trkpt lat="44.30002" lon="3.31274">
        <ele>460</ele>
        <time>2020-03-10T18:43:40Z</time>
      </trkpt>
      <trkpt lat="44.30006" lon="3.31268">
        <ele>461</ele>
        <time>2020-03-10T18:43:41Z</time>
      </trkpt>
      <trkpt lat="44.30021" lon="3.31254">
        <ele>465</ele>
        <time>2020-03-10T18:43:45Z</time>
      </trkpt>
      <trkpt lat="44.30091" lon="3.31209">
        <ele>468</ele>
        <time>2020-03-10T18:43:58Z</time>
      </trkpt>
      <trkpt lat="44.30125" lon="3.31195">
        <ele>474</ele>
        <time>2020-03-10T18:44:05Z</time>
      </trkpt>
      <trkpt lat="44.30154" lon="3.31174">
        <ele>474</ele>
        <time>2020-03-10T18:44:11Z</time>
      </trkpt>
      <trkpt lat="44.30184" lon="3.3114">
        <ele>471</ele>
        <time>2020-03-10T18:44:17Z</time>
      </trkpt>
      <trkpt lat="44.30233" lon="3.31107">
        <ele>472</ele>
        <time>2020-03-10T18:44:27Z</time>
      </trkpt>
      <trkpt lat="44.30255" lon="3.31088">
        <ele>470</ele>
        <time>2020-03-10T18:44:32Z</time>
      </trkpt>
      <trkpt lat="44.30317" lon="3.31026">
        <ele>473</ele>
        <time>2020-03-10T18:44:45Z</time>
      </trkpt>
      <trkpt lat="44.30334" lon="3.31003">
        <ele>470</ele>
        <time>2020-03-10T18:44:49Z</time>
      </trkpt>
      <trkpt lat="44.30356" lon="3.30969">
        <ele>473</ele>
        <time>2020-03-10T18:44:55Z</time>
      </trkpt>
      <trkpt lat="44.3039" lon="3.30902">
        <ele>473</ele>
        <time>2020-03-10T18:45:06Z</time>
      </trkpt>
      <trkpt lat="44.30399" lon="3.30883">
        <ele>474</ele>
        <time>2020-03-10T18:45:09Z</time>
      </trkpt>
      <trkpt lat="44.30415" lon="3.30825">
        <ele>468</ele>
        <time>2020-03-10T18:45:17Z</time>
      </trkpt>
      <trkpt lat="44.30431" lon="3.30794">
        <ele>469</ele>
        <time>2020-03-10T18:45:21Z</time>
      </trkpt>
      <trkpt lat="44.30451" lon="3.30748">
        <ele>468</ele>
        <time>2020-03-10T18:45:28Z</time>
      </trkpt>
      <trkpt lat="44.30471" lon="3.30715">
        <ele>471</ele>
        <time>2020-03-10T18:45:34Z</time>
      </trkpt>
      <trkpt lat="44.30485" lon="3.30677">
        <ele>467</ele>
        <time>2020-03-10T18:45:39Z</time>
      </trkpt>
      <trkpt lat="44.30502" lon="3.30654">
        <ele>467</ele>
        <time>2020-03-10T18:45:43Z</time>
      </trkpt>
      <trkpt lat="44.3052" lon="3.30624">
        <ele>472</ele>
        <time>2020-03-10T18:45:48Z</time>
      </trkpt>
      <trkpt lat="44.30531" lon="3.3061">
        <ele>475</ele>
        <time>2020-03-10T18:45:51Z</time>
      </trkpt>
      <trkpt lat="44.30542" lon="3.3059">
        <ele>476</ele>
        <time>2020-03-10T18:45:54Z</time>
      </trkpt>
      <trkpt lat="44.30551" lon="3.30565">
        <ele>476</ele>
        <time>2020-03-10T18:45:58Z</time>
      </trkpt>
      <trkpt lat="44.30563" lon="3.30509">
        <ele>471</ele>
        <time>2020-03-10T18:46:05Z</time>
      </trkpt>
      <trkpt lat="44.30568" lon="3.30496">
        <ele>470</ele>
        <time>2020-03-10T18:46:07Z</time>
      </trkpt>
      <trkpt lat="44.30583" lon="3.30466">
        <ele>468</ele>
        <time>2020-03-10T18:46:12Z</time>
      </trkpt>
      <trkpt lat="44.30612" lon="3.30384">
        <ele>463</ele>
        <time>2020-03-10T18:46:23Z</time>
      </trkpt>
      <trkpt lat="44.30624" lon="3.3036">
        <ele>463</ele>
        <time>2020-03-10T18:46:27Z</time>
      </trkpt>
      <trkpt lat="44.30644" lon="3.30339">
        <ele>465</ele>
        <time>2020-03-10T18:46:32Z</time>
      </trkpt>
      <trkpt lat="44.3065" lon="3.30327">
        <ele>466</ele>
        <time>2020-03-10T18:46:34Z</time>
      </trkpt>
      <trkpt lat="44.30653" lon="3.30313">
        <ele>466</ele>
        <time>2020-03-10T18:46:35Z</time>
      </trkpt>
      <trkpt lat="44.30652" lon="3.30295">
        <ele>466</ele>
        <time>2020-03-10T18:46:38Z</time>
      </trkpt>
      <trkpt lat="44.30637" lon="3.30257">
        <ele>461</ele>
        <time>2020-03-10T18:46:43Z</time>
      </trkpt>
      <trkpt lat="44.30634" lon="3.30241">
        <ele>460</ele>
        <time>2020-03-10T18:46:45Z</time>
      </trkpt>
      <trkpt lat="44.30637" lon="3.30215">
        <ele>460</ele>
        <time>2020-03-10T18:46:49Z</time>
      </trkpt>
      <trkpt lat="44.30646" lon="3.30192">
        <ele>462</ele>
        <time>2020-03-10T18:46:52Z</time>
      </trkpt>
      <trkpt lat="44.3065" lon="3.30173">
        <ele>463</ele>
        <time>2020-03-10T18:46:55Z</time>
      </trkpt>
      <trkpt lat="44.30648" lon="3.30109">
        <ele>463</ele>
        <time>2020-03-10T18:47:03Z</time>
      </trkpt>
      <trkpt lat="44.30646" lon="3.30092">
        <ele>462</ele>
        <time>2020-03-10T18:47:05Z</time>
      </trkpt>
      <trkpt lat="44.30637" lon="3.30057">
        <ele>461</ele>
        <time>2020-03-10T18:47:10Z</time>
      </trkpt>
      <trkpt lat="44.30619" lon="3.30008">
        <ele>457</ele>
        <time>2020-03-10T18:47:17Z</time>
      </trkpt>
      <trkpt lat="44.30617" lon="3.29997">
        <ele>457</ele>
        <time>2020-03-10T18:47:18Z</time>
      </trkpt>
      <trkpt lat="44.30616" lon="3.29959">
        <ele>467</ele>
        <time>2020-03-10T18:47:23Z</time>
      </trkpt>
      <trkpt lat="44.30612" lon="3.29939">
        <ele>469</ele>
        <time>2020-03-10T18:47:26Z</time>
      </trkpt>
      <trkpt lat="44.30608" lon="3.29928">
        <ele>469</ele>
        <time>2020-03-10T18:47:27Z</time>
      </trkpt>
      <trkpt lat="44.3058" lon="3.29882">
        <ele>466</ele>
        <time>2020-03-10T18:47:35Z</time>
      </trkpt>
      <trkpt lat="44.30558" lon="3.29835">
        <ele>473</ele>
        <time>2020-03-10T18:47:42Z</time>
      </trkpt>
      <trkpt lat="44.30544" lon="3.29813">
        <ele>474</ele>
        <time>2020-03-10T18:47:46Z</time>
      </trkpt>
      <trkpt lat="44.3053" lon="3.29778">
        <ele>480</ele>
        <time>2020-03-10T18:47:51Z</time>
      </trkpt>
      <trkpt lat="44.30524" lon="3.2977">
        <ele>479</ele>
        <time>2020-03-10T18:47:52Z</time>
      </trkpt>
      <trkpt lat="44.30517" lon="3.29763">
        <ele>477</ele>
        <time>2020-03-10T18:47:54Z</time>
      </trkpt>
      <trkpt lat="44.30488" lon="3.29742">
        <ele>469</ele>
        <time>2020-03-10T18:48:00Z</time>
      </trkpt>
      <trkpt lat="44.30479" lon="3.29729">
        <ele>471</ele>
        <time>2020-03-10T18:48:02Z</time>
      </trkpt>
      <trkpt lat="44.30467" lon="3.29705">
        <ele>475</ele>
        <time>2020-03-10T18:48:06Z</time>
      </trkpt>
      <trkpt lat="44.30456" lon="3.29693">
        <ele>474</ele>
        <time>2020-03-10T18:48:08Z</time>
      </trkpt>
      <trkpt lat="44.30416" lon="3.2966">
        <ele>463</ele>
        <time>2020-03-10T18:48:16Z</time>
      </trkpt>
      <trkpt lat="44.30397" lon="3.29651">
        <ele>464</ele>
        <time>2020-03-10T18:48:20Z</time>
      </trkpt>
      <trkpt lat="44.30335" lon="3.29626">
        <ele>461</ele>
        <time>2020-03-10T18:48:31Z</time>
      </trkpt>
      <trkpt lat="44.30321" lon="3.29614">
        <ele>463</ele>
        <time>2020-03-10T18:48:34Z</time>
      </trkpt>
      <trkpt lat="44.30304" lon="3.29593">
        <ele>467</ele>
        <time>2020-03-10T18:48:38Z</time>
      </trkpt>
      <trkpt lat="44.30295" lon="3.29587">
        <ele>468</ele>
        <time>2020-03-10T18:48:40Z</time>
      </trkpt>
      <trkpt lat="44.30289" lon="3.29585">
        <ele>467</ele>
        <time>2020-03-10T18:48:41Z</time>
      </trkpt>
      <trkpt lat="44.30261" lon="3.29588">
        <ele>460</ele>
        <time>2020-03-10T18:48:46Z</time>
      </trkpt>
      <trkpt lat="44.30227" lon="3.29586">
        <ele>455</ele>
        <time>2020-03-10T18:48:52Z</time>
      </trkpt>
      <trkpt lat="44.30221" lon="3.29583">
        <ele>454</ele>
        <time>2020-03-10T18:48:53Z</time>
      </trkpt>
      <trkpt lat="44.30183" lon="3.29544">
        <ele>457</ele>
        <time>2020-03-10T18:49:02Z</time>
      </trkpt>
      <trkpt lat="44.3018" lon="3.29536">
        <ele>459</ele>
        <time>2020-03-10T18:49:03Z</time>
      </trkpt>
      <trkpt lat="44.30178" lon="3.29526">
        <ele>460</ele>
        <time>2020-03-10T18:49:04Z</time>
      </trkpt>
      <trkpt lat="44.30181" lon="3.29476">
        <ele>471</ele>
        <time>2020-03-10T18:49:11Z</time>
      </trkpt>
      <trkpt lat="44.30177" lon="3.29457">
        <ele>473</ele>
        <time>2020-03-10T18:49:13Z</time>
      </trkpt>
      <trkpt lat="44.30172" lon="3.29448">
        <ele>472</ele>
        <time>2020-03-10T18:49:15Z</time>
      </trkpt>
      <trkpt lat="44.30149" lon="3.29417">
        <ele>468</ele>
        <time>2020-03-10T18:49:20Z</time>
      </trkpt>
      <trkpt lat="44.30137" lon="3.29394">
        <ele>469</ele>
        <time>2020-03-10T18:49:24Z</time>
      </trkpt>
      <trkpt lat="44.3013" lon="3.29369">
        <ele>472</ele>
        <time>2020-03-10T18:49:27Z</time>
      </trkpt>
      <trkpt lat="44.30112" lon="3.29296">
        <ele>478</ele>
        <time>2020-03-10T18:49:37Z</time>
      </trkpt>
      <trkpt lat="44.30068" lon="3.29192">
        <ele>475</ele>
        <time>2020-03-10T18:49:53Z</time>
      </trkpt>
      <trkpt lat="44.30062" lon="3.29174">
        <ele>476</ele>
        <time>2020-03-10T18:49:55Z</time>
      </trkpt>
      <trkpt lat="44.30051" lon="3.29127">
        <ele>483</ele>
        <time>2020-03-10T18:50:01Z</time>
      </trkpt>
      <trkpt lat="44.30048" lon="3.29116">
        <ele>485</ele>
        <time>2020-03-10T18:50:03Z</time>
      </trkpt>
      <trkpt lat="44.30042" lon="3.29106">
        <ele>485</ele>
        <time>2020-03-10T18:50:05Z</time>
      </trkpt>
      <trkpt lat="44.30037" lon="3.29099">
        <ele>484</ele>
        <time>2020-03-10T18:50:06Z</time>
      </trkpt>
      <trkpt lat="44.30004" lon="3.2907">
        <ele>476</ele>
        <time>2020-03-10T18:50:13Z</time>
      </trkpt>
      <trkpt lat="44.29939" lon="3.29001">
        <ele>480</ele>
        <time>2020-03-10T18:50:27Z</time>
      </trkpt>
      <trkpt lat="44.2992" lon="3.28977">
        <ele>484</ele>
        <time>2020-03-10T18:50:32Z</time>
      </trkpt>
      <trkpt lat="44.29906" lon="3.28965">
        <ele>485</ele>
        <time>2020-03-10T18:50:35Z</time>
      </trkpt>
      <trkpt lat="44.29886" lon="3.28955">
        <ele>483</ele>
        <time>2020-03-10T18:50:39Z</time>
      </trkpt>
      <trkpt lat="44.29855" lon="3.28945">
        <ele>477</ele>
        <time>2020-03-10T18:50:44Z</time>
      </trkpt>
      <trkpt lat="44.29845" lon="3.28943">
        <ele>475</ele>
        <time>2020-03-10T18:50:46Z</time>
      </trkpt>
      <trkpt lat="44.29818" lon="3.28945">
        <ele>466</ele>
        <time>2020-03-10T18:50:51Z</time>
      </trkpt>
      <trkpt lat="44.29811" lon="3.28942">
        <ele>465</ele>
        <time>2020-03-10T18:50:52Z</time>
      </trkpt>
      <trkpt lat="44.29805" lon="3.28936">
        <ele>465</ele>
        <time>2020-03-10T18:50:53Z</time>
      </trkpt>
      <trkpt lat="44.29799" lon="3.28927">
        <ele>466</ele>
        <time>2020-03-10T18:50:55Z</time>
      </trkpt>
      <trkpt lat="44.29779" lon="3.2887">
        <ele>467</ele>
        <time>2020-03-10T18:51:03Z</time>
      </trkpt>
      <trkpt lat="44.29777" lon="3.28856">
        <ele>469</ele>
        <time>2020-03-10T18:51:05Z</time>
      </trkpt>
      <trkpt lat="44.29776" lon="3.28832">
        <ele>471</ele>
        <time>2020-03-10T18:51:08Z</time>
      </trkpt>
      <trkpt lat="44.29782" lon="3.28798">
        <ele>477</ele>
        <time>2020-03-10T18:51:12Z</time>
      </trkpt>
      <trkpt lat="44.29782" lon="3.28788">
        <ele>478</ele>
        <time>2020-03-10T18:51:14Z</time>
      </trkpt>
      <trkpt lat="44.29781" lon="3.2878">
        <ele>478</ele>
        <time>2020-03-10T18:51:15Z</time>
      </trkpt>
      <trkpt lat="44.29768" lon="3.28752">
        <ele>472</ele>
        <time>2020-03-10T18:51:19Z</time>
      </trkpt>
      <trkpt lat="44.29764" lon="3.28741">
        <ele>471</ele>
        <time>2020-03-10T18:51:21Z</time>
      </trkpt>
      <trkpt lat="44.29766" lon="3.28685">
        <ele>477</ele>
        <time>2020-03-10T18:51:28Z</time>
      </trkpt>
      <trkpt lat="44.29765" lon="3.28662">
        <ele>478</ele>
        <time>2020-03-10T18:51:31Z</time>
      </trkpt>
      <trkpt lat="44.29763" lon="3.2865">
        <ele>477</ele>
        <time>2020-03-10T18:51:32Z</time>
      </trkpt>
      <trkpt lat="44.29754" lon="3.28623">
        <ele>472</ele>
        <time>2020-03-10T18:51:36Z</time>
      </trkpt>
      <trkpt lat="44.29752" lon="3.28612">
        <ele>471</ele>
        <time>2020-03-10T18:51:37Z</time>
      </trkpt>
      <trkpt lat="44.29754" lon="3.28593">
        <ele>473</ele>
        <time>2020-03-10T18:51:40Z</time>
      </trkpt>
      <trkpt lat="44.29767" lon="3.28557">
        <ele>483</ele>
        <time>2020-03-10T18:51:45Z</time>
      </trkpt>
      <trkpt lat="44.29769" lon="3.28536">
        <ele>484</ele>
        <time>2020-03-10T18:51:48Z</time>
      </trkpt>
      <trkpt lat="44.29767" lon="3.2852">
        <ele>482</ele>
        <time>2020-03-10T18:51:50Z</time>
      </trkpt>
      <trkpt lat="44.2975" lon="3.28468">
        <ele>470</ele>
        <time>2020-03-10T18:51:57Z</time>
      </trkpt>
      <trkpt lat="44.29747" lon="3.28447">
        <ele>470</ele>
        <time>2020-03-10T18:52:00Z</time>
      </trkpt>
      <trkpt lat="44.2975" lon="3.28434">
        <ele>469</ele>
        <time>2020-03-10T18:52:02Z</time>
      </trkpt>
      <trkpt lat="44.29753" lon="3.28424">
        <ele>471</ele>
        <time>2020-03-10T18:52:03Z</time>
      </trkpt>
      <trkpt lat="44.29764" lon="3.28405">
        <ele>479</ele>
        <time>2020-03-10T18:52:06Z</time>
      </trkpt>
      <trkpt lat="44.29771" lon="3.28386">
        <ele>485</ele>
        <time>2020-03-10T18:52:09Z</time>
      </trkpt>
      <trkpt lat="44.29773" lon="3.28375">
        <ele>487</ele>
        <time>2020-03-10T18:52:10Z</time>
      </trkpt>
      <trkpt lat="44.29772" lon="3.28354">
        <ele>488</ele>
        <time>2020-03-10T18:52:13Z</time>
      </trkpt>
      <trkpt lat="44.29771" lon="3.28342">
        <ele>489</ele>
        <time>2020-03-10T18:52:14Z</time>
      </trkpt>
      <trkpt lat="44.29751" lon="3.28303">
        <ele>478</ele>
        <time>2020-03-10T18:52:21Z</time>
      </trkpt>
      <trkpt lat="44.29741" lon="3.2827">
        <ele>476</ele>
        <time>2020-03-10T18:52:25Z</time>
      </trkpt>
      <trkpt lat="44.29738" lon="3.28249">
        <ele>475</ele>
        <time>2020-03-10T18:52:28Z</time>
      </trkpt>
      <trkpt lat="44.29742" lon="3.28232">
        <ele>473</ele>
        <time>2020-03-10T18:52:30Z</time>
      </trkpt>
      <trkpt lat="44.29766" lon="3.28174">
        <ele>472</ele>
        <time>2020-03-10T18:52:39Z</time>
      </trkpt>
      <trkpt lat="44.29775" lon="3.28156">
        <ele>474</ele>
        <time>2020-03-10T18:52:41Z</time>
      </trkpt>
      <trkpt lat="44.29786" lon="3.28147">
        <ele>477</ele>
        <time>2020-03-10T18:52:44Z</time>
      </trkpt>
      <trkpt lat="44.29793" lon="3.28145">
        <ele>479</ele>
        <time>2020-03-10T18:52:45Z</time>
      </trkpt>
      <trkpt lat="44.29816" lon="3.28143">
        <ele>484</ele>
        <time>2020-03-10T18:52:49Z</time>
      </trkpt>
      <trkpt lat="44.29829" lon="3.28141">
        <ele>487</ele>
        <time>2020-03-10T18:52:51Z</time>
      </trkpt>
      <trkpt lat="44.29835" lon="3.28137">
        <ele>488</ele>
        <time>2020-03-10T18:52:53Z</time>
      </trkpt>
      <trkpt lat="44.29843" lon="3.28127">
        <ele>489</ele>
        <time>2020-03-10T18:52:55Z</time>
      </trkpt>
      <trkpt lat="44.29848" lon="3.28112">
        <ele>487</ele>
        <time>2020-03-10T18:52:57Z</time>
      </trkpt>
      <trkpt lat="44.2985" lon="3.28076">
        <ele>477</ele>
        <time>2020-03-10T18:53:01Z</time>
      </trkpt>
      <trkpt lat="44.29862" lon="3.28034">
        <ele>475</ele>
        <time>2020-03-10T18:53:07Z</time>
      </trkpt>
      <trkpt lat="44.2988" lon="3.28004">
        <ele>476</ele>
        <time>2020-03-10T18:53:12Z</time>
      </trkpt>
      <trkpt lat="44.2989" lon="3.27983">
        <ele>478</ele>
        <time>2020-03-10T18:53:15Z</time>
      </trkpt>
      <trkpt lat="44.29915" lon="3.27953">
        <ele>477</ele>
        <time>2020-03-10T18:53:21Z</time>
      </trkpt>
      <trkpt lat="44.29926" lon="3.27934">
        <ele>477</ele>
        <time>2020-03-10T18:53:24Z</time>
      </trkpt>
      <trkpt lat="44.29932" lon="3.27913">
        <ele>475</ele>
        <time>2020-03-10T18:53:27Z</time>
      </trkpt>
      <trkpt lat="44.29937" lon="3.27859">
        <ele>469</ele>
        <time>2020-03-10T18:53:34Z</time>
      </trkpt>
      <trkpt lat="44.29944" lon="3.27839">
        <ele>468</ele>
        <time>2020-03-10T18:53:37Z</time>
      </trkpt>
      <trkpt lat="44.29954" lon="3.27824">
        <ele>469</ele>
        <time>2020-03-10T18:53:39Z</time>
      </trkpt>
      <trkpt lat="44.29978" lon="3.27804">
        <ele>472</ele>
        <time>2020-03-10T18:53:44Z</time>
      </trkpt>
      <trkpt lat="44.29982" lon="3.27797">
        <ele>472</ele>
        <time>2020-03-10T18:53:46Z</time>
      </trkpt>
      <trkpt lat="44.29986" lon="3.27787">
        <ele>471</ele>
        <time>2020-03-10T18:53:47Z</time>
      </trkpt>
      <trkpt lat="44.29987" lon="3.27777">
        <ele>470</ele>
        <time>2020-03-10T18:53:48Z</time>
      </trkpt>
      <trkpt lat="44.29987" lon="3.27766">
        <ele>468</ele>
        <time>2020-03-10T18:53:50Z</time>
      </trkpt>
      <trkpt lat="44.29982" lon="3.27746">
        <ele>465</ele>
        <time>2020-03-10T18:53:52Z</time>
      </trkpt>
      <trkpt lat="44.29978" lon="3.27737">
        <ele>464</ele>
        <time>2020-03-10T18:53:54Z</time>
      </trkpt>
      <trkpt lat="44.29975" lon="3.27715">
        <ele>463</ele>
        <time>2020-03-10T18:53:57Z</time>
      </trkpt>
      <trkpt lat="44.29975" lon="3.27707">
        <ele>462</ele>
        <time>2020-03-10T18:53:58Z</time>
      </trkpt>
      <trkpt lat="44.2998" lon="3.2769">
        <ele>461</ele>
        <time>2020-03-10T18:54:00Z</time>
      </trkpt>
      <trkpt lat="44.29985" lon="3.2768">
        <ele>460</ele>
        <time>2020-03-10T18:54:01Z</time>
      </trkpt>
      <trkpt lat="44.29991" lon="3.27673">
        <ele>459</ele>
        <time>2020-03-10T18:54:03Z</time>
      </trkpt>
      <trkpt lat="44.30015" lon="3.2765">
        <ele>463</ele>
        <time>2020-03-10T18:54:08Z</time>
      </trkpt>
      <trkpt lat="44.30031" lon="3.27633">
        <ele>469</ele>
        <time>2020-03-10T18:54:12Z</time>
      </trkpt>
      <trkpt lat="44.30036" lon="3.27624">
        <ele>470</ele>
        <time>2020-03-10T18:54:13Z</time>
      </trkpt>
      <trkpt lat="44.30073" lon="3.27542">
        <ele>471</ele>
        <time>2020-03-10T18:54:25Z</time>
      </trkpt>
      <trkpt lat="44.30087" lon="3.27495">
        <ele>465</ele>
        <time>2020-03-10T18:54:32Z</time>
      </trkpt>
      <trkpt lat="44.30117" lon="3.27439">
        <ele>464</ele>
        <time>2020-03-10T18:54:41Z</time>
      </trkpt>
      <trkpt lat="44.30134" lon="3.27419">
        <ele>464</ele>
        <time>2020-03-10T18:54:45Z</time>
      </trkpt>
      <trkpt lat="44.30151" lon="3.27392">
        <ele>462</ele>
        <time>2020-03-10T18:54:49Z</time>
      </trkpt>
      <trkpt lat="44.30159" lon="3.27384">
        <ele>461</ele>
        <time>2020-03-10T18:54:51Z</time>
      </trkpt>
      <trkpt lat="44.30176" lon="3.2737">
        <ele>461</ele>
        <time>2020-03-10T18:54:55Z</time>
      </trkpt>
      <trkpt lat="44.30213" lon="3.27334">
        <ele>459</ele>
        <time>2020-03-10T18:55:03Z</time>
      </trkpt>
      <trkpt lat="44.30245" lon="3.27311">
        <ele>463</ele>
        <time>2020-03-10T18:55:09Z</time>
      </trkpt>
      <trkpt lat="44.30252" lon="3.27301">
        <ele>463</ele>
        <time>2020-03-10T18:55:11Z</time>
      </trkpt>
      <trkpt lat="44.30258" lon="3.27285">
        <ele>462</ele>
        <time>2020-03-10T18:55:13Z</time>
      </trkpt>
      <trkpt lat="44.30262" lon="3.27255">
        <ele>458</ele>
        <time>2020-03-10T18:55:17Z</time>
      </trkpt>
      <trkpt lat="44.30261" lon="3.27246">
        <ele>456</ele>
        <time>2020-03-10T18:55:18Z</time>
      </trkpt>
      <trkpt lat="44.30254" lon="3.27208">
        <ele>449</ele>
        <time>2020-03-10T18:55:23Z</time>
      </trkpt>
      <trkpt lat="44.30255" lon="3.27186">
        <ele>447</ele>
        <time>2020-03-10T18:55:26Z</time>
      </trkpt>
      <trkpt lat="44.3026" lon="3.2717">
        <ele>447</ele>
        <time>2020-03-10T18:55:28Z</time>
      </trkpt>
      <trkpt lat="44.30268" lon="3.27154">
        <ele>448</ele>
        <time>2020-03-10T18:55:31Z</time>
      </trkpt>
      <trkpt lat="44.30291" lon="3.2713">
        <ele>454</ele>
        <time>2020-03-10T18:55:36Z</time>
      </trkpt>
      <trkpt lat="44.30297" lon="3.2712">
        <ele>456</ele>
        <time>2020-03-10T18:55:37Z</time>
      </trkpt>
      <trkpt lat="44.30297" lon="3.271">
        <ele>456</ele>
        <time>2020-03-10T18:55:40Z</time>
      </trkpt>
      <trkpt lat="44.30293" lon="3.27083">
        <ele>454</ele>
        <time>2020-03-10T18:55:42Z</time>
      </trkpt>
      <trkpt lat="44.30292" lon="3.27065">
        <ele>453</ele>
        <time>2020-03-10T18:55:45Z</time>
      </trkpt>
      <trkpt lat="44.30296" lon="3.27038">
        <ele>452</ele>
        <time>2020-03-10T18:55:48Z</time>
      </trkpt>
      <trkpt lat="44.30304" lon="3.2701">
        <ele>453</ele>
        <time>2020-03-10T18:55:52Z</time>
      </trkpt>
      <trkpt lat="44.30319" lon="3.2698">
        <ele>453</ele>
        <time>2020-03-10T18:55:57Z</time>
      </trkpt>
      <trkpt lat="44.30344" lon="3.26943">
        <ele>451</ele>
        <time>2020-03-10T18:56:03Z</time>
      </trkpt>
      <trkpt lat="44.30364" lon="3.26918">
        <ele>452</ele>
        <time>2020-03-10T18:56:08Z</time>
      </trkpt>
      <trkpt lat="44.30411" lon="3.26869">
        <ele>454</ele>
        <time>2020-03-10T18:56:18Z</time>
      </trkpt>
      <trkpt lat="44.30449" lon="3.2684">
        <ele>456</ele>
        <time>2020-03-10T18:56:26Z</time>
      </trkpt>
      <trkpt lat="44.30483" lon="3.26806">
        <ele>459</ele>
        <time>2020-03-10T18:56:33Z</time>
      </trkpt>
      <trkpt lat="44.30513" lon="3.26771">
        <ele>460</ele>
        <time>2020-03-10T18:56:40Z</time>
      </trkpt>
      <trkpt lat="44.30523" lon="3.26755">
        <ele>461</ele>
        <time>2020-03-10T18:56:43Z</time>
      </trkpt>
      <trkpt lat="44.30541" lon="3.26707">
        <ele>462</ele>
        <time>2020-03-10T18:56:50Z</time>
      </trkpt>
      <trkpt lat="44.30547" lon="3.26686">
        <ele>461</ele>
        <time>2020-03-10T18:56:53Z</time>
      </trkpt>
      <trkpt lat="44.30553" lon="3.26633">
        <ele>458</ele>
        <time>2020-03-10T18:57:00Z</time>
      </trkpt>
      <trkpt lat="44.30553" lon="3.26619">
        <ele>457</ele>
        <time>2020-03-10T18:57:01Z</time>
      </trkpt>
      <trkpt lat="44.30549" lon="3.26599">
        <ele>454</ele>
        <time>2020-03-10T18:57:04Z</time>
      </trkpt>
      <trkpt lat="44.30536" lon="3.26561">
        <ele>449</ele>
        <time>2020-03-10T18:57:09Z</time>
      </trkpt>
      <trkpt lat="44.30534" lon="3.26548">
        <ele>449</ele>
        <time>2020-03-10T18:57:11Z</time>
      </trkpt>
      <trkpt lat="44.30536" lon="3.26529">
        <ele>449</ele>
        <time>2020-03-10T18:57:14Z</time>
      </trkpt>
      <trkpt lat="44.30557" lon="3.26454">
        <ele>457</ele>
        <time>2020-03-10T18:57:24Z</time>
      </trkpt>
      <trkpt lat="44.30559" lon="3.26427">
        <ele>459</ele>
        <time>2020-03-10T18:57:27Z</time>
      </trkpt>
      <trkpt lat="44.30556" lon="3.26396">
        <ele>460</ele>
        <time>2020-03-10T18:57:31Z</time>
      </trkpt>
      <trkpt lat="44.30549" lon="3.26358">
        <ele>460</ele>
        <time>2020-03-10T18:57:36Z</time>
      </trkpt>
      <trkpt lat="44.30547" lon="3.2634">
        <ele>461</ele>
        <time>2020-03-10T18:57:39Z</time>
      </trkpt>
      <trkpt lat="44.30546" lon="3.26303">
        <ele>461</ele>
        <time>2020-03-10T18:57:43Z</time>
      </trkpt>
      <trkpt lat="44.30548" lon="3.26266">
        <ele>461</ele>
        <time>2020-03-10T18:57:48Z</time>
      </trkpt>
      <trkpt lat="44.3055" lon="3.2624">
        <ele>461</ele>
        <time>2020-03-10T18:57:51Z</time>
      </trkpt>
      <trkpt lat="44.30553" lon="3.26227">
        <ele>461</ele>
        <time>2020-03-10T18:57:53Z</time>
      </trkpt>
      <trkpt lat="44.30556" lon="3.26215">
        <ele>461</ele>
        <time>2020-03-10T18:57:55Z</time>
      </trkpt>
      <trkpt lat="44.3057" lon="3.26183">
        <ele>460</ele>
        <time>2020-03-10T18:58:00Z</time>
      </trkpt>
      <trkpt lat="44.30572" lon="3.26168">
        <ele>460</ele>
        <time>2020-03-10T18:58:01Z</time>
      </trkpt>
      <trkpt lat="44.30573" lon="3.26143">
        <ele>460</ele>
        <time>2020-03-10T18:58:05Z</time>
      </trkpt>
      <trkpt lat="44.30569" lon="3.26044">
        <ele>462</ele>
        <time>2020-03-10T18:58:17Z</time>
      </trkpt>
      <trkpt lat="44.30573" lon="3.25979">
        <ele>469</ele>
        <time>2020-03-10T18:58:26Z</time>
      </trkpt>
      <trkpt lat="44.30579" lon="3.25892">
        <ele>489</ele>
        <time>2020-03-10T18:58:37Z</time>
      </trkpt>
      <trkpt lat="44.30568" lon="3.25765">
        <ele>494</ele>
        <time>2020-03-10T18:58:53Z</time>
      </trkpt>
      <trkpt lat="44.3059" lon="3.25602">
        <ele>455</ele>
        <time>2020-03-10T18:59:14Z</time>
      </trkpt>
      <trkpt lat="44.30602" lon="3.25549">
        <ele>456</ele>
        <time>2020-03-10T18:59:21Z</time>
      </trkpt>
      <trkpt lat="44.30613" lon="3.25521">
        <ele>458</ele>
        <time>2020-03-10T18:59:25Z</time>
      </trkpt>
      <trkpt lat="44.30645" lon="3.25465">
        <ele>461</ele>
        <time>2020-03-10T18:59:34Z</time>
      </trkpt>
      <trkpt lat="44.30684" lon="3.25407">
        <ele>458</ele>
        <time>2020-03-10T18:59:45Z</time>
      </trkpt>
      <trkpt lat="44.30751" lon="3.25346">
        <ele>469</ele>
        <time>2020-03-10T18:59:59Z</time>
      </trkpt>
      <trkpt lat="44.3076" lon="3.25329">
        <ele>468</ele>
        <time>2020-03-10T19:00:01Z</time>
      </trkpt>
      <trkpt lat="44.30766" lon="3.25308">
        <ele>468</ele>
        <time>2020-03-10T19:00:04Z</time>
      </trkpt>
      <trkpt lat="44.30773" lon="3.25273">
        <ele>466</ele>
        <time>2020-03-10T19:00:09Z</time>
      </trkpt>
      <trkpt lat="44.3078" lon="3.25244">
        <ele>465</ele>
        <time>2020-03-10T19:00:13Z</time>
      </trkpt>
      <trkpt lat="44.30782" lon="3.25232">
        <ele>464</ele>
        <time>2020-03-10T19:00:14Z</time>
      </trkpt>
      <trkpt lat="44.30791" lon="3.25172">
        <ele>459</ele>
        <time>2020-03-10T19:00:22Z</time>
      </trkpt>
      <trkpt lat="44.30797" lon="3.25149">
        <ele>457</ele>
        <time>2020-03-10T19:00:25Z</time>
      </trkpt>
      <trkpt lat="44.30804" lon="3.25125">
        <ele>455</ele>
        <time>2020-03-10T19:00:29Z</time>
      </trkpt>
      <trkpt lat="44.30815" lon="3.251">
        <ele>452</ele>
        <time>2020-03-10T19:00:32Z</time>
      </trkpt>
      <trkpt lat="44.30818" lon="3.25087">
        <ele>449</ele>
        <time>2020-03-10T19:00:34Z</time>
      </trkpt>
      <trkpt lat="44.30831" lon="3.24898">
        <ele>444</ele>
        <time>2020-03-10T19:00:58Z</time>
      </trkpt>
      <trkpt lat="44.30829" lon="3.24873">
        <ele>446</ele>
        <time>2020-03-10T19:01:02Z</time>
      </trkpt>
      <trkpt lat="44.30825" lon="3.24861">
        <ele>446</ele>
        <time>2020-03-10T19:01:03Z</time>
      </trkpt>
      <trkpt lat="44.30794" lon="3.24803">
        <ele>450</ele>
        <time>2020-03-10T19:01:12Z</time>
      </trkpt>
      <trkpt lat="44.3078" lon="3.24765">
        <ele>452</ele>
        <time>2020-03-10T19:01:18Z</time>
      </trkpt>
      <trkpt lat="44.30774" lon="3.24737">
        <ele>456</ele>
        <time>2020-03-10T19:01:22Z</time>
      </trkpt>
      <trkpt lat="44.30767" lon="3.2467">
        <ele>476</ele>
        <time>2020-03-10T19:01:30Z</time>
      </trkpt>
      <trkpt lat="44.30766" lon="3.24661">
        <ele>479</ele>
        <time>2020-03-10T19:01:31Z</time>
      </trkpt>
      <trkpt lat="44.30759" lon="3.24646">
        <ele>483</ele>
        <time>2020-03-10T19:01:34Z</time>
      </trkpt>
      <trkpt lat="44.30747" lon="3.24628">
        <ele>486</ele>
        <time>2020-03-10T19:01:37Z</time>
      </trkpt>
      <trkpt lat="44.30699" lon="3.24555">
        <ele>495</ele>
        <time>2020-03-10T19:01:49Z</time>
      </trkpt>
      <trkpt lat="44.30685" lon="3.24539">
        <ele>495</ele>
        <time>2020-03-10T19:01:53Z</time>
      </trkpt>
      <trkpt lat="44.3061" lon="3.24479">
        <ele>479</ele>
        <time>2020-03-10T19:02:08Z</time>
      </trkpt>
      <trkpt lat="44.30535" lon="3.24427">
        <ele>473</ele>
        <time>2020-03-10T19:02:23Z</time>
      </trkpt>
      <trkpt lat="44.30489" lon="3.24399">
        <ele>455</ele>
        <time>2020-03-10T19:02:32Z</time>
      </trkpt>
      <trkpt lat="44.3047" lon="3.24378">
        <ele>456</ele>
        <time>2020-03-10T19:02:36Z</time>
      </trkpt>
      <trkpt lat="44.30463" lon="3.24368">
        <ele>456</ele>
        <time>2020-03-10T19:02:38Z</time>
      </trkpt>
      <trkpt lat="44.30453" lon="3.24341">
        <ele>456</ele>
        <time>2020-03-10T19:02:42Z</time>
      </trkpt>
      <trkpt lat="44.30433" lon="3.2425">
        <ele>456</ele>
        <time>2020-03-10T19:02:54Z</time>
      </trkpt>
      <trkpt lat="44.30427" lon="3.24214">
        <ele>456</ele>
        <time>2020-03-10T19:02:59Z</time>
      </trkpt>
      <trkpt lat="44.30421" lon="3.24062">
        <ele>449</ele>
        <time>2020-03-10T19:03:18Z</time>
      </trkpt>
      <trkpt lat="44.30423" lon="3.2401">
        <ele>447</ele>
        <time>2020-03-10T19:03:25Z</time>
      </trkpt>
      <trkpt lat="44.30422" lon="3.23993">
        <ele>447</ele>
        <time>2020-03-10T19:03:27Z</time>
      </trkpt>
      <trkpt lat="44.30417" lon="3.23967">
        <ele>446</ele>
        <time>2020-03-10T19:03:30Z</time>
      </trkpt>
      <trkpt lat="44.30401" lon="3.23924">
        <ele>445</ele>
        <time>2020-03-10T19:03:36Z</time>
      </trkpt>
      <trkpt lat="44.30391" lon="3.23905">
        <ele>447</ele>
        <time>2020-03-10T19:03:39Z</time>
      </trkpt>
      <trkpt lat="44.3036" lon="3.23867">
        <ele>452</ele>
        <time>2020-03-10T19:03:47Z</time>
      </trkpt>
      <trkpt lat="44.30324" lon="3.23827">
        <ele>460</ele>
        <time>2020-03-10T19:03:55Z</time>
      </trkpt>
      <trkpt lat="44.30306" lon="3.23814">
        <ele>469</ele>
        <time>2020-03-10T19:03:59Z</time>
      </trkpt>
      <trkpt lat="44.3027" lon="3.23802">
        <ele>475</ele>
        <time>2020-03-10T19:04:05Z</time>
      </trkpt>
      <trkpt lat="44.30254" lon="3.238">
        <ele>475</ele>
        <time>2020-03-10T19:04:08Z</time>
      </trkpt>
      <trkpt lat="44.30237" lon="3.23802">
        <ele>474</ele>
        <time>2020-03-10T19:04:11Z</time>
      </trkpt>
      <trkpt lat="44.30208" lon="3.23811">
        <ele>469</ele>
        <time>2020-03-10T19:04:16Z</time>
      </trkpt>
      <trkpt lat="44.30188" lon="3.23811">
        <ele>471</ele>
        <time>2020-03-10T19:04:20Z</time>
      </trkpt>
      <trkpt lat="44.30156" lon="3.238">
        <ele>486</ele>
        <time>2020-03-10T19:04:26Z</time>
      </trkpt>
      <trkpt lat="44.30141" lon="3.23798">
        <ele>488</ele>
        <time>2020-03-10T19:04:28Z</time>
      </trkpt>
      <trkpt lat="44.30129" lon="3.23804">
        <ele>482</ele>
        <time>2020-03-10T19:04:31Z</time>
      </trkpt>
      <trkpt lat="44.30099" lon="3.23829">
        <ele>462</ele>
        <time>2020-03-10T19:04:37Z</time>
      </trkpt>
      <trkpt lat="44.30082" lon="3.23839">
        <ele>458</ele>
        <time>2020-03-10T19:04:40Z</time>
      </trkpt>
      <trkpt lat="44.30067" lon="3.23845">
        <ele>458</ele>
        <time>2020-03-10T19:04:43Z</time>
      </trkpt>
      <trkpt lat="44.30003" lon="3.23849">
        <ele>462</ele>
        <time>2020-03-10T19:04:54Z</time>
      </trkpt>
      <trkpt lat="44.29975" lon="3.23861">
        <ele>458</ele>
        <time>2020-03-10T19:05:00Z</time>
      </trkpt>
      <trkpt lat="44.29961" lon="3.23863">
        <ele>457</ele>
        <time>2020-03-10T19:05:02Z</time>
      </trkpt>
      <trkpt lat="44.29817" lon="3.23869">
        <ele>455</ele>
        <time>2020-03-10T19:05:28Z</time>
      </trkpt>
      <trkpt lat="44.29774" lon="3.23861">
        <ele>457</ele>
        <time>2020-03-10T19:05:35Z</time>
      </trkpt>
      <trkpt lat="44.29757" lon="3.23861">
        <ele>456</ele>
        <time>2020-03-10T19:05:38Z</time>
      </trkpt>
      <trkpt lat="44.29703" lon="3.23866">
        <ele>453</ele>
        <time>2020-03-10T19:05:48Z</time>
      </trkpt>
      <trkpt lat="44.29674" lon="3.23861">
        <ele>453</ele>
        <time>2020-03-10T19:05:53Z</time>
      </trkpt>
      <trkpt lat="44.29662" lon="3.23855">
        <ele>454</ele>
        <time>2020-03-10T19:05:56Z</time>
      </trkpt>
      <trkpt lat="44.2964" lon="3.23841">
        <ele>455</ele>
        <time>2020-03-10T19:06:00Z</time>
      </trkpt>
      <trkpt lat="44.29593" lon="3.2383">
        <ele>452</ele>
        <time>2020-03-10T19:06:08Z</time>
      </trkpt>
      <trkpt lat="44.29573" lon="3.23821">
        <ele>452</ele>
        <time>2020-03-10T19:06:12Z</time>
      </trkpt>
      <trkpt lat="44.29533" lon="3.23798">
        <ele>451</ele>
        <time>2020-03-10T19:06:20Z</time>
      </trkpt>
      <trkpt lat="44.29506" lon="3.2378">
        <ele>451</ele>
        <time>2020-03-10T19:06:25Z</time>
      </trkpt>
      <trkpt lat="44.29496" lon="3.23771">
        <ele>451</ele>
        <time>2020-03-10T19:06:27Z</time>
      </trkpt>
      <trkpt lat="44.29478" lon="3.23748">
        <ele>453</ele>
        <time>2020-03-10T19:06:32Z</time>
      </trkpt>
      <trkpt lat="44.29468" lon="3.23743">
        <ele>453</ele>
        <time>2020-03-10T19:06:33Z</time>
      </trkpt>
      <trkpt lat="44.29448" lon="3.23736">
        <ele>450</ele>
        <time>2020-03-10T19:06:37Z</time>
      </trkpt>
      <trkpt lat="44.29427" lon="3.23717">
        <ele>451</ele>
        <time>2020-03-10T19:06:42Z</time>
      </trkpt>
      <trkpt lat="44.29399" lon="3.2368">
        <ele>458</ele>
        <time>2020-03-10T19:06:48Z</time>
      </trkpt>
      <trkpt lat="44.2939" lon="3.23671">
        <ele>461</ele>
        <time>2020-03-10T19:06:50Z</time>
      </trkpt>
      <trkpt lat="44.29377" lon="3.23665">
        <ele>462</ele>
        <time>2020-03-10T19:06:53Z</time>
      </trkpt>
      <trkpt lat="44.29352" lon="3.23663">
        <ele>461</ele>
        <time>2020-03-10T19:06:57Z</time>
      </trkpt>
      <trkpt lat="44.29345" lon="3.23665">
        <ele>460</ele>
        <time>2020-03-10T19:06:59Z</time>
      </trkpt>
      <trkpt lat="44.29334" lon="3.23672">
        <ele>456</ele>
        <time>2020-03-10T19:07:01Z</time>
      </trkpt>
      <trkpt lat="44.29266" lon="3.23733">
        <ele>447</ele>
        <time>2020-03-10T19:07:15Z</time>
      </trkpt>
      <trkpt lat="44.29208" lon="3.23749">
        <ele>449</ele>
        <time>2020-03-10T19:07:26Z</time>
      </trkpt>
      <trkpt lat="44.29191" lon="3.23751">
        <ele>451</ele>
        <time>2020-03-10T19:07:29Z</time>
      </trkpt>
      <trkpt lat="44.29134" lon="3.23747">
        <ele>460</ele>
        <time>2020-03-10T19:07:39Z</time>
      </trkpt>
      <trkpt lat="44.29115" lon="3.2375">
        <ele>460</ele>
        <time>2020-03-10T19:07:42Z</time>
      </trkpt>
      <trkpt lat="44.29083" lon="3.23769">
        <ele>459</ele>
        <time>2020-03-10T19:07:48Z</time>
      </trkpt>
      <trkpt lat="44.2907" lon="3.23775">
        <ele>455</ele>
        <time>2020-03-10T19:07:51Z</time>
      </trkpt>
      <trkpt lat="44.29046" lon="3.2378">
        <ele>450</ele>
        <time>2020-03-10T19:07:55Z</time>
      </trkpt>
      <trkpt lat="44.29013" lon="3.23779">
        <ele>444</ele>
        <time>2020-03-10T19:08:01Z</time>
      </trkpt>
      <trkpt lat="44.29001" lon="3.23774">
        <ele>443</ele>
        <time>2020-03-10T19:08:03Z</time>
      </trkpt>
      <trkpt lat="44.28958" lon="3.23731">
        <ele>443</ele>
        <time>2020-03-10T19:08:13Z</time>
      </trkpt>
      <trkpt lat="44.2893" lon="3.2371">
        <ele>443</ele>
        <time>2020-03-10T19:08:18Z</time>
      </trkpt>
      <trkpt lat="44.28903" lon="3.23682">
        <ele>445</ele>
        <time>2020-03-10T19:08:24Z</time>
      </trkpt>
      <trkpt lat="44.28853" lon="3.23647">
        <ele>443</ele>
        <time>2020-03-10T19:08:34Z</time>
      </trkpt>
      <trkpt lat="44.28813" lon="3.23629">
        <ele>440</ele>
        <time>2020-03-10T19:08:42Z</time>
      </trkpt>
      <trkpt lat="44.28802" lon="3.23615">
        <ele>442</ele>
        <time>2020-03-10T19:08:44Z</time>
      </trkpt>
      <trkpt lat="44.28791" lon="3.23592">
        <ele>444</ele>
        <time>2020-03-10T19:08:48Z</time>
      </trkpt>
      <trkpt lat="44.28732" lon="3.23501">
        <ele>435</ele>
        <time>2020-03-10T19:09:03Z</time>
      </trkpt>
      <trkpt lat="44.28657" lon="3.23358">
        <ele>428</ele>
        <time>2020-03-10T19:09:26Z</time>
      </trkpt>
      <trkpt lat="44.28639" lon="3.23334">
        <ele>429</ele>
        <time>2020-03-10T19:09:30Z</time>
      </trkpt>
      <trkpt lat="44.28581" lon="3.23299">
        <ele>432</ele>
        <time>2020-03-10T19:09:42Z</time>
      </trkpt>
      <trkpt lat="44.28527" lon="3.23257">
        <ele>431</ele>
        <time>2020-03-10T19:09:53Z</time>
      </trkpt>
      <trkpt lat="44.2849" lon="3.23234">
        <ele>428</ele>
        <time>2020-03-10T19:10:00Z</time>
      </trkpt>
      <trkpt lat="44.28453" lon="3.23197">
        <ele>430</ele>
        <time>2020-03-10T19:10:08Z</time>
      </trkpt>
      <trkpt lat="44.28414" lon="3.23167">
        <ele>424</ele>
        <time>2020-03-10T19:10:16Z</time>
      </trkpt>
      <trkpt lat="44.28398" lon="3.23155">
        <ele>423</ele>
        <time>2020-03-10T19:10:19Z</time>
      </trkpt>
      <trkpt lat="44.28368" lon="3.23138">
        <ele>421</ele>
        <time>2020-03-10T19:10:25Z</time>
      </trkpt>
      <trkpt lat="44.28351" lon="3.23126">
        <ele>420</ele>
        <time>2020-03-10T19:10:28Z</time>
      </trkpt>
      <trkpt lat="44.28344" lon="3.23118">
        <ele>420</ele>
        <time>2020-03-10T19:10:30Z</time>
      </trkpt>
      <trkpt lat="44.28331" lon="3.23099">
        <ele>419</ele>
        <time>2020-03-10T19:10:33Z</time>
      </trkpt>
      <trkpt lat="44.28302" lon="3.2303">
        <ele>424</ele>
        <time>2020-03-10T19:10:43Z</time>
      </trkpt>
      <trkpt lat="44.28291" lon="3.23016">
        <ele>425</ele>
        <time>2020-03-10T19:10:46Z</time>
      </trkpt>
      <trkpt lat="44.28273" lon="3.23004">
        <ele>424</ele>
        <time>2020-03-10T19:10:50Z</time>
      </trkpt>
      <trkpt lat="44.28224" lon="3.22995">
        <ele>421</ele>
        <time>2020-03-10T19:10:58Z</time>
      </trkpt>
      <trkpt lat="44.28154" lon="3.22963">
        <ele>422</ele>
        <time>2020-03-10T19:11:12Z</time>
      </trkpt>
      <trkpt lat="44.2814" lon="3.22953">
        <ele>423</ele>
        <time>2020-03-10T19:11:14Z</time>
      </trkpt>
      <trkpt lat="44.28085" lon="3.22898">
        <ele>429</ele>
        <time>2020-03-10T19:11:26Z</time>
      </trkpt>
      <trkpt lat="44.28074" lon="3.2289">
        <ele>431</ele>
        <time>2020-03-10T19:11:29Z</time>
      </trkpt>
      <trkpt lat="44.28067" lon="3.22887">
        <ele>432</ele>
        <time>2020-03-10T19:11:30Z</time>
      </trkpt>
      <trkpt lat="44.28048" lon="3.22884">
        <ele>432</ele>
        <time>2020-03-10T19:11:33Z</time>
      </trkpt>
      <trkpt lat="44.28002" lon="3.22896">
        <ele>428</ele>
        <time>2020-03-10T19:11:42Z</time>
      </trkpt>
      <trkpt lat="44.27982" lon="3.22897">
        <ele>425</ele>
        <time>2020-03-10T19:11:45Z</time>
      </trkpt>
      <trkpt lat="44.27965" lon="3.22893">
        <ele>424</ele>
        <time>2020-03-10T19:11:48Z</time>
      </trkpt>
      <trkpt lat="44.27893" lon="3.22847">
        <ele>425</ele>
        <time>2020-03-10T19:12:02Z</time>
      </trkpt>
      <trkpt lat="44.27851" lon="3.22825">
        <ele>422</ele>
        <time>2020-03-10T19:12:10Z</time>
      </trkpt>
      <trkpt lat="44.2783" lon="3.22799">
        <ele>423</ele>
        <time>2020-03-10T19:12:15Z</time>
      </trkpt>
      <trkpt lat="44.27782" lon="3.22756">
        <ele>421</ele>
        <time>2020-03-10T19:12:25Z</time>
      </trkpt>
      <trkpt lat="44.27754" lon="3.22728">
        <ele>420</ele>
        <time>2020-03-10T19:12:32Z</time>
      </trkpt>
      <trkpt lat="44.27742" lon="3.22721">
        <ele>420</ele>
        <time>2020-03-10T19:12:34Z</time>
      </trkpt>
      <trkpt lat="44.27738" lon="3.22713">
        <ele>421</ele>
        <time>2020-03-10T19:12:35Z</time>
      </trkpt>
      <trkpt lat="44.27697" lon="3.22656">
        <ele>423</ele>
        <time>2020-03-10T19:12:45Z</time>
      </trkpt>
      <trkpt lat="44.2769" lon="3.22638">
        <ele>426</ele>
        <time>2020-03-10T19:12:48Z</time>
      </trkpt>
      <trkpt lat="44.27685" lon="3.22615">
        <ele>431</ele>
        <time>2020-03-10T19:12:51Z</time>
      </trkpt>
      <trkpt lat="44.2768" lon="3.22599">
        <ele>434</ele>
        <time>2020-03-10T19:12:53Z</time>
      </trkpt>
      <trkpt lat="44.27676" lon="3.22593">
        <ele>435</ele>
        <time>2020-03-10T19:12:54Z</time>
      </trkpt>
      <trkpt lat="44.27666" lon="3.2259">
        <ele>432</ele>
        <time>2020-03-10T19:12:56Z</time>
      </trkpt>
      <trkpt lat="44.27659" lon="3.22591">
        <ele>431</ele>
        <time>2020-03-10T19:12:57Z</time>
      </trkpt>
      <trkpt lat="44.27654" lon="3.22595">
        <ele>430</ele>
        <time>2020-03-10T19:12:58Z</time>
      </trkpt>
      <trkpt lat="44.27642" lon="3.22612">
        <ele>425</ele>
        <time>2020-03-10T19:13:02Z</time>
      </trkpt>
      <trkpt lat="44.27637" lon="3.22615">
        <ele>424</ele>
        <time>2020-03-10T19:13:02Z</time>
      </trkpt>
      <trkpt lat="44.2763" lon="3.22616">
        <ele>423</ele>
        <time>2020-03-10T19:13:04Z</time>
      </trkpt>
      <trkpt lat="44.27615" lon="3.22612">
        <ele>423</ele>
        <time>2020-03-10T19:13:06Z</time>
      </trkpt>
      <trkpt lat="44.27588" lon="3.22599">
        <ele>423</ele>
        <time>2020-03-10T19:13:12Z</time>
      </trkpt>
      <trkpt lat="44.27552" lon="3.22593">
        <ele>423</ele>
        <time>2020-03-10T19:13:18Z</time>
      </trkpt>
      <trkpt lat="44.27542" lon="3.22588">
        <ele>423</ele>
        <time>2020-03-10T19:13:20Z</time>
      </trkpt>
      <trkpt lat="44.27515" lon="3.22569">
        <ele>427</ele>
        <time>2020-03-10T19:13:25Z</time>
      </trkpt>
      <trkpt lat="44.27503" lon="3.22568">
        <ele>427</ele>
        <time>2020-03-10T19:13:27Z</time>
      </trkpt>
      <trkpt lat="44.27483" lon="3.22575">
        <ele>425</ele>
        <time>2020-03-10T19:13:31Z</time>
      </trkpt>
      <trkpt lat="44.27466" lon="3.22575">
        <ele>425</ele>
        <time>2020-03-10T19:13:34Z</time>
      </trkpt>
      <trkpt lat="44.2743" lon="3.22569">
        <ele>428</ele>
        <time>2020-03-10T19:13:41Z</time>
      </trkpt>
      <trkpt lat="44.27348" lon="3.22575">
        <ele>428</ele>
        <time>2020-03-10T19:13:55Z</time>
      </trkpt>
      <trkpt lat="44.27265" lon="3.22576">
        <ele>426</ele>
        <time>2020-03-10T19:14:10Z</time>
      </trkpt>
      <trkpt lat="44.27254" lon="3.22573">
        <ele>427</ele>
        <time>2020-03-10T19:14:12Z</time>
      </trkpt>
      <trkpt lat="44.27245" lon="3.22567">
        <ele>429</ele>
        <time>2020-03-10T19:14:14Z</time>
      </trkpt>
      <trkpt lat="44.27235" lon="3.22555">
        <ele>434</ele>
        <time>2020-03-10T19:14:16Z</time>
      </trkpt>
      <trkpt lat="44.27221" lon="3.22548">
        <ele>437</ele>
        <time>2020-03-10T19:14:19Z</time>
      </trkpt>
      <trkpt lat="44.27207" lon="3.22552">
        <ele>437</ele>
        <time>2020-03-10T19:14:21Z</time>
      </trkpt>
      <trkpt lat="44.27183" lon="3.22577">
        <ele>430</ele>
        <time>2020-03-10T19:14:27Z</time>
      </trkpt>
      <trkpt lat="44.27168" lon="3.22586">
        <ele>428</ele>
        <time>2020-03-10T19:14:29Z</time>
      </trkpt>
      <trkpt lat="44.27082" lon="3.22592">
        <ele>429</ele>
        <time>2020-03-10T19:14:45Z</time>
      </trkpt>
      <trkpt lat="44.26987" lon="3.2261">
        <ele>428</ele>
        <time>2020-03-10T19:15:02Z</time>
      </trkpt>
      <trkpt lat="44.26953" lon="3.22613">
        <ele>428</ele>
        <time>2020-03-10T19:15:08Z</time>
      </trkpt>
      <trkpt lat="44.26916" lon="3.22611">
        <ele>429</ele>
        <time>2020-03-10T19:15:14Z</time>
      </trkpt>
      <trkpt lat="44.26722" lon="3.22595">
        <ele>425</ele>
        <time>2020-03-10T19:15:49Z</time>
      </trkpt>
      <trkpt lat="44.26678" lon="3.22588">
        <ele>427</ele>
        <time>2020-03-10T19:15:57Z</time>
      </trkpt>
      <trkpt lat="44.26599" lon="3.22568">
        <ele>429</ele>
        <time>2020-03-10T19:16:11Z</time>
      </trkpt>
      <trkpt lat="44.26564" lon="3.22563">
        <ele>431</ele>
        <time>2020-03-10T19:16:17Z</time>
      </trkpt>
      <trkpt lat="44.26481" lon="3.22571">
        <ele>432</ele>
        <time>2020-03-10T19:16:32Z</time>
      </trkpt>
      <trkpt lat="44.26405" lon="3.22589">
        <ele>430</ele>
        <time>2020-03-10T19:16:46Z</time>
      </trkpt>
      <trkpt lat="44.26358" lon="3.22605">
        <ele>431</ele>
        <time>2020-03-10T19:16:55Z</time>
      </trkpt>
      <trkpt lat="44.26336" lon="3.22614">
        <ele>430</ele>
        <time>2020-03-10T19:16:59Z</time>
      </trkpt>
      <trkpt lat="44.26222" lon="3.22685">
        <ele>427</ele>
        <time>2020-03-10T19:17:21Z</time>
      </trkpt>
      <trkpt lat="44.26184" lon="3.22694">
        <ele>429</ele>
        <time>2020-03-10T19:17:28Z</time>
      </trkpt>
      <trkpt lat="44.26152" lon="3.22705">
        <ele>430</ele>
        <time>2020-03-10T19:17:34Z</time>
      </trkpt>
      <trkpt lat="44.26134" lon="3.22713">
        <ele>430</ele>
        <time>2020-03-10T19:17:37Z</time>
      </trkpt>
      <trkpt lat="44.26088" lon="3.22743">
        <ele>425</ele>
        <time>2020-03-10T19:17:46Z</time>
      </trkpt>
      <trkpt lat="44.26049" lon="3.22754">
        <ele>428</ele>
        <time>2020-03-10T19:17:53Z</time>
      </trkpt>
      <trkpt lat="44.26027" lon="3.22766">
        <ele>428</ele>
        <time>2020-03-10T19:17:57Z</time>
      </trkpt>
      <trkpt lat="44.25981" lon="3.228">
        <ele>426</ele>
        <time>2020-03-10T19:18:07Z</time>
      </trkpt>
      <trkpt lat="44.25938" lon="3.22823">
        <ele>427</ele>
        <time>2020-03-10T19:18:15Z</time>
      </trkpt>
      <trkpt lat="44.2585" lon="3.22884">
        <ele>431</ele>
        <time>2020-03-10T19:18:32Z</time>
      </trkpt>
      <trkpt lat="44.25698" lon="3.22996">
        <ele>428</ele>
        <time>2020-03-10T19:19:03Z</time>
      </trkpt>
      <trkpt lat="44.25658" lon="3.2303">
        <ele>426</ele>
        <time>2020-03-10T19:19:11Z</time>
      </trkpt>
      <trkpt lat="44.25632" lon="3.23047">
        <ele>426</ele>
        <time>2020-03-10T19:19:16Z</time>
      </trkpt>
      <trkpt lat="44.25575" lon="3.23067">
        <ele>427</ele>
        <time>2020-03-10T19:19:27Z</time>
      </trkpt>
      <trkpt lat="44.25526" lon="3.23088">
        <ele>426</ele>
        <time>2020-03-10T19:19:36Z</time>
      </trkpt>
      <trkpt lat="44.25432" lon="3.23136">
        <ele>435</ele>
        <time>2020-03-10T19:19:54Z</time>
      </trkpt>
      <trkpt lat="44.25396" lon="3.2315">
        <ele>436</ele>
        <time>2020-03-10T19:20:00Z</time>
      </trkpt>
      <trkpt lat="44.25369" lon="3.23169">
        <ele>432</ele>
        <time>2020-03-10T19:20:06Z</time>
      </trkpt>
      <trkpt lat="44.25359" lon="3.23174">
        <ele>433</ele>
        <time>2020-03-10T19:20:08Z</time>
      </trkpt>
      <trkpt lat="44.2531" lon="3.23186">
        <ele>433</ele>
        <time>2020-03-10T19:20:16Z</time>
      </trkpt>
      <trkpt lat="44.25278" lon="3.23188">
        <ele>433</ele>
        <time>2020-03-10T19:20:22Z</time>
      </trkpt>
      <trkpt lat="44.2526" lon="3.23192">
        <ele>432</ele>
        <time>2020-03-10T19:20:25Z</time>
      </trkpt>
      <trkpt lat="44.25234" lon="3.2321">
        <ele>428</ele>
        <time>2020-03-10T19:20:31Z</time>
      </trkpt>
      <trkpt lat="44.25218" lon="3.23219">
        <ele>426</ele>
        <time>2020-03-10T19:20:34Z</time>
      </trkpt>
      <trkpt lat="44.25207" lon="3.23223">
        <ele>426</ele>
        <time>2020-03-10T19:20:36Z</time>
      </trkpt>
      <trkpt lat="44.25175" lon="3.23227">
        <ele>428</ele>
        <time>2020-03-10T19:20:41Z</time>
      </trkpt>
      <trkpt lat="44.24966" lon="3.23211">
        <ele>433</ele>
        <time>2020-03-10T19:21:19Z</time>
      </trkpt>
      <trkpt lat="44.24925" lon="3.23202">
        <ele>434</ele>
        <time>2020-03-10T19:21:26Z</time>
      </trkpt>
      <trkpt lat="44.24881" lon="3.23202">
        <ele>433</ele>
        <time>2020-03-10T19:21:34Z</time>
      </trkpt>
      <trkpt lat="44.2484" lon="3.23195">
        <ele>433</ele>
        <time>2020-03-10T19:21:41Z</time>
      </trkpt>
      <trkpt lat="44.24811" lon="3.23181">
        <ele>435</ele>
        <time>2020-03-10T19:21:47Z</time>
      </trkpt>
      <trkpt lat="44.24804" lon="3.2318">
        <ele>435</ele>
        <time>2020-03-10T19:21:48Z</time>
      </trkpt>
      <trkpt lat="44.24769" lon="3.23185">
        <ele>433</ele>
        <time>2020-03-10T19:21:54Z</time>
      </trkpt>
      <trkpt lat="44.24725" lon="3.23186">
        <ele>433</ele>
        <time>2020-03-10T19:22:02Z</time>
      </trkpt>
      <trkpt lat="44.24536" lon="3.23234">
        <ele>428</ele>
        <time>2020-03-10T19:22:36Z</time>
      </trkpt>
      <trkpt lat="44.24494" lon="3.23239">
        <ele>426</ele>
        <time>2020-03-10T19:22:44Z</time>
      </trkpt>
      <trkpt lat="44.24472" lon="3.23235">
        <ele>426</ele>
        <time>2020-03-10T19:22:48Z</time>
      </trkpt>
      <trkpt lat="44.24432" lon="3.23222">
        <ele>429</ele>
        <time>2020-03-10T19:22:55Z</time>
      </trkpt>
      <trkpt lat="44.24397" lon="3.23201">
        <ele>432</ele>
        <time>2020-03-10T19:23:02Z</time>
      </trkpt>
      <trkpt lat="44.24337" lon="3.23154">
        <ele>430</ele>
        <time>2020-03-10T19:23:14Z</time>
      </trkpt>
      <trkpt lat="44.24307" lon="3.23137">
        <ele>434</ele>
        <time>2020-03-10T19:23:20Z</time>
      </trkpt>
      <trkpt lat="44.24286" lon="3.23132">
        <ele>434</ele>
        <time>2020-03-10T19:23:23Z</time>
      </trkpt>
      <trkpt lat="44.24245" lon="3.2313">
        <ele>432</ele>
        <time>2020-03-10T19:23:31Z</time>
      </trkpt>
      <trkpt lat="44.24237" lon="3.23128">
        <ele>432</ele>
        <time>2020-03-10T19:23:32Z</time>
      </trkpt>
      <trkpt lat="44.24221" lon="3.2312">
        <ele>434</ele>
        <time>2020-03-10T19:23:35Z</time>
      </trkpt>
      <trkpt lat="44.24214" lon="3.23116">
        <ele>435</ele>
        <time>2020-03-10T19:23:37Z</time>
      </trkpt>
      <trkpt lat="44.24162" lon="3.23106">
        <ele>433</ele>
        <time>2020-03-10T19:23:46Z</time>
      </trkpt>
      <trkpt lat="44.24134" lon="3.23095">
        <ele>431</ele>
        <time>2020-03-10T19:23:51Z</time>
      </trkpt>
      <trkpt lat="44.24091" lon="3.23082">
        <ele>425</ele>
        <time>2020-03-10T19:23:59Z</time>
      </trkpt>
      <trkpt lat="44.24055" lon="3.23076">
        <ele>426</ele>
        <time>2020-03-10T19:24:05Z</time>
      </trkpt>
      <trkpt lat="44.24041" lon="3.23077">
        <ele>425</ele>
        <time>2020-03-10T19:24:08Z</time>
      </trkpt>
      <trkpt lat="44.24031" lon="3.23076">
        <ele>426</ele>
        <time>2020-03-10T19:24:10Z</time>
      </trkpt>
      <trkpt lat="44.24013" lon="3.23068">
        <ele>429</ele>
        <time>2020-03-10T19:24:13Z</time>
      </trkpt>
      <trkpt lat="44.24004" lon="3.23068">
        <ele>428</ele>
        <time>2020-03-10T19:24:15Z</time>
      </trkpt>
      <trkpt lat="44.23982" lon="3.23072">
        <ele>426</ele>
        <time>2020-03-10T19:24:19Z</time>
      </trkpt>
      <trkpt lat="44.23954" lon="3.23071">
        <ele>426</ele>
        <time>2020-03-10T19:24:24Z</time>
      </trkpt>
      <trkpt lat="44.2393" lon="3.23064">
        <ele>429</ele>
        <time>2020-03-10T19:24:28Z</time>
      </trkpt>
      <trkpt lat="44.23912" lon="3.23064">
        <ele>429</ele>
        <time>2020-03-10T19:24:31Z</time>
      </trkpt>
      <trkpt lat="44.23876" lon="3.2307">
        <ele>426</ele>
        <time>2020-03-10T19:24:38Z</time>
      </trkpt>
      <trkpt lat="44.23864" lon="3.2307">
        <ele>427</ele>
        <time>2020-03-10T19:24:40Z</time>
      </trkpt>
      <trkpt lat="44.23836" lon="3.23062">
        <ele>430</ele>
        <time>2020-03-10T19:24:45Z</time>
      </trkpt>
      <trkpt lat="44.23816" lon="3.23063">
        <ele>429</ele>
        <time>2020-03-10T19:24:48Z</time>
      </trkpt>
      <trkpt lat="44.23798" lon="3.23057">
        <ele>430</ele>
        <time>2020-03-10T19:24:52Z</time>
      </trkpt>
      <trkpt lat="44.23775" lon="3.23038">
        <ele>436</ele>
        <time>2020-03-10T19:24:56Z</time>
      </trkpt>
      <trkpt lat="44.23767" lon="3.23036">
        <ele>436</ele>
        <time>2020-03-10T19:24:58Z</time>
      </trkpt>
      <trkpt lat="44.23753" lon="3.23037">
        <ele>435</ele>
        <time>2020-03-10T19:25:00Z</time>
      </trkpt>
      <trkpt lat="44.23732" lon="3.23044">
        <ele>430</ele>
        <time>2020-03-10T19:25:04Z</time>
      </trkpt>
      <trkpt lat="44.23704" lon="3.23045">
        <ele>427</ele>
        <time>2020-03-10T19:25:09Z</time>
      </trkpt>
      <trkpt lat="44.23691" lon="3.23044">
        <ele>426</ele>
        <time>2020-03-10T19:25:11Z</time>
      </trkpt>
      <trkpt lat="44.23672" lon="3.23039">
        <ele>425</ele>
        <time>2020-03-10T19:25:15Z</time>
      </trkpt>
      <trkpt lat="44.23625" lon="3.23035">
        <ele>426</ele>
        <time>2020-03-10T19:25:23Z</time>
      </trkpt>
      <trkpt lat="44.23594" lon="3.2302">
        <ele>431</ele>
        <time>2020-03-10T19:25:29Z</time>
      </trkpt>
      <trkpt lat="44.23575" lon="3.23015">
        <ele>432</ele>
        <time>2020-03-10T19:25:33Z</time>
      </trkpt>
      <trkpt lat="44.23519" lon="3.23019">
        <ele>431</ele>
        <time>2020-03-10T19:25:43Z</time>
      </trkpt>
      <trkpt lat="44.23484" lon="3.23027">
        <ele>429</ele>
        <time>2020-03-10T19:25:49Z</time>
      </trkpt>
      <trkpt lat="44.23476" lon="3.23029">
        <ele>429</ele>
        <time>2020-03-10T19:25:50Z</time>
      </trkpt>
      <trkpt lat="44.23445" lon="3.23047">
        <ele>424</ele>
        <time>2020-03-10T19:25:56Z</time>
      </trkpt>
      <trkpt lat="44.23432" lon="3.23051">
        <ele>423</ele>
        <time>2020-03-10T19:25:59Z</time>
      </trkpt>
      <trkpt lat="44.23406" lon="3.23052">
        <ele>422</ele>
        <time>2020-03-10T19:26:03Z</time>
      </trkpt>
      <trkpt lat="44.23383" lon="3.23049">
        <ele>421</ele>
        <time>2020-03-10T19:26:07Z</time>
      </trkpt>
      <trkpt lat="44.23363" lon="3.2304">
        <ele>422</ele>
        <time>2020-03-10T19:26:11Z</time>
      </trkpt>
      <trkpt lat="44.2333" lon="3.23019">
        <ele>424</ele>
        <time>2020-03-10T19:26:18Z</time>
      </trkpt>
      <trkpt lat="44.23308" lon="3.23012">
        <ele>424</ele>
        <time>2020-03-10T19:26:22Z</time>
      </trkpt>
      <trkpt lat="44.23245" lon="3.23009">
        <ele>421</ele>
        <time>2020-03-10T19:26:33Z</time>
      </trkpt>
      <trkpt lat="44.23131" lon="3.22992">
        <ele>418</ele>
        <time>2020-03-10T19:26:53Z</time>
      </trkpt>
      <trkpt lat="44.23089" lon="3.22988">
        <ele>417</ele>
        <time>2020-03-10T19:27:01Z</time>
      </trkpt>
      <trkpt lat="44.23057" lon="3.22988">
        <ele>417</ele>
        <time>2020-03-10T19:27:06Z</time>
      </trkpt>
      <trkpt lat="44.23013" lon="3.22994">
        <ele>416</ele>
        <time>2020-03-10T19:27:14Z</time>
      </trkpt>
      <trkpt lat="44.22982" lon="3.22995">
        <ele>416</ele>
        <time>2020-03-10T19:27:20Z</time>
      </trkpt>
      <trkpt lat="44.22895" lon="3.22986">
        <ele>419</ele>
        <time>2020-03-10T19:27:35Z</time>
      </trkpt>
      <trkpt lat="44.22862" lon="3.22972">
        <ele>421</ele>
        <time>2020-03-10T19:27:41Z</time>
      </trkpt>
      <trkpt lat="44.2278" lon="3.22927">
        <ele>425</ele>
        <time>2020-03-10T19:27:57Z</time>
      </trkpt>
      <trkpt lat="44.2277" lon="3.22924">
        <ele>425</ele>
        <time>2020-03-10T19:27:59Z</time>
      </trkpt>
      <trkpt lat="44.22656" lon="3.22922">
        <ele>423</ele>
        <time>2020-03-10T19:28:19Z</time>
      </trkpt>
      <trkpt lat="44.22621" lon="3.22916">
        <ele>422</ele>
        <time>2020-03-10T19:28:25Z</time>
      </trkpt>
      <trkpt lat="44.22572" lon="3.22899">
        <ele>424</ele>
        <time>2020-03-10T19:28:34Z</time>
      </trkpt>
      <trkpt lat="44.22537" lon="3.22879">
        <ele>423</ele>
        <time>2020-03-10T19:28:41Z</time>
      </trkpt>
      <trkpt lat="44.22526" lon="3.22871">
        <ele>423</ele>
        <time>2020-03-10T19:28:43Z</time>
      </trkpt>
      <trkpt lat="44.22483" lon="3.22817">
        <ele>428</ele>
        <time>2020-03-10T19:28:54Z</time>
      </trkpt>
      <trkpt lat="44.22446" lon="3.22788">
        <ele>424</ele>
        <time>2020-03-10T19:29:01Z</time>
      </trkpt>
      <trkpt lat="44.2243" lon="3.2277">
        <ele>421</ele>
        <time>2020-03-10T19:29:05Z</time>
      </trkpt>
      <trkpt lat="44.22419" lon="3.22754">
        <ele>419</ele>
        <time>2020-03-10T19:29:08Z</time>
      </trkpt>
      <trkpt lat="44.22404" lon="3.22723">
        <ele>421</ele>
        <time>2020-03-10T19:29:12Z</time>
      </trkpt>
      <trkpt lat="44.22376" lon="3.22623">
        <ele>424</ele>
        <time>2020-03-10T19:29:26Z</time>
      </trkpt>
      <trkpt lat="44.22361" lon="3.22582">
        <ele>425</ele>
        <time>2020-03-10T19:29:32Z</time>
      </trkpt>
      <trkpt lat="44.22343" lon="3.22545">
        <ele>424</ele>
        <time>2020-03-10T19:29:38Z</time>
      </trkpt>
      <trkpt lat="44.2229" lon="3.2245">
        <ele>424</ele>
        <time>2020-03-10T19:29:53Z</time>
      </trkpt>
      <trkpt lat="44.22256" lon="3.22396">
        <ele>419</ele>
        <time>2020-03-10T19:30:02Z</time>
      </trkpt>
      <trkpt lat="44.22236" lon="3.22353">
        <ele>419</ele>
        <time>2020-03-10T19:30:09Z</time>
      </trkpt>
      <trkpt lat="44.22221" lon="3.22333">
        <ele>417</ele>
        <time>2020-03-10T19:30:13Z</time>
      </trkpt>
      <trkpt lat="44.22158" lon="3.22285">
        <ele>409</ele>
        <time>2020-03-10T19:30:25Z</time>
      </trkpt>
      <trkpt lat="44.22129" lon="3.2227">
        <ele>409</ele>
        <time>2020-03-10T19:30:31Z</time>
      </trkpt>
      <trkpt lat="44.22101" lon="3.22259">
        <ele>410</ele>
        <time>2020-03-10T19:30:36Z</time>
      </trkpt>
      <trkpt lat="44.2207" lon="3.22243">
        <ele>411</ele>
        <time>2020-03-10T19:30:42Z</time>
      </trkpt>
      <trkpt lat="44.22046" lon="3.22227">
        <ele>415</ele>
        <time>2020-03-10T19:30:47Z</time>
      </trkpt>
      <trkpt lat="44.22024" lon="3.22209">
        <ele>420</ele>
        <time>2020-03-10T19:30:51Z</time>
      </trkpt>
      <trkpt lat="44.22016" lon="3.22205">
        <ele>420</ele>
        <time>2020-03-10T19:30:53Z</time>
      </trkpt>
      <trkpt lat="44.22" lon="3.22204">
        <ele>420</ele>
        <time>2020-03-10T19:30:55Z</time>
      </trkpt>
      <trkpt lat="44.21976" lon="3.22213">
        <ele>419</ele>
        <time>2020-03-10T19:31:00Z</time>
      </trkpt>
      <trkpt lat="44.21926" lon="3.22235">
        <ele>414</ele>
        <time>2020-03-10T19:31:09Z</time>
      </trkpt>
      <trkpt lat="44.21877" lon="3.22253">
        <ele>415</ele>
        <time>2020-03-10T19:31:18Z</time>
      </trkpt>
      <trkpt lat="44.21836" lon="3.22259">
        <ele>419</ele>
        <time>2020-03-10T19:31:26Z</time>
      </trkpt>
      <trkpt lat="44.21816" lon="3.22265">
        <ele>423</ele>
        <time>2020-03-10T19:31:29Z</time>
      </trkpt>
      <trkpt lat="44.21773" lon="3.22282">
        <ele>430</ele>
        <time>2020-03-10T19:31:37Z</time>
      </trkpt>
      <trkpt lat="44.21764" lon="3.22286">
        <ele>431</ele>
        <time>2020-03-10T19:31:39Z</time>
      </trkpt>
      <trkpt lat="44.21734" lon="3.22309">
        <ele>428</ele>
        <time>2020-03-10T19:31:45Z</time>
      </trkpt>
      <trkpt lat="44.21709" lon="3.22325">
        <ele>426</ele>
        <time>2020-03-10T19:31:50Z</time>
      </trkpt>
      <trkpt lat="44.21691" lon="3.22334">
        <ele>425</ele>
        <time>2020-03-10T19:31:53Z</time>
      </trkpt>
      <trkpt lat="44.21686" lon="3.22336">
        <ele>426</ele>
        <time>2020-03-10T19:31:54Z</time>
      </trkpt>
      <trkpt lat="44.21658" lon="3.22338">
        <ele>430</ele>
        <time>2020-03-10T19:31:59Z</time>
      </trkpt>
      <trkpt lat="44.21636" lon="3.22343">
        <ele>431</ele>
        <time>2020-03-10T19:32:03Z</time>
      </trkpt>
      <trkpt lat="44.21543" lon="3.2239">
        <ele>424</ele>
        <time>2020-03-10T19:32:21Z</time>
      </trkpt>
      <trkpt lat="44.21515" lon="3.224">
        <ele>425</ele>
        <time>2020-03-10T19:32:26Z</time>
      </trkpt>
      <trkpt lat="44.21479" lon="3.2242">
        <ele>418</ele>
        <time>2020-03-10T19:32:33Z</time>
      </trkpt>
      <trkpt lat="44.21457" lon="3.22426">
        <ele>416</ele>
        <time>2020-03-10T19:32:37Z</time>
      </trkpt>
      <trkpt lat="44.21421" lon="3.22431">
        <ele>414</ele>
        <time>2020-03-10T19:32:43Z</time>
      </trkpt>
      <trkpt lat="44.21407" lon="3.22431">
        <ele>414</ele>
        <time>2020-03-10T19:32:46Z</time>
      </trkpt>
      <trkpt lat="44.21369" lon="3.22423">
        <ele>417</ele>
        <time>2020-03-10T19:32:52Z</time>
      </trkpt>
      <trkpt lat="44.21314" lon="3.22424">
        <ele>417</ele>
        <time>2020-03-10T19:33:02Z</time>
      </trkpt>
      <trkpt lat="44.21296" lon="3.22419">
        <ele>415</ele>
        <time>2020-03-10T19:33:06Z</time>
      </trkpt>
      <trkpt lat="44.21263" lon="3.22394">
        <ele>418</ele>
        <time>2020-03-10T19:33:12Z</time>
      </trkpt>
      <trkpt lat="44.21239" lon="3.22381">
        <ele>419</ele>
        <time>2020-03-10T19:33:17Z</time>
      </trkpt>
      <trkpt lat="44.212" lon="3.22344">
        <ele>422</ele>
        <time>2020-03-10T19:33:25Z</time>
      </trkpt>
      <trkpt lat="44.21192" lon="3.22338">
        <ele>421</ele>
        <time>2020-03-10T19:33:27Z</time>
      </trkpt>
      <trkpt lat="44.2116" lon="3.22325">
        <ele>420</ele>
        <time>2020-03-10T19:33:33Z</time>
      </trkpt>
      <trkpt lat="44.21147" lon="3.22316">
        <ele>421</ele>
        <time>2020-03-10T19:33:35Z</time>
      </trkpt>
      <trkpt lat="44.21093" lon="3.22273">
        <ele>425</ele>
        <time>2020-03-10T19:33:46Z</time>
      </trkpt>
      <trkpt lat="44.21046" lon="3.22248">
        <ele>420</ele>
        <time>2020-03-10T19:33:55Z</time>
      </trkpt>
      <trkpt lat="44.2102" lon="3.22223">
        <ele>423</ele>
        <time>2020-03-10T19:34:01Z</time>
      </trkpt>
      <trkpt lat="44.21007" lon="3.22214">
        <ele>422</ele>
        <time>2020-03-10T19:34:04Z</time>
      </trkpt>
      <trkpt lat="44.20965" lon="3.22188">
        <ele>421</ele>
        <time>2020-03-10T19:34:12Z</time>
      </trkpt>
      <trkpt lat="44.20956" lon="3.22181">
        <ele>421</ele>
        <time>2020-03-10T19:34:14Z</time>
      </trkpt>
      <trkpt lat="44.20935" lon="3.22156">
        <ele>421</ele>
        <time>2020-03-10T19:34:18Z</time>
      </trkpt>
      <trkpt lat="44.20926" lon="3.22147">
        <ele>421</ele>
        <time>2020-03-10T19:34:20Z</time>
      </trkpt>
      <trkpt lat="44.20905" lon="3.22133">
        <ele>421</ele>
        <time>2020-03-10T19:34:25Z</time>
      </trkpt>
      <trkpt lat="44.20872" lon="3.22098">
        <ele>424</ele>
        <time>2020-03-10T19:34:32Z</time>
      </trkpt>
      <trkpt lat="44.20853" lon="3.22086">
        <ele>422</ele>
        <time>2020-03-10T19:34:36Z</time>
      </trkpt>
      <trkpt lat="44.20822" lon="3.22074">
        <ele>418</ele>
        <time>2020-03-10T19:34:41Z</time>
      </trkpt>
      <trkpt lat="44.20801" lon="3.22061">
        <ele>416</ele>
        <time>2020-03-10T19:34:45Z</time>
      </trkpt>
      <trkpt lat="44.20782" lon="3.22026">
        <ele>421</ele>
        <time>2020-03-10T19:34:51Z</time>
      </trkpt>
      <trkpt lat="44.20776" lon="3.22018">
        <ele>421</ele>
        <time>2020-03-10T19:34:53Z</time>
      </trkpt>
      <trkpt lat="44.20768" lon="3.22011">
        <ele>420</ele>
        <time>2020-03-10T19:34:54Z</time>
      </trkpt>
      <trkpt lat="44.20759" lon="3.22005">
        <ele>418</ele>
        <time>2020-03-10T19:34:56Z</time>
      </trkpt>
      <trkpt lat="44.20729" lon="3.21993">
        <ele>414</ele>
        <time>2020-03-10T19:35:02Z</time>
      </trkpt>
      <trkpt lat="44.20706" lon="3.21977">
        <ele>413</ele>
        <time>2020-03-10T19:35:06Z</time>
      </trkpt>
      <trkpt lat="44.20677" lon="3.21968">
        <ele>409</ele>
        <time>2020-03-10T19:35:11Z</time>
      </trkpt>
      <trkpt lat="44.20665" lon="3.21962">
        <ele>407</ele>
        <time>2020-03-10T19:35:14Z</time>
      </trkpt>
      <trkpt lat="44.20655" lon="3.21954">
        <ele>408</ele>
        <time>2020-03-10T19:35:16Z</time>
      </trkpt>
      <trkpt lat="44.20628" lon="3.21924">
        <ele>410</ele>
        <time>2020-03-10T19:35:22Z</time>
      </trkpt>
      <trkpt lat="44.20618" lon="3.21917">
        <ele>410</ele>
        <time>2020-03-10T19:35:24Z</time>
      </trkpt>
      <trkpt lat="44.20609" lon="3.21913">
        <ele>409</ele>
        <time>2020-03-10T19:35:26Z</time>
      </trkpt>
      <trkpt lat="44.206" lon="3.21912">
        <ele>408</ele>
        <time>2020-03-10T19:35:27Z</time>
      </trkpt>
      <trkpt lat="44.20568" lon="3.21915">
        <ele>403</ele>
        <time>2020-03-10T19:35:33Z</time>
      </trkpt>
      <trkpt lat="44.2055" lon="3.21907">
        <ele>403</ele>
        <time>2020-03-10T19:35:36Z</time>
      </trkpt>
      <trkpt lat="44.20526" lon="3.21891">
        <ele>402</ele>
        <time>2020-03-10T19:35:41Z</time>
      </trkpt>
      <trkpt lat="44.20515" lon="3.21881">
        <ele>402</ele>
        <time>2020-03-10T19:35:43Z</time>
      </trkpt>
      <trkpt lat="44.20489" lon="3.21841">
        <ele>402</ele>
        <time>2020-03-10T19:35:50Z</time>
      </trkpt>
      <trkpt lat="44.20468" lon="3.21819">
        <ele>402</ele>
        <time>2020-03-10T19:35:55Z</time>
      </trkpt>
      <trkpt lat="44.20409" lon="3.21764">
        <ele>402</ele>
        <time>2020-03-10T19:36:07Z</time>
      </trkpt>
      <trkpt lat="44.20376" lon="3.2171">
        <ele>406</ele>
        <time>2020-03-10T19:36:17Z</time>
      </trkpt>
      <trkpt lat="44.20358" lon="3.21686">
        <ele>406</ele>
        <time>2020-03-10T19:36:21Z</time>
      </trkpt>
      <trkpt lat="44.20331" lon="3.21627">
        <ele>410</ele>
        <time>2020-03-10T19:36:30Z</time>
      </trkpt>
      <trkpt lat="44.20319" lon="3.21605">
        <ele>413</ele>
        <time>2020-03-10T19:36:33Z</time>
      </trkpt>
      <trkpt lat="44.20295" lon="3.2157">
        <ele>416</ele>
        <time>2020-03-10T19:36:40Z</time>
      </trkpt>
      <trkpt lat="44.20236" lon="3.21501">
        <ele>417</ele>
        <time>2020-03-10T19:36:53Z</time>
      </trkpt>
      <trkpt lat="44.20207" lon="3.21475">
        <ele>421</ele>
        <time>2020-03-10T19:36:59Z</time>
      </trkpt>
      <trkpt lat="44.20195" lon="3.21467">
        <ele>421</ele>
        <time>2020-03-10T19:37:02Z</time>
      </trkpt>
      <trkpt lat="44.20179" lon="3.21454">
        <ele>422</ele>
        <time>2020-03-10T19:37:05Z</time>
      </trkpt>
      <trkpt lat="44.20167" lon="3.21446">
        <ele>422</ele>
        <time>2020-03-10T19:37:07Z</time>
      </trkpt>
      <trkpt lat="44.20135" lon="3.21436">
        <ele>421</ele>
        <time>2020-03-10T19:37:13Z</time>
      </trkpt>
      <trkpt lat="44.20115" lon="3.21422">
        <ele>422</ele>
        <time>2020-03-10T19:37:17Z</time>
      </trkpt>
      <trkpt lat="44.20077" lon="3.21414">
        <ele>418</ele>
        <time>2020-03-10T19:37:24Z</time>
      </trkpt>
      <trkpt lat="44.20063" lon="3.21414">
        <ele>417</ele>
        <time>2020-03-10T19:37:27Z</time>
      </trkpt>
      <trkpt lat="44.20045" lon="3.21413">
        <ele>415</ele>
        <time>2020-03-10T19:37:30Z</time>
      </trkpt>
      <trkpt lat="44.20032" lon="3.21412">
        <ele>413</ele>
        <time>2020-03-10T19:37:32Z</time>
      </trkpt>
      <trkpt lat="44.20014" lon="3.2141">
        <ele>412</ele>
        <time>2020-03-10T19:37:35Z</time>
      </trkpt>
      <trkpt lat="44.19941" lon="3.21393">
        <ele>412</ele>
        <time>2020-03-10T19:37:49Z</time>
      </trkpt>
      <trkpt lat="44.19913" lon="3.21381">
        <ele>414</ele>
        <time>2020-03-10T19:37:54Z</time>
      </trkpt>
      <trkpt lat="44.19866" lon="3.21351">
        <ele>413</ele>
        <time>2020-03-10T19:38:03Z</time>
      </trkpt>
      <trkpt lat="44.19838" lon="3.21333">
        <ele>408</ele>
        <time>2020-03-10T19:38:08Z</time>
      </trkpt>
      <trkpt lat="44.19832" lon="3.2133">
        <ele>408</ele>
        <time>2020-03-10T19:38:10Z</time>
      </trkpt>
      <trkpt lat="44.19804" lon="3.2131">
        <ele>412</ele>
        <time>2020-03-10T19:38:15Z</time>
      </trkpt>
      <trkpt lat="44.19778" lon="3.21292">
        <ele>413</ele>
        <time>2020-03-10T19:38:20Z</time>
      </trkpt>
      <trkpt lat="44.19764" lon="3.2128">
        <ele>412</ele>
        <time>2020-03-10T19:38:23Z</time>
      </trkpt>
      <trkpt lat="44.19722" lon="3.21236">
        <ele>412</ele>
        <time>2020-03-10T19:38:33Z</time>
      </trkpt>
      <trkpt lat="44.19701" lon="3.21216">
        <ele>412</ele>
        <time>2020-03-10T19:38:37Z</time>
      </trkpt>
      <trkpt lat="44.19684" lon="3.21204">
        <ele>411</ele>
        <time>2020-03-10T19:38:40Z</time>
      </trkpt>
      <trkpt lat="44.19654" lon="3.21185">
        <ele>409</ele>
        <time>2020-03-10T19:38:46Z</time>
      </trkpt>
      <trkpt lat="44.19606" lon="3.21167">
        <ele>402</ele>
        <time>2020-03-10T19:38:55Z</time>
      </trkpt>
      <trkpt lat="44.19593" lon="3.21156">
        <ele>402</ele>
        <time>2020-03-10T19:38:58Z</time>
      </trkpt>
      <trkpt lat="44.19537" lon="3.21084">
        <ele>399</ele>
        <time>2020-03-10T19:39:11Z</time>
      </trkpt>
      <trkpt lat="44.19527" lon="3.21063">
        <ele>399</ele>
        <time>2020-03-10T19:39:15Z</time>
      </trkpt>
      <trkpt lat="44.19504" lon="3.20995">
        <ele>399</ele>
        <time>2020-03-10T19:39:24Z</time>
      </trkpt>
      <trkpt lat="44.19486" lon="3.20943">
        <ele>398</ele>
        <time>2020-03-10T19:39:32Z</time>
      </trkpt>
      <trkpt lat="44.19484" lon="3.20935">
        <ele>398</ele>
        <time>2020-03-10T19:39:33Z</time>
      </trkpt>
      <trkpt lat="44.19478" lon="3.20914">
        <ele>397</ele>
        <time>2020-03-10T19:39:36Z</time>
      </trkpt>
      <trkpt lat="44.19472" lon="3.20871">
        <ele>399</ele>
        <time>2020-03-10T19:39:41Z</time>
      </trkpt>
      <trkpt lat="44.19462" lon="3.20805">
        <ele>401</ele>
        <time>2020-03-10T19:39:50Z</time>
      </trkpt>
      <trkpt lat="44.1946" lon="3.2079">
        <ele>401</ele>
        <time>2020-03-10T19:39:52Z</time>
      </trkpt>
      <trkpt lat="44.19457" lon="3.2077">
        <ele>401</ele>
        <time>2020-03-10T19:39:54Z</time>
      </trkpt>
      <trkpt lat="44.19456" lon="3.20763">
        <ele>401</ele>
        <time>2020-03-10T19:39:55Z</time>
      </trkpt>
      <trkpt lat="44.19455" lon="3.20755">
        <ele>401</ele>
        <time>2020-03-10T19:39:56Z</time>
      </trkpt>
      <trkpt lat="44.19452" lon="3.20732">
        <ele>400</ele>
        <time>2020-03-10T19:39:59Z</time>
      </trkpt>
      <trkpt lat="44.1945" lon="3.20699">
        <ele>399</ele>
        <time>2020-03-10T19:40:03Z</time>
      </trkpt>
      <trkpt lat="44.1945" lon="3.20684">
        <ele>398</ele>
        <time>2020-03-10T19:40:05Z</time>
      </trkpt>
      <trkpt lat="44.19451" lon="3.20669">
        <ele>398</ele>
        <time>2020-03-10T19:40:07Z</time>
      </trkpt>
      <trkpt lat="44.19459" lon="3.20604">
        <ele>397</ele>
        <time>2020-03-10T19:40:16Z</time>
      </trkpt>
      <trkpt lat="44.19455" lon="3.20557">
        <ele>396</ele>
        <time>2020-03-10T19:40:22Z</time>
      </trkpt>
      <trkpt lat="44.19446" lon="3.20501">
        <ele>395</ele>
        <time>2020-03-10T19:40:29Z</time>
      </trkpt>
      <trkpt lat="44.19447" lon="3.20482">
        <ele>395</ele>
        <time>2020-03-10T19:40:32Z</time>
      </trkpt>
      <trkpt lat="44.19449" lon="3.20473">
        <ele>395</ele>
        <time>2020-03-10T19:40:33Z</time>
      </trkpt>
      <trkpt lat="44.19456" lon="3.20455">
        <ele>396</ele>
        <time>2020-03-10T19:40:35Z</time>
      </trkpt>
      <trkpt lat="44.19469" lon="3.20426">
        <ele>398</ele>
        <time>2020-03-10T19:40:40Z</time>
      </trkpt>
      <trkpt lat="44.19479" lon="3.20421">
        <ele>399</ele>
        <time>2020-03-10T19:40:42Z</time>
      </trkpt>
      <trkpt lat="44.19488" lon="3.20412">
        <ele>400</ele>
        <time>2020-03-10T19:40:44Z</time>
      </trkpt>
      <trkpt lat="44.19494" lon="3.20401">
        <ele>401</ele>
        <time>2020-03-10T19:40:45Z</time>
      </trkpt>
      <trkpt lat="44.19498" lon="3.20388">
        <ele>401</ele>
        <time>2020-03-10T19:40:47Z</time>
      </trkpt>
      <trkpt lat="44.19508" lon="3.20342">
        <ele>404</ele>
        <time>2020-03-10T19:40:53Z</time>
      </trkpt>
      <trkpt lat="44.19524" lon="3.20297">
        <ele>407</ele>
        <time>2020-03-10T19:41:00Z</time>
      </trkpt>
      <trkpt lat="44.19535" lon="3.20243">
        <ele>407</ele>
        <time>2020-03-10T19:41:07Z</time>
      </trkpt>
      <trkpt lat="44.19541" lon="3.20226">
        <ele>408</ele>
        <time>2020-03-10T19:41:09Z</time>
      </trkpt>
      <trkpt lat="44.19563" lon="3.20183">
        <ele>411</ele>
        <time>2020-03-10T19:41:16Z</time>
      </trkpt>
      <trkpt lat="44.19573" lon="3.20168">
        <ele>413</ele>
        <time>2020-03-10T19:41:19Z</time>
      </trkpt>
      <trkpt lat="44.1958" lon="3.20163">
        <ele>414</ele>
        <time>2020-03-10T19:41:20Z</time>
      </trkpt>
      <trkpt lat="44.19603" lon="3.20157">
        <ele>419</ele>
        <time>2020-03-10T19:41:24Z</time>
      </trkpt>
      <trkpt lat="44.19616" lon="3.20148">
        <ele>422</ele>
        <time>2020-03-10T19:41:27Z</time>
      </trkpt>
      <trkpt lat="44.1962" lon="3.20148">
        <ele>423</ele>
        <time>2020-03-10T19:41:27Z</time>
      </trkpt>
      <trkpt lat="44.19642" lon="3.20131">
        <ele>428</ele>
        <time>2020-03-10T19:41:32Z</time>
      </trkpt>
      <trkpt lat="44.19647" lon="3.20126">
        <ele>429</ele>
        <time>2020-03-10T19:41:33Z</time>
      </trkpt>
      <trkpt lat="44.1965" lon="3.20118">
        <ele>430</ele>
        <time>2020-03-10T19:41:34Z</time>
      </trkpt>
      <trkpt lat="44.19662" lon="3.20072">
        <ele>429</ele>
        <time>2020-03-10T19:41:40Z</time>
      </trkpt>
      <trkpt lat="44.19669" lon="3.2006">
        <ele>429</ele>
        <time>2020-03-10T19:41:42Z</time>
      </trkpt>
      <trkpt lat="44.1968" lon="3.2005">
        <ele>431</ele>
        <time>2020-03-10T19:41:45Z</time>
      </trkpt>
      <trkpt lat="44.19696" lon="3.20039">
        <ele>433</ele>
        <time>2020-03-10T19:41:48Z</time>
      </trkpt>
      <trkpt lat="44.19712" lon="3.2003">
        <ele>435</ele>
        <time>2020-03-10T19:41:51Z</time>
      </trkpt>
      <trkpt lat="44.19729" lon="3.20018">
        <ele>438</ele>
        <time>2020-03-10T19:41:54Z</time>
      </trkpt>
      <trkpt lat="44.1974" lon="3.20013">
        <ele>440</ele>
        <time>2020-03-10T19:41:56Z</time>
      </trkpt>
      <trkpt lat="44.19755" lon="3.2001">
        <ele>442</ele>
        <time>2020-03-10T19:41:59Z</time>
      </trkpt>
      <trkpt lat="44.19802" lon="3.20011">
        <ele>452</ele>
        <time>2020-03-10T19:42:07Z</time>
      </trkpt>
      <trkpt lat="44.19814" lon="3.20009">
        <ele>455</ele>
        <time>2020-03-10T19:42:10Z</time>
      </trkpt>
      <trkpt lat="44.19825" lon="3.20004">
        <ele>456</ele>
        <time>2020-03-10T19:42:12Z</time>
      </trkpt>
      <trkpt lat="44.19835" lon="3.19998">
        <ele>457</ele>
        <time>2020-03-10T19:42:14Z</time>
      </trkpt>
      <trkpt lat="44.1984" lon="3.19991">
        <ele>458</ele>
        <time>2020-03-10T19:42:15Z</time>
      </trkpt>
      <trkpt lat="44.19845" lon="3.19979">
        <ele>458</ele>
        <time>2020-03-10T19:42:17Z</time>
      </trkpt>
      <trkpt lat="44.19845" lon="3.19974">
        <ele>458</ele>
        <time>2020-03-10T19:42:17Z</time>
      </trkpt>
      <trkpt lat="44.19849" lon="3.19939">
        <ele>455</ele>
        <time>2020-03-10T19:42:22Z</time>
      </trkpt>
      <trkpt lat="44.19854" lon="3.19926">
        <ele>455</ele>
        <time>2020-03-10T19:42:24Z</time>
      </trkpt>
      <trkpt lat="44.1986" lon="3.19916">
        <ele>456</ele>
        <time>2020-03-10T19:42:25Z</time>
      </trkpt>
      <trkpt lat="44.19913" lon="3.19869">
        <ele>460</ele>
        <time>2020-03-10T19:42:37Z</time>
      </trkpt>
      <trkpt lat="44.19928" lon="3.19863">
        <ele>463</ele>
        <time>2020-03-10T19:42:39Z</time>
      </trkpt>
      <trkpt lat="44.19969" lon="3.19853">
        <ele>471</ele>
        <time>2020-03-10T19:42:47Z</time>
      </trkpt>
      <trkpt lat="44.19988" lon="3.19845">
        <ele>473</ele>
        <time>2020-03-10T19:42:50Z</time>
      </trkpt>
      <trkpt lat="44.2" lon="3.19837">
        <ele>474</ele>
        <time>2020-03-10T19:42:53Z</time>
      </trkpt>
      <trkpt lat="44.20011" lon="3.19828">
        <ele>476</ele>
        <time>2020-03-10T19:42:55Z</time>
      </trkpt>
      <trkpt lat="44.20018" lon="3.19819">
        <ele>477</ele>
        <time>2020-03-10T19:42:57Z</time>
      </trkpt>
      <trkpt lat="44.2003" lon="3.19795">
        <ele>478</ele>
        <time>2020-03-10T19:43:00Z</time>
      </trkpt>
      <trkpt lat="44.20047" lon="3.19747">
        <ele>480</ele>
        <time>2020-03-10T19:43:07Z</time>
      </trkpt>
      <trkpt lat="44.20047" lon="3.19733">
        <ele>480</ele>
        <time>2020-03-10T19:43:09Z</time>
      </trkpt>
      <trkpt lat="44.20044" lon="3.19722">
        <ele>480</ele>
        <time>2020-03-10T19:43:10Z</time>
      </trkpt>
      <trkpt lat="44.20037" lon="3.19704">
        <ele>479</ele>
        <time>2020-03-10T19:43:13Z</time>
      </trkpt>
      <trkpt lat="44.20032" lon="3.19686">
        <ele>478</ele>
        <time>2020-03-10T19:43:15Z</time>
      </trkpt>
      <trkpt lat="44.20033" lon="3.19674">
        <ele>479</ele>
        <time>2020-03-10T19:43:17Z</time>
      </trkpt>
      <trkpt lat="44.20037" lon="3.19664">
        <ele>480</ele>
        <time>2020-03-10T19:43:19Z</time>
      </trkpt>
      <trkpt lat="44.20054" lon="3.19626">
        <ele>483</ele>
        <time>2020-03-10T19:43:24Z</time>
      </trkpt>
      <trkpt lat="44.2006" lon="3.19617">
        <ele>484</ele>
        <time>2020-03-10T19:43:26Z</time>
      </trkpt>
      <trkpt lat="44.2007" lon="3.19584">
        <ele>485</ele>
        <time>2020-03-10T19:43:30Z</time>
      </trkpt>
      <trkpt lat="44.20077" lon="3.19567">
        <ele>484</ele>
        <time>2020-03-10T19:43:33Z</time>
      </trkpt>
      <trkpt lat="44.20086" lon="3.19553">
        <ele>484</ele>
        <time>2020-03-10T19:43:35Z</time>
      </trkpt>
      <trkpt lat="44.20138" lon="3.19512">
        <ele>490</ele>
        <time>2020-03-10T19:43:46Z</time>
      </trkpt>
      <trkpt lat="44.2017" lon="3.19476">
        <ele>494</ele>
        <time>2020-03-10T19:43:53Z</time>
      </trkpt>
      <trkpt lat="44.20172" lon="3.19473">
        <ele>494</ele>
        <time>2020-03-10T19:43:54Z</time>
      </trkpt>
      <trkpt lat="44.20179" lon="3.19468">
        <ele>495</ele>
        <time>2020-03-10T19:43:55Z</time>
      </trkpt>
      <trkpt lat="44.20189" lon="3.19447">
        <ele>496</ele>
        <time>2020-03-10T19:43:58Z</time>
      </trkpt>
      <trkpt lat="44.20212" lon="3.19417">
        <ele>498</ele>
        <time>2020-03-10T19:44:04Z</time>
      </trkpt>
      <trkpt lat="44.20224" lon="3.19405">
        <ele>499</ele>
        <time>2020-03-10T19:44:07Z</time>
      </trkpt>
      <trkpt lat="44.20231" lon="3.19395">
        <ele>499</ele>
        <time>2020-03-10T19:44:08Z</time>
      </trkpt>
      <trkpt lat="44.2024" lon="3.19385">
        <ele>500</ele>
        <time>2020-03-10T19:44:10Z</time>
      </trkpt>
      <trkpt lat="44.20251" lon="3.19374">
        <ele>500</ele>
        <time>2020-03-10T19:44:13Z</time>
      </trkpt>
      <trkpt lat="44.20258" lon="3.19365">
        <ele>499</ele>
        <time>2020-03-10T19:44:14Z</time>
      </trkpt>
      <trkpt lat="44.20268" lon="3.19351">
        <ele>498</ele>
        <time>2020-03-10T19:44:17Z</time>
      </trkpt>
      <trkpt lat="44.20274" lon="3.19347">
        <ele>497</ele>
        <time>2020-03-10T19:44:18Z</time>
      </trkpt>
      <trkpt lat="44.20281" lon="3.1934">
        <ele>497</ele>
        <time>2020-03-10T19:44:20Z</time>
      </trkpt>
      <trkpt lat="44.20291" lon="3.19332">
        <ele>496</ele>
        <time>2020-03-10T19:44:22Z</time>
      </trkpt>
      <trkpt lat="44.20297" lon="3.19327">
        <ele>496</ele>
        <time>2020-03-10T19:44:23Z</time>
      </trkpt>
      <trkpt lat="44.20313" lon="3.19309">
        <ele>494</ele>
        <time>2020-03-10T19:44:27Z</time>
      </trkpt>
      <trkpt lat="44.2031" lon="3.19305">
        <ele>493</ele>
        <time>2020-03-10T19:44:27Z</time>
      </trkpt>
      <trkpt lat="44.20313" lon="3.19307">
        <ele>494</ele>
        <time>2020-03-10T19:44:28Z</time>
      </trkpt>
      <trkpt lat="44.20349" lon="3.19297">
        <ele>492</ele>
        <time>2020-03-10T19:44:35Z</time>
      </trkpt>
      <trkpt lat="44.20362" lon="3.19298">
        <ele>491</ele>
        <time>2020-03-10T19:44:37Z</time>
      </trkpt>
      <trkpt lat="44.20374" lon="3.19311">
        <ele>492</ele>
        <time>2020-03-10T19:44:40Z</time>
      </trkpt>
      <trkpt lat="44.20399" lon="3.19351">
        <ele>497</ele>
        <time>2020-03-10T19:44:46Z</time>
      </trkpt>
      <trkpt lat="44.20409" lon="3.19361">
        <ele>498</ele>
        <time>2020-03-10T19:44:49Z</time>
      </trkpt>
      <trkpt lat="44.20433" lon="3.19372">
        <ele>500</ele>
        <time>2020-03-10T19:44:53Z</time>
      </trkpt>
      <trkpt lat="44.20488" lon="3.19383">
        <ele>502</ele>
        <time>2020-03-10T19:45:03Z</time>
      </trkpt>
      <trkpt lat="44.20519" lon="3.19401">
        <ele>507</ele>
        <time>2020-03-10T19:45:09Z</time>
      </trkpt>
      <trkpt lat="44.20544" lon="3.19402">
        <ele>511</ele>
        <time>2020-03-10T19:45:13Z</time>
      </trkpt>
      <trkpt lat="44.20576" lon="3.19397">
        <ele>514</ele>
        <time>2020-03-10T19:45:19Z</time>
      </trkpt>
      <trkpt lat="44.20599" lon="3.19378">
        <ele>518</ele>
        <time>2020-03-10T19:45:24Z</time>
      </trkpt>
      <trkpt lat="44.20604" lon="3.1936">
        <ele>517</ele>
        <time>2020-03-10T19:45:26Z</time>
      </trkpt>
      <trkpt lat="44.20605" lon="3.19347">
        <ele>516</ele>
        <time>2020-03-10T19:45:28Z</time>
      </trkpt>
      <trkpt lat="44.20593" lon="3.19288">
        <ele>509</ele>
        <time>2020-03-10T19:45:36Z</time>
      </trkpt>
      <trkpt lat="44.20594" lon="3.19262">
        <ele>508</ele>
        <time>2020-03-10T19:45:39Z</time>
      </trkpt>
      <trkpt lat="44.20597" lon="3.19244">
        <ele>507</ele>
        <time>2020-03-10T19:45:41Z</time>
      </trkpt>
      <trkpt lat="44.2061" lon="3.1923">
        <ele>507</ele>
        <time>2020-03-10T19:45:44Z</time>
      </trkpt>
      <trkpt lat="44.20629" lon="3.19221">
        <ele>509</ele>
        <time>2020-03-10T19:45:48Z</time>
      </trkpt>
      <trkpt lat="44.20646" lon="3.19225">
        <ele>512</ele>
        <time>2020-03-10T19:45:51Z</time>
      </trkpt>
      <trkpt lat="44.2067" lon="3.19249">
        <ele>520</ele>
        <time>2020-03-10T19:45:56Z</time>
      </trkpt>
      <trkpt lat="44.20684" lon="3.19258">
        <ele>522</ele>
        <time>2020-03-10T19:45:59Z</time>
      </trkpt>
      <trkpt lat="44.20704" lon="3.19265">
        <ele>525</ele>
        <time>2020-03-10T19:46:03Z</time>
      </trkpt>
      <trkpt lat="44.20728" lon="3.1926">
        <ele>526</ele>
        <time>2020-03-10T19:46:07Z</time>
      </trkpt>
      <trkpt lat="44.20826" lon="3.19177">
        <ele>530</ele>
        <time>2020-03-10T19:46:27Z</time>
      </trkpt>
      <trkpt lat="44.20832" lon="3.19165">
        <ele>530</ele>
        <time>2020-03-10T19:46:29Z</time>
      </trkpt>
      <trkpt lat="44.20846" lon="3.19129">
        <ele>528</ele>
        <time>2020-03-10T19:46:34Z</time>
      </trkpt>
      <trkpt lat="44.20853" lon="3.19115">
        <ele>528</ele>
        <time>2020-03-10T19:46:37Z</time>
      </trkpt>
      <trkpt lat="44.20934" lon="3.19023">
        <ele>530</ele>
        <time>2020-03-10T19:46:55Z</time>
      </trkpt>
      <trkpt lat="44.20938" lon="3.19012">
        <ele>529</ele>
        <time>2020-03-10T19:46:57Z</time>
      </trkpt>
      <trkpt lat="44.20954" lon="3.19009">
        <ele>529</ele>
        <time>2020-03-10T19:47:00Z</time>
      </trkpt>
      <trkpt lat="44.20966" lon="3.19012">
        <ele>530</ele>
        <time>2020-03-10T19:47:02Z</time>
      </trkpt>
      <trkpt lat="44.20977" lon="3.19018">
        <ele>532</ele>
        <time>2020-03-10T19:47:04Z</time>
      </trkpt>
      <trkpt lat="44.21013" lon="3.19049">
        <ele>540</ele>
        <time>2020-03-10T19:47:11Z</time>
      </trkpt>
      <trkpt lat="44.21023" lon="3.19052">
        <ele>542</ele>
        <time>2020-03-10T19:47:13Z</time>
      </trkpt>
      <trkpt lat="44.2103" lon="3.19051">
        <ele>542</ele>
        <time>2020-03-10T19:47:15Z</time>
      </trkpt>
      <trkpt lat="44.21041" lon="3.19041">
        <ele>541</ele>
        <time>2020-03-10T19:47:17Z</time>
      </trkpt>
      <trkpt lat="44.21073" lon="3.18987">
        <ele>534</ele>
        <time>2020-03-10T19:47:26Z</time>
      </trkpt>
      <trkpt lat="44.21081" lon="3.18982">
        <ele>534</ele>
        <time>2020-03-10T19:47:27Z</time>
      </trkpt>
      <trkpt lat="44.21089" lon="3.18981">
        <ele>534</ele>
        <time>2020-03-10T19:47:29Z</time>
      </trkpt>
      <trkpt lat="44.21095" lon="3.18986">
        <ele>535</ele>
        <time>2020-03-10T19:47:30Z</time>
      </trkpt>
      <trkpt lat="44.21103" lon="3.18995">
        <ele>537</ele>
        <time>2020-03-10T19:47:32Z</time>
      </trkpt>
      <trkpt lat="44.21119" lon="3.19019">
        <ele>542</ele>
        <time>2020-03-10T19:47:36Z</time>
      </trkpt>
      <trkpt lat="44.21141" lon="3.19038">
        <ele>547</ele>
        <time>2020-03-10T19:47:41Z</time>
      </trkpt>
      <trkpt lat="44.2116" lon="3.19047">
        <ele>550</ele>
        <time>2020-03-10T19:47:44Z</time>
      </trkpt>
      <trkpt lat="44.21186" lon="3.1905">
        <ele>555</ele>
        <time>2020-03-10T19:47:49Z</time>
      </trkpt>
      <trkpt lat="44.21198" lon="3.19049">
        <ele>558</ele>
        <time>2020-03-10T19:47:51Z</time>
      </trkpt>
      <trkpt lat="44.21213" lon="3.19045">
        <ele>560</ele>
        <time>2020-03-10T19:47:54Z</time>
      </trkpt>
      <trkpt lat="44.21234" lon="3.19027">
        <ele>560</ele>
        <time>2020-03-10T19:47:58Z</time>
      </trkpt>
      <trkpt lat="44.21287" lon="3.18944">
        <ele>554</ele>
        <time>2020-03-10T19:48:12Z</time>
      </trkpt>
      <trkpt lat="44.21297" lon="3.18934">
        <ele>554</ele>
        <time>2020-03-10T19:48:14Z</time>
      </trkpt>
      <trkpt lat="44.21341" lon="3.18916">
        <ele>561</ele>
        <time>2020-03-10T19:48:23Z</time>
      </trkpt>
      <trkpt lat="44.21379" lon="3.18874">
        <ele>563</ele>
        <time>2020-03-10T19:48:31Z</time>
      </trkpt>
      <trkpt lat="44.21391" lon="3.18867">
        <ele>565</ele>
        <time>2020-03-10T19:48:34Z</time>
      </trkpt>
      <trkpt lat="44.21411" lon="3.18859">
        <ele>568</ele>
        <time>2020-03-10T19:48:37Z</time>
      </trkpt>
      <trkpt lat="44.21428" lon="3.18841">
        <ele>570</ele>
        <time>2020-03-10T19:48:41Z</time>
      </trkpt>
      <trkpt lat="44.21449" lon="3.18811">
        <ele>573</ele>
        <time>2020-03-10T19:48:46Z</time>
      </trkpt>
      <trkpt lat="44.21473" lon="3.18742">
        <ele>568</ele>
        <time>2020-03-10T19:48:56Z</time>
      </trkpt>
      <trkpt lat="44.21502" lon="3.18696">
        <ele>566</ele>
        <time>2020-03-10T19:49:04Z</time>
      </trkpt>
      <trkpt lat="44.21523" lon="3.18674">
        <ele>566</ele>
        <time>2020-03-10T19:49:09Z</time>
      </trkpt>
      <trkpt lat="44.21534" lon="3.18659">
        <ele>565</ele>
        <time>2020-03-10T19:49:11Z</time>
      </trkpt>
      <trkpt lat="44.21551" lon="3.1865">
        <ele>568</ele>
        <time>2020-03-10T19:49:15Z</time>
      </trkpt>
      <trkpt lat="44.21565" lon="3.18649">
        <ele>572</ele>
        <time>2020-03-10T19:49:17Z</time>
      </trkpt>
      <trkpt lat="44.21576" lon="3.18651">
        <ele>576</ele>
        <time>2020-03-10T19:49:19Z</time>
      </trkpt>
      <trkpt lat="44.21596" lon="3.18649">
        <ele>581</ele>
        <time>2020-03-10T19:49:23Z</time>
      </trkpt>
      <trkpt lat="44.21646" lon="3.18625">
        <ele>584</ele>
        <time>2020-03-10T19:49:32Z</time>
      </trkpt>
      <trkpt lat="44.21669" lon="3.18621">
        <ele>587</ele>
        <time>2020-03-10T19:49:36Z</time>
      </trkpt>
      <trkpt lat="44.21691" lon="3.1862">
        <ele>587</ele>
        <time>2020-03-10T19:49:40Z</time>
      </trkpt>
      <trkpt lat="44.21709" lon="3.18621">
        <ele>588</ele>
        <time>2020-03-10T19:49:43Z</time>
      </trkpt>
      <trkpt lat="44.21795" lon="3.18649">
        <ele>596</ele>
        <time>2020-03-10T19:49:59Z</time>
      </trkpt>
      <trkpt lat="44.21804" lon="3.18655">
        <ele>597</ele>
        <time>2020-03-10T19:50:01Z</time>
      </trkpt>
      <trkpt lat="44.2182" lon="3.18687">
        <ele>604</ele>
        <time>2020-03-10T19:50:06Z</time>
      </trkpt>
      <trkpt lat="44.21865" lon="3.18753">
        <ele>625</ele>
        <time>2020-03-10T19:50:17Z</time>
      </trkpt>
      <trkpt lat="44.21875" lon="3.18757">
        <ele>627</ele>
        <time>2020-03-10T19:50:19Z</time>
      </trkpt>
      <trkpt lat="44.21887" lon="3.18748">
        <ele>626</ele>
        <time>2020-03-10T19:50:22Z</time>
      </trkpt>
      <trkpt lat="44.21898" lon="3.18704">
        <ele>618</ele>
        <time>2020-03-10T19:50:28Z</time>
      </trkpt>
      <trkpt lat="44.21918" lon="3.18671">
        <ele>616</ele>
        <time>2020-03-10T19:50:33Z</time>
      </trkpt>
      <trkpt lat="44.21936" lon="3.1865">
        <ele>624</ele>
        <time>2020-03-10T19:50:37Z</time>
      </trkpt>
      <trkpt lat="44.21942" lon="3.18634">
        <ele>626</ele>
        <time>2020-03-10T19:50:40Z</time>
      </trkpt>
      <trkpt lat="44.21941" lon="3.1861">
        <ele>624</ele>
        <time>2020-03-10T19:50:43Z</time>
      </trkpt>
      <trkpt lat="44.2192" lon="3.18514">
        <ele>619</ele>
        <time>2020-03-10T19:50:56Z</time>
      </trkpt>
      <trkpt lat="44.21904" lon="3.18449">
        <ele>612</ele>
        <time>2020-03-10T19:51:04Z</time>
      </trkpt>
      <trkpt lat="44.21903" lon="3.18428">
        <ele>611</ele>
        <time>2020-03-10T19:51:07Z</time>
      </trkpt>
      <trkpt lat="44.21907" lon="3.18413">
        <ele>611</ele>
        <time>2020-03-10T19:51:09Z</time>
      </trkpt>
      <trkpt lat="44.21916" lon="3.18403">
        <ele>611</ele>
        <time>2020-03-10T19:51:11Z</time>
      </trkpt>
      <trkpt lat="44.21928" lon="3.18401">
        <ele>612</ele>
        <time>2020-03-10T19:51:13Z</time>
      </trkpt>
      <trkpt lat="44.21954" lon="3.18407">
        <ele>618</ele>
        <time>2020-03-10T19:51:18Z</time>
      </trkpt>
      <trkpt lat="44.21991" lon="3.18407">
        <ele>624</ele>
        <time>2020-03-10T19:51:24Z</time>
      </trkpt>
      <trkpt lat="44.22058" lon="3.18414">
        <ele>643</ele>
        <time>2020-03-10T19:51:36Z</time>
      </trkpt>
      <trkpt lat="44.22073" lon="3.18409">
        <ele>645</ele>
        <time>2020-03-10T19:51:39Z</time>
      </trkpt>
      <trkpt lat="44.22082" lon="3.184">
        <ele>643</ele>
        <time>2020-03-10T19:51:41Z</time>
      </trkpt>
      <trkpt lat="44.22107" lon="3.18366">
        <ele>634</ele>
        <time>2020-03-10T19:51:47Z</time>
      </trkpt>
      <trkpt lat="44.22123" lon="3.18353">
        <ele>633</ele>
        <time>2020-03-10T19:51:51Z</time>
      </trkpt>
      <trkpt lat="44.22136" lon="3.18346">
        <ele>634</ele>
        <time>2020-03-10T19:51:53Z</time>
      </trkpt>
      <trkpt lat="44.22229" lon="3.18316">
        <ele>653</ele>
        <time>2020-03-10T19:52:10Z</time>
      </trkpt>
      <trkpt lat="44.22245" lon="3.18307">
        <ele>658</ele>
        <time>2020-03-10T19:52:13Z</time>
      </trkpt>
      <trkpt lat="44.2225" lon="3.18299">
        <ele>659</ele>
        <time>2020-03-10T19:52:15Z</time>
      </trkpt>
      <trkpt lat="44.2225" lon="3.18288">
        <ele>658</ele>
        <time>2020-03-10T19:52:16Z</time>
      </trkpt>
      <trkpt lat="44.22246" lon="3.18269">
        <ele>654</ele>
        <time>2020-03-10T19:52:18Z</time>
      </trkpt>
      <trkpt lat="44.22233" lon="3.18243">
        <ele>646</ele>
        <time>2020-03-10T19:52:23Z</time>
      </trkpt>
      <trkpt lat="44.22226" lon="3.18223">
        <ele>642</ele>
        <time>2020-03-10T19:52:25Z</time>
      </trkpt>
      <trkpt lat="44.22228" lon="3.18207">
        <ele>641</ele>
        <time>2020-03-10T19:52:27Z</time>
      </trkpt>
      <trkpt lat="44.22233" lon="3.18192">
        <ele>643</ele>
        <time>2020-03-10T19:52:30Z</time>
      </trkpt>
      <trkpt lat="44.22245" lon="3.18175">
        <ele>648</ele>
        <time>2020-03-10T19:52:33Z</time>
      </trkpt>
      <trkpt lat="44.22269" lon="3.18157">
        <ele>654</ele>
        <time>2020-03-10T19:52:37Z</time>
      </trkpt>
      <trkpt lat="44.22287" lon="3.18139">
        <ele>655</ele>
        <time>2020-03-10T19:52:41Z</time>
      </trkpt>
      <trkpt lat="44.22309" lon="3.18123">
        <ele>657</ele>
        <time>2020-03-10T19:52:46Z</time>
      </trkpt>
      <trkpt lat="44.22333" lon="3.18118">
        <ele>663</ele>
        <time>2020-03-10T19:52:50Z</time>
      </trkpt>
      <trkpt lat="44.22399" lon="3.18064">
        <ele>665</ele>
        <time>2020-03-10T19:53:04Z</time>
      </trkpt>
      <trkpt lat="44.22412" lon="3.18061">
        <ele>668</ele>
        <time>2020-03-10T19:53:06Z</time>
      </trkpt>
      <trkpt lat="44.22446" lon="3.18063">
        <ele>680</ele>
        <time>2020-03-10T19:53:12Z</time>
      </trkpt>
      <trkpt lat="44.22481" lon="3.18049">
        <ele>685</ele>
        <time>2020-03-10T19:53:19Z</time>
      </trkpt>
      <trkpt lat="44.22502" lon="3.18032">
        <ele>683</ele>
        <time>2020-03-10T19:53:23Z</time>
      </trkpt>
      <trkpt lat="44.22525" lon="3.17999">
        <ele>676</ele>
        <time>2020-03-10T19:53:29Z</time>
      </trkpt>
      <trkpt lat="44.22542" lon="3.17978">
        <ele>676</ele>
        <time>2020-03-10T19:53:33Z</time>
      </trkpt>
      <trkpt lat="44.22555" lon="3.1797">
        <ele>677</ele>
        <time>2020-03-10T19:53:35Z</time>
      </trkpt>
      <trkpt lat="44.22588" lon="3.17971">
        <ele>686</ele>
        <time>2020-03-10T19:53:41Z</time>
      </trkpt>
      <trkpt lat="44.22619" lon="3.17958">
        <ele>686</ele>
        <time>2020-03-10T19:53:47Z</time>
      </trkpt>
      <trkpt lat="44.22632" lon="3.17956">
        <ele>688</ele>
        <time>2020-03-10T19:53:49Z</time>
      </trkpt>
      <trkpt lat="44.22656" lon="3.17958">
        <ele>691</ele>
        <time>2020-03-10T19:53:54Z</time>
      </trkpt>
      <trkpt lat="44.22681" lon="3.17953">
        <ele>693</ele>
        <time>2020-03-10T19:53:58Z</time>
      </trkpt>
      <trkpt lat="44.227" lon="3.17957">
        <ele>696</ele>
        <time>2020-03-10T19:54:01Z</time>
      </trkpt>
      <trkpt lat="44.22713" lon="3.17956">
        <ele>697</ele>
        <time>2020-03-10T19:54:04Z</time>
      </trkpt>
      <trkpt lat="44.22748" lon="3.17943">
        <ele>699</ele>
        <time>2020-03-10T19:54:10Z</time>
      </trkpt>
      <trkpt lat="44.22758" lon="3.17944">
        <ele>701</ele>
        <time>2020-03-10T19:54:12Z</time>
      </trkpt>
      <trkpt lat="44.22773" lon="3.17951">
        <ele>704</ele>
        <time>2020-03-10T19:54:15Z</time>
      </trkpt>
      <trkpt lat="44.22791" lon="3.17968">
        <ele>707</ele>
        <time>2020-03-10T19:54:19Z</time>
      </trkpt>
      <trkpt lat="44.2282" lon="3.17981">
        <ele>709</ele>
        <time>2020-03-10T19:54:24Z</time>
      </trkpt>
      <trkpt lat="44.22834" lon="3.17993">
        <ele>709</ele>
        <time>2020-03-10T19:54:27Z</time>
      </trkpt>
      <trkpt lat="44.22844" lon="3.1801">
        <ele>713</ele>
        <time>2020-03-10T19:54:30Z</time>
      </trkpt>
      <trkpt lat="44.22858" lon="3.18018">
        <ele>717</ele>
        <time>2020-03-10T19:54:33Z</time>
      </trkpt>
      <trkpt lat="44.22872" lon="3.18019">
        <ele>719</ele>
        <time>2020-03-10T19:54:35Z</time>
      </trkpt>
      <trkpt lat="44.22887" lon="3.18013">
        <ele>718</ele>
        <time>2020-03-10T19:54:38Z</time>
      </trkpt>
      <trkpt lat="44.22893" lon="3.18008">
        <ele>718</ele>
        <time>2020-03-10T19:54:39Z</time>
      </trkpt>
      <trkpt lat="44.22912" lon="3.17971">
        <ele>722</ele>
        <time>2020-03-10T19:54:45Z</time>
      </trkpt>
      <trkpt lat="44.22922" lon="3.17965">
        <ele>723</ele>
        <time>2020-03-10T19:54:47Z</time>
      </trkpt>
      <trkpt lat="44.22933" lon="3.17967">
        <ele>724</ele>
        <time>2020-03-10T19:54:49Z</time>
      </trkpt>
      <trkpt lat="44.22948" lon="3.17977">
        <ele>726</ele>
        <time>2020-03-10T19:54:52Z</time>
      </trkpt>
      <trkpt lat="44.2297" lon="3.17982">
        <ele>729</ele>
        <time>2020-03-10T19:54:56Z</time>
      </trkpt>
      <trkpt lat="44.22987" lon="3.17972">
        <ele>731</ele>
        <time>2020-03-10T19:54:59Z</time>
      </trkpt>
      <trkpt lat="44.23009" lon="3.17936">
        <ele>728</ele>
        <time>2020-03-10T19:55:05Z</time>
      </trkpt>
      <trkpt lat="44.23012" lon="3.17926">
        <ele>727</ele>
        <time>2020-03-10T19:55:06Z</time>
      </trkpt>
      <trkpt lat="44.2301" lon="3.17914">
        <ele>727</ele>
        <time>2020-03-10T19:55:08Z</time>
      </trkpt>
      <trkpt lat="44.23003" lon="3.17905">
        <ele>729</ele>
        <time>2020-03-10T19:55:10Z</time>
      </trkpt>
      <trkpt lat="44.22996" lon="3.17903">
        <ele>729</ele>
        <time>2020-03-10T19:55:11Z</time>
      </trkpt>
      <trkpt lat="44.22979" lon="3.17912">
        <ele>727</ele>
        <time>2020-03-10T19:55:14Z</time>
      </trkpt>
      <trkpt lat="44.22926" lon="3.17919">
        <ele>727</ele>
        <time>2020-03-10T19:55:24Z</time>
      </trkpt>
      <trkpt lat="44.22905" lon="3.17925">
        <ele>726</ele>
        <time>2020-03-10T19:55:27Z</time>
      </trkpt>
      <trkpt lat="44.22876" lon="3.1794">
        <ele>720</ele>
        <time>2020-03-10T19:55:33Z</time>
      </trkpt>
      <trkpt lat="44.22866" lon="3.17943">
        <ele>719</ele>
        <time>2020-03-10T19:55:35Z</time>
      </trkpt>
      <trkpt lat="44.22859" lon="3.17932">
        <ele>719</ele>
        <time>2020-03-10T19:55:37Z</time>
      </trkpt>
      <trkpt lat="44.22871" lon="3.17931">
        <ele>721</ele>
        <time>2020-03-10T19:55:39Z</time>
      </trkpt>
      <trkpt lat="44.22891" lon="3.17918">
        <ele>725</ele>
        <time>2020-03-10T19:55:43Z</time>
      </trkpt>
      <trkpt lat="44.2291" lon="3.17897">
        <ele>734</ele>
        <time>2020-03-10T19:55:47Z</time>
      </trkpt>
      <trkpt lat="44.22931" lon="3.17885">
        <ele>738</ele>
        <time>2020-03-10T19:55:51Z</time>
      </trkpt>
      <trkpt lat="44.22962" lon="3.17875">
        <ele>740</ele>
        <time>2020-03-10T19:55:57Z</time>
      </trkpt>
      <trkpt lat="44.22986" lon="3.17858">
        <ele>745</ele>
        <time>2020-03-10T19:56:02Z</time>
      </trkpt>
      <trkpt lat="44.23002" lon="3.17854">
        <ele>746</ele>
        <time>2020-03-10T19:56:04Z</time>
      </trkpt>
      <trkpt lat="44.2302" lon="3.17855">
        <ele>749</ele>
        <time>2020-03-10T19:56:08Z</time>
      </trkpt>
      <trkpt lat="44.23043" lon="3.17865">
        <ele>750</ele>
        <time>2020-03-10T19:56:12Z</time>
      </trkpt>
      <trkpt lat="44.23065" lon="3.1788">
        <ele>749</ele>
        <time>2020-03-10T19:56:16Z</time>
      </trkpt>
      <trkpt lat="44.23085" lon="3.17897">
        <ele>746</ele>
        <time>2020-03-10T19:56:20Z</time>
      </trkpt>
      <trkpt lat="44.231" lon="3.17905">
        <ele>745</ele>
        <time>2020-03-10T19:56:23Z</time>
      </trkpt>
      <trkpt lat="44.23109" lon="3.17903">
        <ele>747</ele>
        <time>2020-03-10T19:56:25Z</time>
      </trkpt>
      <trkpt lat="44.23135" lon="3.17885">
        <ele>756</ele>
        <time>2020-03-10T19:56:30Z</time>
      </trkpt>
      <trkpt lat="44.23149" lon="3.17883">
        <ele>758</ele>
        <time>2020-03-10T19:56:33Z</time>
      </trkpt>
      <trkpt lat="44.23203" lon="3.17906">
        <ele>755</ele>
        <time>2020-03-10T19:56:43Z</time>
      </trkpt>
      <trkpt lat="44.23226" lon="3.1791">
        <ele>756</ele>
        <time>2020-03-10T19:56:47Z</time>
      </trkpt>
      <trkpt lat="44.23253" lon="3.17905">
        <ele>759</ele>
        <time>2020-03-10T19:56:52Z</time>
      </trkpt>
      <trkpt lat="44.23275" lon="3.17895">
        <ele>763</ele>
        <time>2020-03-10T19:56:56Z</time>
      </trkpt>
      <trkpt lat="44.23282" lon="3.17884">
        <ele>765</ele>
        <time>2020-03-10T19:56:58Z</time>
      </trkpt>
      <trkpt lat="44.23318" lon="3.17818">
        <ele>775</ele>
        <time>2020-03-10T19:57:08Z</time>
      </trkpt>
      <trkpt lat="44.23336" lon="3.17808">
        <ele>777</ele>
        <time>2020-03-10T19:57:12Z</time>
      </trkpt>
      <trkpt lat="44.2336" lon="3.17807">
        <ele>777</ele>
        <time>2020-03-10T19:57:16Z</time>
      </trkpt>
      <trkpt lat="44.23376" lon="3.17804">
        <ele>778</ele>
        <time>2020-03-10T19:57:19Z</time>
      </trkpt>
      <trkpt lat="44.23413" lon="3.17745">
        <ele>784</ele>
        <time>2020-03-10T19:57:29Z</time>
      </trkpt>
      <trkpt lat="44.23443" lon="3.17705">
        <ele>789</ele>
        <time>2020-03-10T19:57:36Z</time>
      </trkpt>
      <trkpt lat="44.23507" lon="3.17639">
        <ele>792</ele>
        <time>2020-03-10T19:57:50Z</time>
      </trkpt>
      <trkpt lat="44.23527" lon="3.17629">
        <ele>795</ele>
        <time>2020-03-10T19:57:54Z</time>
      </trkpt>
      <trkpt lat="44.23547" lon="3.17627">
        <ele>797</ele>
        <time>2020-03-10T19:57:58Z</time>
      </trkpt>
      <trkpt lat="44.23568" lon="3.17637">
        <ele>797</ele>
        <time>2020-03-10T19:58:02Z</time>
      </trkpt>
      <trkpt lat="44.23601" lon="3.17662">
        <ele>795</ele>
        <time>2020-03-10T19:58:08Z</time>
      </trkpt>
      <trkpt lat="44.23618" lon="3.17662">
        <ele>796</ele>
        <time>2020-03-10T19:58:11Z</time>
      </trkpt>
      <trkpt lat="44.23718" lon="3.17587">
        <ele>808</ele>
        <time>2020-03-10T19:58:31Z</time>
      </trkpt>
      <trkpt lat="44.23735" lon="3.17552">
        <ele>811</ele>
        <time>2020-03-10T19:58:37Z</time>
      </trkpt>
      <trkpt lat="44.23761" lon="3.17519">
        <ele>814</ele>
        <time>2020-03-10T19:58:43Z</time>
      </trkpt>
      <trkpt lat="44.2379" lon="3.17486">
        <ele>818</ele>
        <time>2020-03-10T19:58:50Z</time>
      </trkpt>
      <trkpt lat="44.23817" lon="3.17461">
        <ele>822</ele>
        <time>2020-03-10T19:58:56Z</time>
      </trkpt>
      <trkpt lat="44.23847" lon="3.17453">
        <ele>823</ele>
        <time>2020-03-10T19:59:01Z</time>
      </trkpt>
      <trkpt lat="44.23887" lon="3.17395">
        <ele>828</ele>
        <time>2020-03-10T19:59:11Z</time>
      </trkpt>
      <trkpt lat="44.23913" lon="3.17333">
        <ele>832</ele>
        <time>2020-03-10T19:59:20Z</time>
      </trkpt>
      <trkpt lat="44.23932" lon="3.17303">
        <ele>835</ele>
        <time>2020-03-10T19:59:26Z</time>
      </trkpt>
      <trkpt lat="44.23952" lon="3.17278">
        <ele>837</ele>
        <time>2020-03-10T19:59:30Z</time>
      </trkpt>
      <trkpt lat="44.23966" lon="3.17244">
        <ele>839</ele>
        <time>2020-03-10T19:59:35Z</time>
      </trkpt>
      <trkpt lat="44.23989" lon="3.17208">
        <ele>840</ele>
        <time>2020-03-10T19:59:41Z</time>
      </trkpt>
      <trkpt lat="44.24024" lon="3.17169">
        <ele>842</ele>
        <time>2020-03-10T19:59:49Z</time>
      </trkpt>
      <trkpt lat="44.24045" lon="3.17139">
        <ele>843</ele>
        <time>2020-03-10T19:59:55Z</time>
      </trkpt>
      <trkpt lat="44.2409" lon="3.17061">
        <ele>847</ele>
        <time>2020-03-10T20:00:08Z</time>
      </trkpt>
      <trkpt lat="44.24112" lon="3.17038">
        <ele>849</ele>
        <time>2020-03-10T20:00:12Z</time>
      </trkpt>
      <trkpt lat="44.24143" lon="3.17024">
        <ele>850</ele>
        <time>2020-03-10T20:00:18Z</time>
      </trkpt>
      <trkpt lat="44.24172" lon="3.17003">
        <ele>852</ele>
        <time>2020-03-10T20:00:24Z</time>
      </trkpt>
      <trkpt lat="44.24198" lon="3.16973">
        <ele>853</ele>
        <time>2020-03-10T20:00:30Z</time>
      </trkpt>
      <trkpt lat="44.24216" lon="3.16949">
        <ele>854</ele>
        <time>2020-03-10T20:00:34Z</time>
      </trkpt>
      <trkpt lat="44.24233" lon="3.16937">
        <ele>855</ele>
        <time>2020-03-10T20:00:38Z</time>
      </trkpt>
      <trkpt lat="44.24241" lon="3.1693">
        <ele>856</ele>
        <time>2020-03-10T20:00:40Z</time>
      </trkpt>
      <trkpt lat="44.24275" lon="3.16925">
        <ele>858</ele>
        <time>2020-03-10T20:00:46Z</time>
      </trkpt>
      <trkpt lat="44.24329" lon="3.16911">
        <ele>860</ele>
        <time>2020-03-10T20:00:55Z</time>
      </trkpt>
      <trkpt lat="44.24355" lon="3.16911">
        <ele>861</ele>
        <time>2020-03-10T20:01:00Z</time>
      </trkpt>
      <trkpt lat="44.24377" lon="3.16901">
        <ele>861</ele>
        <time>2020-03-10T20:01:04Z</time>
      </trkpt>
      <trkpt lat="44.24426" lon="3.1688">
        <ele>863</ele>
        <time>2020-03-10T20:01:13Z</time>
      </trkpt>
      <trkpt lat="44.24477" lon="3.16854">
        <ele>862</ele>
        <time>2020-03-10T20:01:23Z</time>
      </trkpt>
      <trkpt lat="44.2451" lon="3.1683">
        <ele>863</ele>
        <time>2020-03-10T20:01:30Z</time>
      </trkpt>
      <trkpt lat="44.24552" lon="3.16802">
        <ele>862</ele>
        <time>2020-03-10T20:01:38Z</time>
      </trkpt>
      <trkpt lat="44.24634" lon="3.16772">
        <ele>861</ele>
        <time>2020-03-10T20:01:53Z</time>
      </trkpt>
      <trkpt lat="44.24779" lon="3.16718">
        <ele>861</ele>
        <time>2020-03-10T20:02:20Z</time>
      </trkpt>
      <trkpt lat="44.24926" lon="3.16656">
        <ele>867</ele>
        <time>2020-03-10T20:02:47Z</time>
      </trkpt>
      <trkpt lat="44.24979" lon="3.16648">
        <ele>868</ele>
        <time>2020-03-10T20:02:56Z</time>
      </trkpt>
      <trkpt lat="44.24999" lon="3.16645">
        <ele>868</ele>
        <time>2020-03-10T20:03:00Z</time>
      </trkpt>
      <trkpt lat="44.25089" lon="3.16628">
        <ele>870</ele>
        <time>2020-03-10T20:03:16Z</time>
      </trkpt>
      <trkpt lat="44.25149" lon="3.1659">
        <ele>873</ele>
        <time>2020-03-10T20:03:28Z</time>
      </trkpt>
      <trkpt lat="44.25186" lon="3.16525">
        <ele>875</ele>
        <time>2020-03-10T20:03:38Z</time>
      </trkpt>
      <trkpt lat="44.25221" lon="3.16487">
        <ele>876</ele>
        <time>2020-03-10T20:03:46Z</time>
      </trkpt>
      <trkpt lat="44.25265" lon="3.1646">
        <ele>877</ele>
        <time>2020-03-10T20:03:55Z</time>
      </trkpt>
      <trkpt lat="44.25327" lon="3.16435">
        <ele>879</ele>
        <time>2020-03-10T20:04:06Z</time>
      </trkpt>
      <trkpt lat="44.25553" lon="3.16351">
        <ele>872</ele>
        <time>2020-03-10T20:04:48Z</time>
      </trkpt>
      <trkpt lat="44.25577" lon="3.16324">
        <ele>872</ele>
        <time>2020-03-10T20:04:53Z</time>
      </trkpt>
      <trkpt lat="44.25641" lon="3.16193">
        <ele>871</ele>
        <time>2020-03-10T20:05:14Z</time>
      </trkpt>
      <trkpt lat="44.25656" lon="3.16165">
        <ele>871</ele>
        <time>2020-03-10T20:05:18Z</time>
      </trkpt>
      <trkpt lat="44.2566" lon="3.16155">
        <ele>871</ele>
        <time>2020-03-10T20:05:20Z</time>
      </trkpt>
      <trkpt lat="44.25664" lon="3.1615">
        <ele>871</ele>
        <time>2020-03-10T20:05:21Z</time>
      </trkpt>
      <trkpt lat="44.2567" lon="3.16138">
        <ele>870</ele>
        <time>2020-03-10T20:05:22Z</time>
      </trkpt>
      <trkpt lat="44.25694" lon="3.16071">
        <ele>867</ele>
        <time>2020-03-10T20:05:32Z</time>
      </trkpt>
      <trkpt lat="44.25701" lon="3.16058">
        <ele>867</ele>
        <time>2020-03-10T20:05:34Z</time>
      </trkpt>
      <trkpt lat="44.25722" lon="3.1603">
        <ele>866</ele>
        <time>2020-03-10T20:05:39Z</time>
      </trkpt>
      <trkpt lat="44.25747" lon="3.16011">
        <ele>866</ele>
        <time>2020-03-10T20:05:44Z</time>
      </trkpt>
      <trkpt lat="44.25764" lon="3.16003">
        <ele>865</ele>
        <time>2020-03-10T20:05:47Z</time>
      </trkpt>
      <trkpt lat="44.25785" lon="3.15998">
        <ele>864</ele>
        <time>2020-03-10T20:05:51Z</time>
      </trkpt>
      <trkpt lat="44.25803" lon="3.15996">
        <ele>862</ele>
        <time>2020-03-10T20:05:54Z</time>
      </trkpt>
      <trkpt lat="44.25864" lon="3.15999">
        <ele>860</ele>
        <time>2020-03-10T20:06:05Z</time>
      </trkpt>
      <trkpt lat="44.25913" lon="3.15996">
        <ele>860</ele>
        <time>2020-03-10T20:06:14Z</time>
      </trkpt>
      <trkpt lat="44.25981" lon="3.15974">
        <ele>859</ele>
        <time>2020-03-10T20:06:26Z</time>
      </trkpt>
      <trkpt lat="44.26104" lon="3.15964">
        <ele>861</ele>
        <time>2020-03-10T20:06:48Z</time>
      </trkpt>
      <trkpt lat="44.26111" lon="3.15965">
        <ele>861</ele>
        <time>2020-03-10T20:06:50Z</time>
      </trkpt>
      <trkpt lat="44.26128" lon="3.15971">
        <ele>862</ele>
        <time>2020-03-10T20:06:53Z</time>
      </trkpt>
      <trkpt lat="44.26217" lon="3.16036">
        <ele>866</ele>
        <time>2020-03-10T20:07:11Z</time>
      </trkpt>
      <trkpt lat="44.26243" lon="3.1605">
        <ele>868</ele>
        <time>2020-03-10T20:07:16Z</time>
      </trkpt>
      <trkpt lat="44.26263" lon="3.16054">
        <ele>868</ele>
        <time>2020-03-10T20:07:19Z</time>
      </trkpt>
      <trkpt lat="44.26288" lon="3.16053">
        <ele>869</ele>
        <time>2020-03-10T20:07:24Z</time>
      </trkpt>
      <trkpt lat="44.26361" lon="3.16042">
        <ele>870</ele>
        <time>2020-03-10T20:07:37Z</time>
      </trkpt>
      <trkpt lat="44.26437" lon="3.16025">
        <ele>869</ele>
        <time>2020-03-10T20:07:50Z</time>
      </trkpt>
      <trkpt lat="44.26452" lon="3.16023">
        <ele>868</ele>
        <time>2020-03-10T20:07:53Z</time>
      </trkpt>
      <trkpt lat="44.26471" lon="3.16027">
        <ele>868</ele>
        <time>2020-03-10T20:07:56Z</time>
      </trkpt>
      <trkpt lat="44.26671" lon="3.16157">
        <ele>871</ele>
        <time>2020-03-10T20:08:36Z</time>
      </trkpt>
      <trkpt lat="44.26766" lon="3.16226">
        <ele>874</ele>
        <time>2020-03-10T20:08:55Z</time>
      </trkpt>
      <trkpt lat="44.26805" lon="3.1625">
        <ele>875</ele>
        <time>2020-03-10T20:09:02Z</time>
      </trkpt>
      <trkpt lat="44.26828" lon="3.1626">
        <ele>875</ele>
        <time>2020-03-10T20:09:07Z</time>
      </trkpt>
      <trkpt lat="44.26851" lon="3.16266">
        <ele>874</ele>
        <time>2020-03-10T20:09:11Z</time>
      </trkpt>
      <trkpt lat="44.26871" lon="3.16278">
        <ele>872</ele>
        <time>2020-03-10T20:09:15Z</time>
      </trkpt>
      <trkpt lat="44.26878" lon="3.16287">
        <ele>872</ele>
        <time>2020-03-10T20:09:16Z</time>
      </trkpt>
      <trkpt lat="44.26883" lon="3.16299">
        <ele>871</ele>
        <time>2020-03-10T20:09:18Z</time>
      </trkpt>
      <trkpt lat="44.26889" lon="3.16322">
        <ele>871</ele>
        <time>2020-03-10T20:09:21Z</time>
      </trkpt>
      <trkpt lat="44.26894" lon="3.16381">
        <ele>870</ele>
        <time>2020-03-10T20:09:29Z</time>
      </trkpt>
      <trkpt lat="44.26902" lon="3.16408">
        <ele>869</ele>
        <time>2020-03-10T20:09:33Z</time>
      </trkpt>
      <trkpt lat="44.26913" lon="3.1643">
        <ele>869</ele>
        <time>2020-03-10T20:09:36Z</time>
      </trkpt>
      <trkpt lat="44.26994" lon="3.16561">
        <ele>862</ele>
        <time>2020-03-10T20:09:58Z</time>
      </trkpt>
      <trkpt lat="44.27014" lon="3.16587">
        <ele>861</ele>
        <time>2020-03-10T20:10:03Z</time>
      </trkpt>
      <trkpt lat="44.27031" lon="3.16601">
        <ele>860</ele>
        <time>2020-03-10T20:10:06Z</time>
      </trkpt>
      <trkpt lat="44.27086" lon="3.16631">
        <ele>859</ele>
        <time>2020-03-10T20:10:17Z</time>
      </trkpt>
      <trkpt lat="44.271" lon="3.16642">
        <ele>859</ele>
        <time>2020-03-10T20:10:20Z</time>
      </trkpt>
      <trkpt lat="44.27138" lon="3.16682">
        <ele>858</ele>
        <time>2020-03-10T20:10:28Z</time>
      </trkpt>
      <trkpt lat="44.27177" lon="3.16711">
        <ele>858</ele>
        <time>2020-03-10T20:10:36Z</time>
      </trkpt>
      <trkpt lat="44.27235" lon="3.16763">
        <ele>861</ele>
        <time>2020-03-10T20:10:48Z</time>
      </trkpt>
      <trkpt lat="44.27254" lon="3.16786">
        <ele>862</ele>
        <time>2020-03-10T20:10:53Z</time>
      </trkpt>
      <trkpt lat="44.27263" lon="3.16805">
        <ele>863</ele>
        <time>2020-03-10T20:10:56Z</time>
      </trkpt>
      <trkpt lat="44.27273" lon="3.16828">
        <ele>863</ele>
        <time>2020-03-10T20:10:59Z</time>
      </trkpt>
      <trkpt lat="44.27291" lon="3.1688">
        <ele>864</ele>
        <time>2020-03-10T20:11:07Z</time>
      </trkpt>
      <trkpt lat="44.27299" lon="3.16893">
        <ele>864</ele>
        <time>2020-03-10T20:11:09Z</time>
      </trkpt>
      <trkpt lat="44.27317" lon="3.16917">
        <ele>865</ele>
        <time>2020-03-10T20:11:13Z</time>
      </trkpt>
      <trkpt lat="44.2733" lon="3.1693">
        <ele>865</ele>
        <time>2020-03-10T20:11:16Z</time>
      </trkpt>
      <trkpt lat="44.27372" lon="3.16966">
        <ele>864</ele>
        <time>2020-03-10T20:11:25Z</time>
      </trkpt>
      <trkpt lat="44.27421" lon="3.17005">
        <ele>863</ele>
        <time>2020-03-10T20:11:35Z</time>
      </trkpt>
      <trkpt lat="44.27514" lon="3.17064">
        <ele>864</ele>
        <time>2020-03-10T20:11:53Z</time>
      </trkpt>
      <trkpt lat="44.27534" lon="3.17075">
        <ele>866</ele>
        <time>2020-03-10T20:11:57Z</time>
      </trkpt>
      <trkpt lat="44.2755" lon="3.17081">
        <ele>867</ele>
        <time>2020-03-10T20:12:00Z</time>
      </trkpt>
      <trkpt lat="44.27571" lon="3.17084">
        <ele>869</ele>
        <time>2020-03-10T20:12:03Z</time>
      </trkpt>
      <trkpt lat="44.27744" lon="3.1708">
        <ele>879</ele>
        <time>2020-03-10T20:12:34Z</time>
      </trkpt>
      <trkpt lat="44.27822" lon="3.17072">
        <ele>882</ele>
        <time>2020-03-10T20:12:48Z</time>
      </trkpt>
      <trkpt lat="44.27836" lon="3.17074">
        <ele>883</ele>
        <time>2020-03-10T20:12:51Z</time>
      </trkpt>
      <trkpt lat="44.27857" lon="3.1708">
        <ele>884</ele>
        <time>2020-03-10T20:12:54Z</time>
      </trkpt>
      <trkpt lat="44.28033" lon="3.17167">
        <ele>886</ele>
        <time>2020-03-10T20:13:28Z</time>
      </trkpt>
      <trkpt lat="44.28356" lon="3.17285">
        <ele>879</ele>
        <time>2020-03-10T20:14:27Z</time>
      </trkpt>
      <trkpt lat="44.28375" lon="3.17289">
        <ele>880</ele>
        <time>2020-03-10T20:14:31Z</time>
      </trkpt>
      <trkpt lat="44.28389" lon="3.1729">
        <ele>880</ele>
        <time>2020-03-10T20:14:33Z</time>
      </trkpt>
      <trkpt lat="44.28419" lon="3.17281">
        <ele>882</ele>
        <time>2020-03-10T20:14:38Z</time>
      </trkpt>
      <trkpt lat="44.28458" lon="3.17252">
        <ele>881</ele>
        <time>2020-03-10T20:14:46Z</time>
      </trkpt>
      <trkpt lat="44.28488" lon="3.17225">
        <ele>882</ele>
        <time>2020-03-10T20:14:53Z</time>
      </trkpt>
      <trkpt lat="44.28503" lon="3.17214">
        <ele>883</ele>
        <time>2020-03-10T20:14:56Z</time>
      </trkpt>
      <trkpt lat="44.28515" lon="3.17211">
        <ele>884</ele>
        <time>2020-03-10T20:14:58Z</time>
      </trkpt>
      <trkpt lat="44.28524" lon="3.17211">
        <ele>884</ele>
        <time>2020-03-10T20:14:59Z</time>
      </trkpt>
      <trkpt lat="44.28534" lon="3.17216">
        <ele>884</ele>
        <time>2020-03-10T20:15:01Z</time>
      </trkpt>
      <trkpt lat="44.28561" lon="3.17238">
        <ele>883</ele>
        <time>2020-03-10T20:15:07Z</time>
      </trkpt>
      <trkpt lat="44.28579" lon="3.1726">
        <ele>882</ele>
        <time>2020-03-10T20:15:11Z</time>
      </trkpt>
      <trkpt lat="44.28605" lon="3.173">
        <ele>881</ele>
        <time>2020-03-10T20:15:18Z</time>
      </trkpt>
      <trkpt lat="44.28628" lon="3.17331">
        <ele>880</ele>
        <time>2020-03-10T20:15:24Z</time>
      </trkpt>
      <trkpt lat="44.28666" lon="3.17374">
        <ele>876</ele>
        <time>2020-03-10T20:15:32Z</time>
      </trkpt>
      <trkpt lat="44.28685" lon="3.1739">
        <ele>874</ele>
        <time>2020-03-10T20:15:36Z</time>
      </trkpt>
      <trkpt lat="44.28708" lon="3.17404">
        <ele>873</ele>
        <time>2020-03-10T20:15:41Z</time>
      </trkpt>
      <trkpt lat="44.28742" lon="3.17415">
        <ele>873</ele>
        <time>2020-03-10T20:15:47Z</time>
      </trkpt>
      <trkpt lat="44.28835" lon="3.17422">
        <ele>866</ele>
        <time>2020-03-10T20:16:04Z</time>
      </trkpt>
      <trkpt lat="44.28858" lon="3.17427">
        <ele>865</ele>
        <time>2020-03-10T20:16:08Z</time>
      </trkpt>
      <trkpt lat="44.28876" lon="3.17434">
        <ele>863</ele>
        <time>2020-03-10T20:16:11Z</time>
      </trkpt>
      <trkpt lat="44.2906" lon="3.17527">
        <ele>854</ele>
        <time>2020-03-10T20:16:46Z</time>
      </trkpt>
      <trkpt lat="44.29081" lon="3.17543">
        <ele>853</ele>
        <time>2020-03-10T20:16:50Z</time>
      </trkpt>
      <trkpt lat="44.29116" lon="3.17579">
        <ele>851</ele>
        <time>2020-03-10T20:16:58Z</time>
      </trkpt>
      <trkpt lat="44.29145" lon="3.176">
        <ele>851</ele>
        <time>2020-03-10T20:17:04Z</time>
      </trkpt>
      <trkpt lat="44.29228" lon="3.17641">
        <ele>854</ele>
        <time>2020-03-10T20:17:19Z</time>
      </trkpt>
      <trkpt lat="44.29244" lon="3.17645">
        <ele>853</ele>
        <time>2020-03-10T20:17:22Z</time>
      </trkpt>
      <trkpt lat="44.29263" lon="3.17645">
        <ele>853</ele>
        <time>2020-03-10T20:17:26Z</time>
      </trkpt>
      <trkpt lat="44.2928" lon="3.17642">
        <ele>852</ele>
        <time>2020-03-10T20:17:29Z</time>
      </trkpt>
      <trkpt lat="44.29296" lon="3.17634">
        <ele>851</ele>
        <time>2020-03-10T20:17:32Z</time>
      </trkpt>
      <trkpt lat="44.29312" lon="3.17624">
        <ele>851</ele>
        <time>2020-03-10T20:17:35Z</time>
      </trkpt>
      <trkpt lat="44.29328" lon="3.17606">
        <ele>850</ele>
        <time>2020-03-10T20:17:39Z</time>
      </trkpt>
      <trkpt lat="44.29343" lon="3.17582">
        <ele>851</ele>
        <time>2020-03-10T20:17:43Z</time>
      </trkpt>
      <trkpt lat="44.29369" lon="3.17529">
        <ele>854</ele>
        <time>2020-03-10T20:17:51Z</time>
      </trkpt>
      <trkpt lat="44.29382" lon="3.17506">
        <ele>855</ele>
        <time>2020-03-10T20:17:54Z</time>
      </trkpt>
      <trkpt lat="44.29401" lon="3.17482">
        <ele>856</ele>
        <time>2020-03-10T20:17:59Z</time>
      </trkpt>
      <trkpt lat="44.29422" lon="3.17459">
        <ele>857</ele>
        <time>2020-03-10T20:18:04Z</time>
      </trkpt>
      <trkpt lat="44.2945" lon="3.17433">
        <ele>859</ele>
        <time>2020-03-10T20:18:10Z</time>
      </trkpt>
      <trkpt lat="44.29465" lon="3.17423">
        <ele>860</ele>
        <time>2020-03-10T20:18:13Z</time>
      </trkpt>
      <trkpt lat="44.29483" lon="3.17416">
        <ele>862</ele>
        <time>2020-03-10T20:18:16Z</time>
      </trkpt>
      <trkpt lat="44.29511" lon="3.17413">
        <ele>863</ele>
        <time>2020-03-10T20:18:21Z</time>
      </trkpt>
      <trkpt lat="44.29622" lon="3.1741">
        <ele>865</ele>
        <time>2020-03-10T20:18:41Z</time>
      </trkpt>
      <trkpt lat="44.29684" lon="3.17409">
        <ele>863</ele>
        <time>2020-03-10T20:18:52Z</time>
      </trkpt>
      <trkpt lat="44.2981" lon="3.17413">
        <ele>863</ele>
        <time>2020-03-10T20:19:14Z</time>
      </trkpt>
      <trkpt lat="44.29836" lon="3.1741">
        <ele>863</ele>
        <time>2020-03-10T20:19:19Z</time>
      </trkpt>
      <trkpt lat="44.2986" lon="3.17403">
        <ele>862</ele>
        <time>2020-03-10T20:19:23Z</time>
      </trkpt>
      <trkpt lat="44.30084" lon="3.1732">
        <ele>870</ele>
        <time>2020-03-10T20:20:05Z</time>
      </trkpt>
      <trkpt lat="44.30206" lon="3.17266">
        <ele>871</ele>
        <time>2020-03-10T20:20:27Z</time>
      </trkpt>
      <trkpt lat="44.30324" lon="3.17222">
        <ele>865</ele>
        <time>2020-03-10T20:20:49Z</time>
      </trkpt>
      <trkpt lat="44.30346" lon="3.17221">
        <ele>865</ele>
        <time>2020-03-10T20:20:53Z</time>
      </trkpt>
      <trkpt lat="44.30368" lon="3.17225">
        <ele>866</ele>
        <time>2020-03-10T20:20:57Z</time>
      </trkpt>
      <trkpt lat="44.3042" lon="3.17243">
        <ele>868</ele>
        <time>2020-03-10T20:21:06Z</time>
      </trkpt>
      <trkpt lat="44.30459" lon="3.17259">
        <ele>871</ele>
        <time>2020-03-10T20:21:14Z</time>
      </trkpt>
      <trkpt lat="44.30486" lon="3.17277">
        <ele>872</ele>
        <time>2020-03-10T20:21:19Z</time>
      </trkpt>
      <trkpt lat="44.30512" lon="3.173">
        <ele>871</ele>
        <time>2020-03-10T20:21:24Z</time>
      </trkpt>
      <trkpt lat="44.30531" lon="3.17309">
        <ele>870</ele>
        <time>2020-03-10T20:21:28Z</time>
      </trkpt>
      <trkpt lat="44.3054" lon="3.17311">
        <ele>870</ele>
        <time>2020-03-10T20:21:30Z</time>
      </trkpt>
      <trkpt lat="44.30547" lon="3.17311">
        <ele>870</ele>
        <time>2020-03-10T20:21:31Z</time>
      </trkpt>
      <trkpt lat="44.30565" lon="3.17303">
        <ele>871</ele>
        <time>2020-03-10T20:21:34Z</time>
      </trkpt>
      <trkpt lat="44.30596" lon="3.17274">
        <ele>872</ele>
        <time>2020-03-10T20:21:41Z</time>
      </trkpt>
      <trkpt lat="44.3061" lon="3.17265">
        <ele>871</ele>
        <time>2020-03-10T20:21:44Z</time>
      </trkpt>
      <trkpt lat="44.30636" lon="3.17255">
        <ele>870</ele>
        <time>2020-03-10T20:21:48Z</time>
      </trkpt>
      <trkpt lat="44.30666" lon="3.1725">
        <ele>868</ele>
        <time>2020-03-10T20:21:54Z</time>
      </trkpt>
      <trkpt lat="44.30716" lon="3.17232">
        <ele>867</ele>
        <time>2020-03-10T20:22:03Z</time>
      </trkpt>
      <trkpt lat="44.30727" lon="3.1723">
        <ele>866</ele>
        <time>2020-03-10T20:22:05Z</time>
      </trkpt>
      <trkpt lat="44.30751" lon="3.17232">
        <ele>865</ele>
        <time>2020-03-10T20:22:09Z</time>
      </trkpt>
      <trkpt lat="44.30759" lon="3.17234">
        <ele>865</ele>
        <time>2020-03-10T20:22:11Z</time>
      </trkpt>
      <trkpt lat="44.30758" lon="3.17238">
        <ele>865</ele>
        <time>2020-03-10T20:22:11Z</time>
      </trkpt>
      <trkpt lat="44.30762" lon="3.17246">
        <ele>865</ele>
        <time>2020-03-10T20:22:12Z</time>
      </trkpt>
      <trkpt lat="44.30769" lon="3.17248">
        <ele>865</ele>
        <time>2020-03-10T20:22:14Z</time>
      </trkpt>
      <trkpt lat="44.30773" lon="3.17245">
        <ele>866</ele>
        <time>2020-03-10T20:22:15Z</time>
      </trkpt>
      <trkpt lat="44.3078" lon="3.17272">
        <ele>865</ele>
        <time>2020-03-10T20:22:18Z</time>
      </trkpt>
      <trkpt lat="44.30802" lon="3.17335">
        <ele>867</ele>
        <time>2020-03-10T20:22:27Z</time>
      </trkpt>
      <trkpt lat="44.30832" lon="3.17408">
        <ele>870</ele>
        <time>2020-03-10T20:22:38Z</time>
      </trkpt>
      <trkpt lat="44.30841" lon="3.17413">
        <ele>870</ele>
        <time>2020-03-10T20:22:40Z</time>
      </trkpt>
      <trkpt lat="44.30856" lon="3.17414">
        <ele>871</ele>
        <time>2020-03-10T20:22:42Z</time>
      </trkpt>
      <trkpt lat="44.30973" lon="3.17403">
        <ele>873</ele>
        <time>2020-03-10T20:23:03Z</time>
      </trkpt>
      <trkpt lat="44.31016" lon="3.17395">
        <ele>874</ele>
        <time>2020-03-10T20:23:11Z</time>
      </trkpt>
      <trkpt lat="44.31037" lon="3.17395">
        <ele>875</ele>
        <time>2020-03-10T20:23:15Z</time>
      </trkpt>
      <trkpt lat="44.31067" lon="3.17401">
        <ele>876</ele>
        <time>2020-03-10T20:23:20Z</time>
      </trkpt>
      <trkpt lat="44.31092" lon="3.1741">
        <ele>877</ele>
        <time>2020-03-10T20:23:25Z</time>
      </trkpt>
      <trkpt lat="44.31265" lon="3.17528">
        <ele>882</ele>
        <time>2020-03-10T20:23:59Z</time>
      </trkpt>
      <trkpt lat="44.3128" lon="3.17558">
        <ele>881</ele>
        <time>2020-03-10T20:24:03Z</time>
      </trkpt>
      <trkpt lat="44.31296" lon="3.17598">
        <ele>881</ele>
        <time>2020-03-10T20:24:09Z</time>
      </trkpt>
      <trkpt lat="44.31357" lon="3.17866">
        <ele>885</ele>
        <time>2020-03-10T20:24:45Z</time>
      </trkpt>
      <trkpt lat="44.31371" lon="3.17898">
        <ele>885</ele>
        <time>2020-03-10T20:24:50Z</time>
      </trkpt>
      <trkpt lat="44.31387" lon="3.17911">
        <ele>885</ele>
        <time>2020-03-10T20:24:53Z</time>
      </trkpt>
      <trkpt lat="44.31408" lon="3.17916">
        <ele>885</ele>
        <time>2020-03-10T20:24:57Z</time>
      </trkpt>
      <trkpt lat="44.31527" lon="3.1786">
        <ele>884</ele>
        <time>2020-03-10T20:25:19Z</time>
      </trkpt>
      <trkpt lat="44.31574" lon="3.17857">
        <ele>885</ele>
        <time>2020-03-10T20:25:28Z</time>
      </trkpt>
      <trkpt lat="44.31616" lon="3.17873">
        <ele>887</ele>
        <time>2020-03-10T20:25:35Z</time>
      </trkpt>
      <trkpt lat="44.31674" lon="3.17924">
        <ele>889</ele>
        <time>2020-03-10T20:25:48Z</time>
      </trkpt>
      <trkpt lat="44.31719" lon="3.17987">
        <ele>892</ele>
        <time>2020-03-10T20:25:59Z</time>
      </trkpt>
      <trkpt lat="44.31804" lon="3.18155">
        <ele>894</ele>
        <time>2020-03-10T20:26:25Z</time>
      </trkpt>
      <trkpt lat="44.31822" lon="3.18176">
        <ele>895</ele>
        <time>2020-03-10T20:26:29Z</time>
      </trkpt>
      <trkpt lat="44.31849" lon="3.18194">
        <ele>895</ele>
        <time>2020-03-10T20:26:35Z</time>
      </trkpt>
      <trkpt lat="44.31874" lon="3.18202">
        <ele>896</ele>
        <time>2020-03-10T20:26:39Z</time>
      </trkpt>
      <trkpt lat="44.31899" lon="3.18194">
        <ele>897</ele>
        <time>2020-03-10T20:26:44Z</time>
      </trkpt>
      <trkpt lat="44.3192" lon="3.18182">
        <ele>899</ele>
        <time>2020-03-10T20:26:48Z</time>
      </trkpt>
      <trkpt lat="44.31985" lon="3.18133">
        <ele>900</ele>
        <time>2020-03-10T20:27:01Z</time>
      </trkpt>
      <trkpt lat="44.3203" lon="3.18092">
        <ele>904</ele>
        <time>2020-03-10T20:27:10Z</time>
      </trkpt>
      <trkpt lat="44.32098" lon="3.18002">
        <ele>905</ele>
        <time>2020-03-10T20:27:27Z</time>
      </trkpt>
      <trkpt lat="44.32124" lon="3.17988">
        <ele>906</ele>
        <time>2020-03-10T20:27:32Z</time>
      </trkpt>
      <trkpt lat="44.32145" lon="3.17982">
        <ele>907</ele>
        <time>2020-03-10T20:27:36Z</time>
      </trkpt>
      <trkpt lat="44.32198" lon="3.17975">
        <ele>908</ele>
        <time>2020-03-10T20:27:45Z</time>
      </trkpt>
      <trkpt lat="44.32247" lon="3.17964">
        <ele>908</ele>
        <time>2020-03-10T20:27:54Z</time>
      </trkpt>
      <trkpt lat="44.32315" lon="3.17934">
        <ele>911</ele>
        <time>2020-03-10T20:28:07Z</time>
      </trkpt>
      <trkpt lat="44.32365" lon="3.17919">
        <ele>912</ele>
        <time>2020-03-10T20:28:16Z</time>
      </trkpt>
      <trkpt lat="44.32581" lon="3.17889">
        <ele>912</ele>
        <time>2020-03-10T20:28:55Z</time>
      </trkpt>
      <trkpt lat="44.32652" lon="3.17888">
        <ele>916</ele>
        <time>2020-03-10T20:29:07Z</time>
      </trkpt>
      <trkpt lat="44.32723" lon="3.1789">
        <ele>919</ele>
        <time>2020-03-10T20:29:20Z</time>
      </trkpt>
      <trkpt lat="44.32749" lon="3.17888">
        <ele>920</ele>
        <time>2020-03-10T20:29:25Z</time>
      </trkpt>
      <trkpt lat="44.32773" lon="3.17882">
        <ele>920</ele>
        <time>2020-03-10T20:29:29Z</time>
      </trkpt>
      <trkpt lat="44.3282" lon="3.17856">
        <ele>921</ele>
        <time>2020-03-10T20:29:38Z</time>
      </trkpt>
      <trkpt lat="44.32841" lon="3.17852">
        <ele>921</ele>
        <time>2020-03-10T20:29:42Z</time>
      </trkpt>
      <trkpt lat="44.32865" lon="3.17859">
        <ele>920</ele>
        <time>2020-03-10T20:29:46Z</time>
      </trkpt>
      <trkpt lat="44.32882" lon="3.17873">
        <ele>920</ele>
        <time>2020-03-10T20:29:50Z</time>
      </trkpt>
      <trkpt lat="44.329" lon="3.179">
        <ele>919</ele>
        <time>2020-03-10T20:29:54Z</time>
      </trkpt>
      <trkpt lat="44.32949" lon="3.18006">
        <ele>915</ele>
        <time>2020-03-10T20:30:10Z</time>
      </trkpt>
      <trkpt lat="44.33266" lon="3.1833">
        <ele>906</ele>
        <time>2020-03-10T20:31:20Z</time>
      </trkpt>
      <trkpt lat="44.33334" lon="3.18375">
        <ele>901</ele>
        <time>2020-03-10T20:31:34Z</time>
      </trkpt>
      <trkpt lat="44.33401" lon="3.18408">
        <ele>896</ele>
        <time>2020-03-10T20:31:46Z</time>
      </trkpt>
      <trkpt lat="44.3343" lon="3.18428">
        <ele>894</ele>
        <time>2020-03-10T20:31:52Z</time>
      </trkpt>
      <trkpt lat="44.33458" lon="3.18451">
        <ele>892</ele>
        <time>2020-03-10T20:31:58Z</time>
      </trkpt>
      <trkpt lat="44.33477" lon="3.18473">
        <ele>891</ele>
        <time>2020-03-10T20:32:02Z</time>
      </trkpt>
      <trkpt lat="44.33495" lon="3.18505">
        <ele>889</ele>
        <time>2020-03-10T20:32:07Z</time>
      </trkpt>
      <trkpt lat="44.33509" lon="3.1854">
        <ele>889</ele>
        <time>2020-03-10T20:32:12Z</time>
      </trkpt>
      <trkpt lat="44.33517" lon="3.18578">
        <ele>889</ele>
        <time>2020-03-10T20:32:17Z</time>
      </trkpt>
      <trkpt lat="44.33517" lon="3.18808">
        <ele>886</ele>
        <time>2020-03-10T20:32:47Z</time>
      </trkpt>
      <trkpt lat="44.33521" lon="3.18874">
        <ele>884</ele>
        <time>2020-03-10T20:32:55Z</time>
      </trkpt>
      <trkpt lat="44.33538" lon="3.18941">
        <ele>883</ele>
        <time>2020-03-10T20:33:04Z</time>
      </trkpt>
      <trkpt lat="44.33563" lon="3.18992">
        <ele>882</ele>
        <time>2020-03-10T20:33:12Z</time>
      </trkpt>
      <trkpt lat="44.33582" lon="3.19036">
        <ele>881</ele>
        <time>2020-03-10T20:33:19Z</time>
      </trkpt>
      <trkpt lat="44.3361" lon="3.19154">
        <ele>878</ele>
        <time>2020-03-10T20:33:34Z</time>
      </trkpt>
      <trkpt lat="44.33652" lon="3.19227">
        <ele>879</ele>
        <time>2020-03-10T20:33:46Z</time>
      </trkpt>
      <trkpt lat="44.33663" lon="3.19268">
        <ele>878</ele>
        <time>2020-03-10T20:33:52Z</time>
      </trkpt>
      <trkpt lat="44.33661" lon="3.19344">
        <ele>873</ele>
        <time>2020-03-10T20:34:02Z</time>
      </trkpt>
      <trkpt lat="44.33663" lon="3.1938">
        <ele>871</ele>
        <time>2020-03-10T20:34:06Z</time>
      </trkpt>
      <trkpt lat="44.33672" lon="3.19416">
        <ele>870</ele>
        <time>2020-03-10T20:34:11Z</time>
      </trkpt>
      <trkpt lat="44.33708" lon="3.19478">
        <ele>871</ele>
        <time>2020-03-10T20:34:21Z</time>
      </trkpt>
      <trkpt lat="44.3373" lon="3.19532">
        <ele>871</ele>
        <time>2020-03-10T20:34:29Z</time>
      </trkpt>
      <trkpt lat="44.33738" lon="3.19584">
        <ele>867</ele>
        <time>2020-03-10T20:34:36Z</time>
      </trkpt>
      <trkpt lat="44.33744" lon="3.19656">
        <ele>864</ele>
        <time>2020-03-10T20:34:45Z</time>
      </trkpt>
      <trkpt lat="44.33756" lon="3.19728">
        <ele>861</ele>
        <time>2020-03-10T20:34:54Z</time>
      </trkpt>
      <trkpt lat="44.33784" lon="3.19781">
        <ele>860</ele>
        <time>2020-03-10T20:35:03Z</time>
      </trkpt>
      <trkpt lat="44.33817" lon="3.19821">
        <ele>859</ele>
        <time>2020-03-10T20:35:11Z</time>
      </trkpt>
      <trkpt lat="44.33844" lon="3.19864">
        <ele>858</ele>
        <time>2020-03-10T20:35:18Z</time>
      </trkpt>
      <trkpt lat="44.33855" lon="3.19911">
        <ele>856</ele>
        <time>2020-03-10T20:35:24Z</time>
      </trkpt>
      <trkpt lat="44.33853" lon="3.1995">
        <ele>854</ele>
        <time>2020-03-10T20:35:29Z</time>
      </trkpt>
      <trkpt lat="44.33845" lon="3.19989">
        <ele>852</ele>
        <time>2020-03-10T20:35:34Z</time>
      </trkpt>
      <trkpt lat="44.33819" lon="3.20062">
        <ele>849</ele>
        <time>2020-03-10T20:35:45Z</time>
      </trkpt>
      <trkpt lat="44.338" lon="3.2014">
        <ele>847</ele>
        <time>2020-03-10T20:35:55Z</time>
      </trkpt>
      <trkpt lat="44.33773" lon="3.20271">
        <ele>844</ele>
        <time>2020-03-10T20:36:13Z</time>
      </trkpt>
      <trkpt lat="44.3374" lon="3.2038">
        <ele>841</ele>
        <time>2020-03-10T20:36:28Z</time>
      </trkpt>
      <trkpt lat="44.33734" lon="3.20425">
        <ele>841</ele>
        <time>2020-03-10T20:36:33Z</time>
      </trkpt>
      <trkpt lat="44.33749" lon="3.20613">
        <ele>841</ele>
        <time>2020-03-10T20:36:58Z</time>
      </trkpt>
      <trkpt lat="44.33758" lon="3.20646">
        <ele>842</ele>
        <time>2020-03-10T20:37:02Z</time>
      </trkpt>
      <trkpt lat="44.33774" lon="3.20669">
        <ele>841</ele>
        <time>2020-03-10T20:37:06Z</time>
      </trkpt>
      <trkpt lat="44.33795" lon="3.20684">
        <ele>841</ele>
        <time>2020-03-10T20:37:10Z</time>
      </trkpt>
      <trkpt lat="44.33874" lon="3.20711">
        <ele>839</ele>
        <time>2020-03-10T20:37:25Z</time>
      </trkpt>
      <trkpt lat="44.33902" lon="3.20727">
        <ele>838</ele>
        <time>2020-03-10T20:37:30Z</time>
      </trkpt>
      <trkpt lat="44.33925" lon="3.20745">
        <ele>838</ele>
        <time>2020-03-10T20:37:35Z</time>
      </trkpt>
      <trkpt lat="44.34056" lon="3.2087">
        <ele>836</ele>
        <time>2020-03-10T20:38:03Z</time>
      </trkpt>
      <trkpt lat="44.34076" lon="3.20897">
        <ele>836</ele>
        <time>2020-03-10T20:38:08Z</time>
      </trkpt>
      <trkpt lat="44.34092" lon="3.20929">
        <ele>836</ele>
        <time>2020-03-10T20:38:13Z</time>
      </trkpt>
      <trkpt lat="44.34099" lon="3.20966">
        <ele>834</ele>
        <time>2020-03-10T20:38:18Z</time>
      </trkpt>
      <trkpt lat="44.34097" lon="3.21001">
        <ele>834</ele>
        <time>2020-03-10T20:38:22Z</time>
      </trkpt>
      <trkpt lat="44.3409" lon="3.21032">
        <ele>833</ele>
        <time>2020-03-10T20:38:26Z</time>
      </trkpt>
      <trkpt lat="44.34078" lon="3.21062">
        <ele>833</ele>
        <time>2020-03-10T20:38:31Z</time>
      </trkpt>
      <trkpt lat="44.34056" lon="3.21102">
        <ele>833</ele>
        <time>2020-03-10T20:38:37Z</time>
      </trkpt>
      <trkpt lat="44.34041" lon="3.21145">
        <ele>832</ele>
        <time>2020-03-10T20:38:43Z</time>
      </trkpt>
      <trkpt lat="44.34038" lon="3.21174">
        <ele>831</ele>
        <time>2020-03-10T20:38:47Z</time>
      </trkpt>
      <trkpt lat="44.34036" lon="3.21231">
        <ele>831</ele>
        <time>2020-03-10T20:38:54Z</time>
      </trkpt>
      <trkpt lat="44.34032" lon="3.21269">
        <ele>832</ele>
        <time>2020-03-10T20:38:59Z</time>
      </trkpt>
      <trkpt lat="44.34027" lon="3.21287">
        <ele>832</ele>
        <time>2020-03-10T20:39:02Z</time>
      </trkpt>
      <trkpt lat="44.34017" lon="3.21311">
        <ele>832</ele>
        <time>2020-03-10T20:39:05Z</time>
      </trkpt>
      <trkpt lat="44.33968" lon="3.21398">
        <ele>832</ele>
        <time>2020-03-10T20:39:19Z</time>
      </trkpt>
      <trkpt lat="44.33952" lon="3.21436">
        <ele>833</ele>
        <time>2020-03-10T20:39:25Z</time>
      </trkpt>
      <trkpt lat="44.33933" lon="3.21498">
        <ele>833</ele>
        <time>2020-03-10T20:39:33Z</time>
      </trkpt>
      <trkpt lat="44.33927" lon="3.21538">
        <ele>833</ele>
        <time>2020-03-10T20:39:39Z</time>
      </trkpt>
      <trkpt lat="44.33928" lon="3.21585">
        <ele>831</ele>
        <time>2020-03-10T20:39:45Z</time>
      </trkpt>
      <trkpt lat="44.33938" lon="3.21643">
        <ele>830</ele>
        <time>2020-03-10T20:39:52Z</time>
      </trkpt>
      <trkpt lat="44.33958" lon="3.21694">
        <ele>829</ele>
        <time>2020-03-10T20:40:00Z</time>
      </trkpt>
      <trkpt lat="44.34061" lon="3.21928">
        <ele>829</ele>
        <time>2020-03-10T20:40:35Z</time>
      </trkpt>
      <trkpt lat="44.3409" lon="3.21975">
        <ele>828</ele>
        <time>2020-03-10T20:40:43Z</time>
      </trkpt>
      <trkpt lat="44.34183" lon="3.22096">
        <ele>827</ele>
        <time>2020-03-10T20:41:05Z</time>
      </trkpt>
      <trkpt lat="44.34208" lon="3.22139">
        <ele>828</ele>
        <time>2020-03-10T20:41:12Z</time>
      </trkpt>
      <trkpt lat="44.34219" lon="3.22171">
        <ele>829</ele>
        <time>2020-03-10T20:41:17Z</time>
      </trkpt>
      <trkpt lat="44.34228" lon="3.22224">
        <ele>830</ele>
        <time>2020-03-10T20:41:24Z</time>
      </trkpt>
      <trkpt lat="44.34234" lon="3.22319">
        <ele>829</ele>
        <time>2020-03-10T20:41:36Z</time>
      </trkpt>
      <trkpt lat="44.34242" lon="3.2247">
        <ele>821</ele>
        <time>2020-03-10T20:41:55Z</time>
      </trkpt>
      <trkpt lat="44.34245" lon="3.22508">
        <ele>820</ele>
        <time>2020-03-10T20:42:00Z</time>
      </trkpt>
      <trkpt lat="44.34252" lon="3.22541">
        <ele>820</ele>
        <time>2020-03-10T20:42:04Z</time>
      </trkpt>
      <trkpt lat="44.34289" lon="3.22678">
        <ele>823</ele>
        <time>2020-03-10T20:42:23Z</time>
      </trkpt>
      <trkpt lat="44.34296" lon="3.22719">
        <ele>823</ele>
        <time>2020-03-10T20:42:28Z</time>
      </trkpt>
      <trkpt lat="44.34297" lon="3.22737">
        <ele>822</ele>
        <time>2020-03-10T20:42:31Z</time>
      </trkpt>
      <trkpt lat="44.34296" lon="3.22775">
        <ele>822</ele>
        <time>2020-03-10T20:42:35Z</time>
      </trkpt>
      <trkpt lat="44.34289" lon="3.22885">
        <ele>823</ele>
        <time>2020-03-10T20:42:49Z</time>
      </trkpt>
      <trkpt lat="44.34287" lon="3.22938">
        <ele>826</ele>
        <time>2020-03-10T20:42:56Z</time>
      </trkpt>
      <trkpt lat="44.3429" lon="3.22975">
        <ele>827</ele>
        <time>2020-03-10T20:43:01Z</time>
      </trkpt>
      <trkpt lat="44.34323" lon="3.23081">
        <ele>830</ele>
        <time>2020-03-10T20:43:16Z</time>
      </trkpt>
      <trkpt lat="44.3435" lon="3.23196">
        <ele>832</ele>
        <time>2020-03-10T20:43:31Z</time>
      </trkpt>
      <trkpt lat="44.34369" lon="3.2323">
        <ele>832</ele>
        <time>2020-03-10T20:43:37Z</time>
      </trkpt>
      <trkpt lat="44.34403" lon="3.2327">
        <ele>830</ele>
        <time>2020-03-10T20:43:44Z</time>
      </trkpt>
      <trkpt lat="44.34431" lon="3.23295">
        <ele>831</ele>
        <time>2020-03-10T20:43:50Z</time>
      </trkpt>
      <trkpt lat="44.34499" lon="3.2334">
        <ele>831</ele>
        <time>2020-03-10T20:44:04Z</time>
      </trkpt>
      <trkpt lat="44.34542" lon="3.2336">
        <ele>834</ele>
        <time>2020-03-10T20:44:12Z</time>
      </trkpt>
      <trkpt lat="44.34578" lon="3.23373">
        <ele>836</ele>
        <time>2020-03-10T20:44:18Z</time>
      </trkpt>
      <trkpt lat="44.34589" lon="3.23379">
        <ele>836</ele>
        <time>2020-03-10T20:44:21Z</time>
      </trkpt>
      <trkpt lat="44.34598" lon="3.2339">
        <ele>836</ele>
        <time>2020-03-10T20:44:23Z</time>
      </trkpt>
      <trkpt lat="44.34604" lon="3.23402">
        <ele>835</ele>
        <time>2020-03-10T20:44:25Z</time>
      </trkpt>
      <trkpt lat="44.34613" lon="3.23444">
        <ele>835</ele>
        <time>2020-03-10T20:44:30Z</time>
      </trkpt>
      <trkpt lat="44.34641" lon="3.23626">
        <ele>837</ele>
        <time>2020-03-10T20:44:54Z</time>
      </trkpt>
      <trkpt lat="44.34652" lon="3.23683">
        <ele>837</ele>
        <time>2020-03-10T20:45:01Z</time>
      </trkpt>
      <trkpt lat="44.34666" lon="3.2371">
        <ele>838</ele>
        <time>2020-03-10T20:45:06Z</time>
      </trkpt>
      <trkpt lat="44.34683" lon="3.23735">
        <ele>839</ele>
        <time>2020-03-10T20:45:10Z</time>
      </trkpt>
      <trkpt lat="44.34793" lon="3.2386">
        <ele>843</ele>
        <time>2020-03-10T20:45:35Z</time>
      </trkpt>
      <trkpt lat="44.34831" lon="3.23895">
        <ele>842</ele>
        <time>2020-03-10T20:45:43Z</time>
      </trkpt>
      <trkpt lat="44.35051" lon="3.24068">
        <ele>840</ele>
        <time>2020-03-10T20:46:28Z</time>
      </trkpt>
      <trkpt lat="44.35066" lon="3.24086">
        <ele>840</ele>
        <time>2020-03-10T20:46:32Z</time>
      </trkpt>
      <trkpt lat="44.35081" lon="3.24106">
        <ele>841</ele>
        <time>2020-03-10T20:46:35Z</time>
      </trkpt>
      <trkpt lat="44.35112" lon="3.24161">
        <ele>841</ele>
        <time>2020-03-10T20:46:44Z</time>
      </trkpt>
      <trkpt lat="44.3529" lon="3.24485">
        <ele>853</ele>
        <time>2020-03-10T20:47:36Z</time>
      </trkpt>
      <trkpt lat="44.353" lon="3.24511">
        <ele>853</ele>
        <time>2020-03-10T20:47:40Z</time>
      </trkpt>
      <trkpt lat="44.35305" lon="3.24533">
        <ele>852</ele>
        <time>2020-03-10T20:47:43Z</time>
      </trkpt>
      <trkpt lat="44.35306" lon="3.24567">
        <ele>851</ele>
        <time>2020-03-10T20:47:47Z</time>
      </trkpt>
      <trkpt lat="44.353" lon="3.24677">
        <ele>849</ele>
        <time>2020-03-10T20:48:01Z</time>
      </trkpt>
      <trkpt lat="44.35302" lon="3.24733">
        <ele>850</ele>
        <time>2020-03-10T20:48:08Z</time>
      </trkpt>
      <trkpt lat="44.35337" lon="3.24974">
        <ele>856</ele>
        <time>2020-03-10T20:48:40Z</time>
      </trkpt>
      <trkpt lat="44.35347" lon="3.25003">
        <ele>857</ele>
        <time>2020-03-10T20:48:44Z</time>
      </trkpt>
      <trkpt lat="44.35368" lon="3.25031">
        <ele>859</ele>
        <time>2020-03-10T20:48:49Z</time>
      </trkpt>
      <trkpt lat="44.35687" lon="3.25249">
        <ele>861</ele>
        <time>2020-03-10T20:49:52Z</time>
      </trkpt>
      <trkpt lat="44.35721" lon="3.25282">
        <ele>863</ele>
        <time>2020-03-10T20:50:00Z</time>
      </trkpt>
      <trkpt lat="44.35742" lon="3.25308">
        <ele>864</ele>
        <time>2020-03-10T20:50:05Z</time>
      </trkpt>
      <trkpt lat="44.3576" lon="3.25337">
        <ele>865</ele>
        <time>2020-03-10T20:50:09Z</time>
      </trkpt>
      <trkpt lat="44.35788" lon="3.25399">
        <ele>862</ele>
        <time>2020-03-10T20:50:19Z</time>
      </trkpt>
      <trkpt lat="44.35814" lon="3.25484">
        <ele>853</ele>
        <time>2020-03-10T20:50:31Z</time>
      </trkpt>
      <trkpt lat="44.35836" lon="3.25536">
        <ele>851</ele>
        <time>2020-03-10T20:50:38Z</time>
      </trkpt>
      <trkpt lat="44.35876" lon="3.25603">
        <ele>850</ele>
        <time>2020-03-10T20:50:49Z</time>
      </trkpt>
      <trkpt lat="44.35905" lon="3.25642">
        <ele>848</ele>
        <time>2020-03-10T20:50:56Z</time>
      </trkpt>
      <trkpt lat="44.35945" lon="3.2568">
        <ele>844</ele>
        <time>2020-03-10T20:51:05Z</time>
      </trkpt>
      <trkpt lat="44.35979" lon="3.25699">
        <ele>839</ele>
        <time>2020-03-10T20:51:12Z</time>
      </trkpt>
      <trkpt lat="44.36007" lon="3.25705">
        <ele>836</ele>
        <time>2020-03-10T20:51:17Z</time>
      </trkpt>
      <trkpt lat="44.3606" lon="3.25706">
        <ele>832</ele>
        <time>2020-03-10T20:51:26Z</time>
      </trkpt>
      <trkpt lat="44.36085" lon="3.25713">
        <ele>831</ele>
        <time>2020-03-10T20:51:31Z</time>
      </trkpt>
      <trkpt lat="44.36164" lon="3.25751">
        <ele>824</ele>
        <time>2020-03-10T20:51:45Z</time>
      </trkpt>
      <trkpt lat="44.36277" lon="3.2581">
        <ele>818</ele>
        <time>2020-03-10T20:52:07Z</time>
      </trkpt>
      <trkpt lat="44.36319" lon="3.25874">
        <ele>816</ele>
        <time>2020-03-10T20:52:18Z</time>
      </trkpt>
      <trkpt lat="44.36334" lon="3.2589">
        <ele>816</ele>
        <time>2020-03-10T20:52:21Z</time>
      </trkpt>
      <trkpt lat="44.36355" lon="3.25901">
        <ele>814</ele>
        <time>2020-03-10T20:52:25Z</time>
      </trkpt>
      <trkpt lat="44.3646" lon="3.25923">
        <ele>810</ele>
        <time>2020-03-10T20:52:44Z</time>
      </trkpt>
      <trkpt lat="44.36493" lon="3.25925">
        <ele>808</ele>
        <time>2020-03-10T20:52:50Z</time>
      </trkpt>
      <trkpt lat="44.36563" lon="3.25921">
        <ele>810</ele>
        <time>2020-03-10T20:53:03Z</time>
      </trkpt>
      <trkpt lat="44.36624" lon="3.25908">
        <ele>813</ele>
        <time>2020-03-10T20:53:14Z</time>
      </trkpt>
      <trkpt lat="44.36677" lon="3.25889">
        <ele>814</ele>
        <time>2020-03-10T20:53:23Z</time>
      </trkpt>
      <trkpt lat="44.36711" lon="3.25871">
        <ele>815</ele>
        <time>2020-03-10T20:53:30Z</time>
      </trkpt>
      <trkpt lat="44.36749" lon="3.25849">
        <ele>815</ele>
        <time>2020-03-10T20:53:37Z</time>
      </trkpt>
      <trkpt lat="44.36763" lon="3.25845">
        <ele>816</ele>
        <time>2020-03-10T20:53:40Z</time>
      </trkpt>
      <trkpt lat="44.36779" lon="3.25845">
        <ele>817</ele>
        <time>2020-03-10T20:53:42Z</time>
      </trkpt>
      <trkpt lat="44.36797" lon="3.2585">
        <ele>818</ele>
        <time>2020-03-10T20:53:46Z</time>
      </trkpt>
      <trkpt lat="44.36864" lon="3.25886">
        <ele>821</ele>
        <time>2020-03-10T20:53:58Z</time>
      </trkpt>
      <trkpt lat="44.36899" lon="3.25896">
        <ele>821</ele>
        <time>2020-03-10T20:54:05Z</time>
      </trkpt>
      <trkpt lat="44.36949" lon="3.25897">
        <ele>821</ele>
        <time>2020-03-10T20:54:14Z</time>
      </trkpt>
      <trkpt lat="44.37014" lon="3.25889">
        <ele>821</ele>
        <time>2020-03-10T20:54:25Z</time>
      </trkpt>
      <trkpt lat="44.37045" lon="3.2589">
        <ele>821</ele>
        <time>2020-03-10T20:54:31Z</time>
      </trkpt>
      <trkpt lat="44.37068" lon="3.25897">
        <ele>821</ele>
        <time>2020-03-10T20:54:35Z</time>
      </trkpt>
      <trkpt lat="44.37083" lon="3.25905">
        <ele>821</ele>
        <time>2020-03-10T20:54:38Z</time>
      </trkpt>
      <trkpt lat="44.37096" lon="3.25918">
        <ele>821</ele>
        <time>2020-03-10T20:54:41Z</time>
      </trkpt>
      <trkpt lat="44.37146" lon="3.25981">
        <ele>822</ele>
        <time>2020-03-10T20:54:53Z</time>
      </trkpt>
      <trkpt lat="44.37188" lon="3.26044">
        <ele>825</ele>
        <time>2020-03-10T20:55:04Z</time>
      </trkpt>
      <trkpt lat="44.37238" lon="3.26101">
        <ele>826</ele>
        <time>2020-03-10T20:55:15Z</time>
      </trkpt>
      <trkpt lat="44.37251" lon="3.26117">
        <ele>826</ele>
        <time>2020-03-10T20:55:18Z</time>
      </trkpt>
      <trkpt lat="44.37264" lon="3.26145">
        <ele>828</ele>
        <time>2020-03-10T20:55:22Z</time>
      </trkpt>
      <trkpt lat="44.37322" lon="3.26276">
        <ele>829</ele>
        <time>2020-03-10T20:55:42Z</time>
      </trkpt>
      <trkpt lat="44.37481" lon="3.26531">
        <ele>835</ele>
        <time>2020-03-10T20:56:25Z</time>
      </trkpt>
      <trkpt lat="44.37497" lon="3.26565">
        <ele>832</ele>
        <time>2020-03-10T20:56:30Z</time>
      </trkpt>
      <trkpt lat="44.37506" lon="3.26596">
        <ele>833</ele>
        <time>2020-03-10T20:56:35Z</time>
      </trkpt>
      <trkpt lat="44.37513" lon="3.26632">
        <ele>836</ele>
        <time>2020-03-10T20:56:39Z</time>
      </trkpt>
      <trkpt lat="44.37518" lon="3.26682">
        <ele>840</ele>
        <time>2020-03-10T20:56:46Z</time>
      </trkpt>
      <trkpt lat="44.37519" lon="3.26719">
        <ele>842</ele>
        <time>2020-03-10T20:56:50Z</time>
      </trkpt>
      <trkpt lat="44.37517" lon="3.26758">
        <ele>843</ele>
        <time>2020-03-10T20:56:55Z</time>
      </trkpt>
      <trkpt lat="44.375" lon="3.26879">
        <ele>841</ele>
        <time>2020-03-10T20:57:11Z</time>
      </trkpt>
      <trkpt lat="44.37498" lon="3.2691">
        <ele>840</ele>
        <time>2020-03-10T20:57:15Z</time>
      </trkpt>
      <trkpt lat="44.375" lon="3.26937">
        <ele>841</ele>
        <time>2020-03-10T20:57:18Z</time>
      </trkpt>
      <trkpt lat="44.37515" lon="3.26968">
        <ele>844</ele>
        <time>2020-03-10T20:57:23Z</time>
      </trkpt>
      <trkpt lat="44.37575" lon="3.27061">
        <ele>854</ele>
        <time>2020-03-10T20:57:39Z</time>
      </trkpt>
      <trkpt lat="44.37619" lon="3.27135">
        <ele>856</ele>
        <time>2020-03-10T20:57:51Z</time>
      </trkpt>
      <trkpt lat="44.37633" lon="3.27188">
        <ele>854</ele>
        <time>2020-03-10T20:57:59Z</time>
      </trkpt>
      <trkpt lat="44.37644" lon="3.27217">
        <ele>852</ele>
        <time>2020-03-10T20:58:03Z</time>
      </trkpt>
      <trkpt lat="44.37706" lon="3.27306">
        <ele>844</ele>
        <time>2020-03-10T20:58:19Z</time>
      </trkpt>
      <trkpt lat="44.37747" lon="3.27359">
        <ele>843</ele>
        <time>2020-03-10T20:58:29Z</time>
      </trkpt>
      <trkpt lat="44.37778" lon="3.27383">
        <ele>845</ele>
        <time>2020-03-10T20:58:35Z</time>
      </trkpt>
      <trkpt lat="44.37814" lon="3.27401">
        <ele>848</ele>
        <time>2020-03-10T20:58:42Z</time>
      </trkpt>
      <trkpt lat="44.37839" lon="3.27417">
        <ele>851</ele>
        <time>2020-03-10T20:58:47Z</time>
      </trkpt>
      <trkpt lat="44.3786" lon="3.27438">
        <ele>854</ele>
        <time>2020-03-10T20:58:51Z</time>
      </trkpt>
      <trkpt lat="44.37902" lon="3.27504">
        <ele>859</ele>
        <time>2020-03-10T20:59:02Z</time>
      </trkpt>
      <trkpt lat="44.37926" lon="3.27531">
        <ele>860</ele>
        <time>2020-03-10T20:59:08Z</time>
      </trkpt>
      <trkpt lat="44.37959" lon="3.27556">
        <ele>867</ele>
        <time>2020-03-10T20:59:15Z</time>
      </trkpt>
      <trkpt lat="44.37975" lon="3.27576">
        <ele>871</ele>
        <time>2020-03-10T20:59:18Z</time>
      </trkpt>
      <trkpt lat="44.37989" lon="3.27603">
        <ele>873</ele>
        <time>2020-03-10T20:59:23Z</time>
      </trkpt>
      <trkpt lat="44.37997" lon="3.27636">
        <ele>874</ele>
        <time>2020-03-10T20:59:27Z</time>
      </trkpt>
      <trkpt lat="44.38002" lon="3.27686">
        <ele>873</ele>
        <time>2020-03-10T20:59:33Z</time>
      </trkpt>
      <trkpt lat="44.38008" lon="3.27713">
        <ele>874</ele>
        <time>2020-03-10T20:59:37Z</time>
      </trkpt>
      <trkpt lat="44.38017" lon="3.27734">
        <ele>875</ele>
        <time>2020-03-10T20:59:40Z</time>
      </trkpt>
      <trkpt lat="44.38029" lon="3.27752">
        <ele>877</ele>
        <time>2020-03-10T20:59:43Z</time>
      </trkpt>
      <trkpt lat="44.38089" lon="3.27812">
        <ele>885</ele>
        <time>2020-03-10T20:59:56Z</time>
      </trkpt>
      <trkpt lat="44.38105" lon="3.27842">
        <ele>888</ele>
        <time>2020-03-10T21:00:01Z</time>
      </trkpt>
      <trkpt lat="44.38137" lon="3.27961">
        <ele>896</ele>
        <time>2020-03-10T21:00:17Z</time>
      </trkpt>
      <trkpt lat="44.38152" lon="3.27998">
        <ele>898</ele>
        <time>2020-03-10T21:00:23Z</time>
      </trkpt>
      <trkpt lat="44.38172" lon="3.28029">
        <ele>901</ele>
        <time>2020-03-10T21:00:28Z</time>
      </trkpt>
      <trkpt lat="44.38202" lon="3.28057">
        <ele>902</ele>
        <time>2020-03-10T21:00:34Z</time>
      </trkpt>
      <trkpt lat="44.38347" lon="3.28159">
        <ele>907</ele>
        <time>2020-03-10T21:01:03Z</time>
      </trkpt>
      <trkpt lat="44.38485" lon="3.283">
        <ele>903</ele>
        <time>2020-03-10T21:01:34Z</time>
      </trkpt>
      <trkpt lat="44.38545" lon="3.28367">
        <ele>899</ele>
        <time>2020-03-10T21:01:47Z</time>
      </trkpt>
      <trkpt lat="44.38571" lon="3.28419">
        <ele>899</ele>
        <time>2020-03-10T21:01:55Z</time>
      </trkpt>
      <trkpt lat="44.38582" lon="3.28455">
        <ele>900</ele>
        <time>2020-03-10T21:02:00Z</time>
      </trkpt>
      <trkpt lat="44.38593" lon="3.28501">
        <ele>901</ele>
        <time>2020-03-10T21:02:07Z</time>
      </trkpt>
      <trkpt lat="44.38611" lon="3.28547">
        <ele>902</ele>
        <time>2020-03-10T21:02:13Z</time>
      </trkpt>
      <trkpt lat="44.38648" lon="3.28605">
        <ele>904</ele>
        <time>2020-03-10T21:02:23Z</time>
      </trkpt>
      <trkpt lat="44.38694" lon="3.28665">
        <ele>907</ele>
        <time>2020-03-10T21:02:34Z</time>
      </trkpt>
      <trkpt lat="44.38712" lon="3.28706">
        <ele>909</ele>
        <time>2020-03-10T21:02:40Z</time>
      </trkpt>
      <trkpt lat="44.38761" lon="3.28885">
        <ele>907</ele>
        <time>2020-03-10T21:03:05Z</time>
      </trkpt>
      <trkpt lat="44.38778" lon="3.28918">
        <ele>905</ele>
        <time>2020-03-10T21:03:10Z</time>
      </trkpt>
      <trkpt lat="44.38798" lon="3.28942">
        <ele>900</ele>
        <time>2020-03-10T21:03:15Z</time>
      </trkpt>
      <trkpt lat="44.38821" lon="3.28955">
        <ele>896</ele>
        <time>2020-03-10T21:03:19Z</time>
      </trkpt>
      <trkpt lat="44.38842" lon="3.28964">
        <ele>892</ele>
        <time>2020-03-10T21:03:23Z</time>
      </trkpt>
      <trkpt lat="44.38873" lon="3.28969">
        <ele>891</ele>
        <time>2020-03-10T21:03:29Z</time>
      </trkpt>
      <trkpt lat="44.38891" lon="3.28975">
        <ele>889</ele>
        <time>2020-03-10T21:03:32Z</time>
      </trkpt>
      <trkpt lat="44.38913" lon="3.28992">
        <ele>885</ele>
        <time>2020-03-10T21:03:36Z</time>
      </trkpt>
      <trkpt lat="44.38928" lon="3.29011">
        <ele>881</ele>
        <time>2020-03-10T21:03:40Z</time>
      </trkpt>
      <trkpt lat="44.38948" lon="3.29045">
        <ele>877</ele>
        <time>2020-03-10T21:03:46Z</time>
      </trkpt>
      <trkpt lat="44.38971" lon="3.29102">
        <ele>869</ele>
        <time>2020-03-10T21:03:54Z</time>
      </trkpt>
      <trkpt lat="44.38988" lon="3.29131">
        <ele>866</ele>
        <time>2020-03-10T21:03:59Z</time>
      </trkpt>
      <trkpt lat="44.39011" lon="3.2915">
        <ele>864</ele>
        <time>2020-03-10T21:04:03Z</time>
      </trkpt>
      <trkpt lat="44.39024" lon="3.29154">
        <ele>862</ele>
        <time>2020-03-10T21:04:06Z</time>
      </trkpt>
      <trkpt lat="44.39042" lon="3.29154">
        <ele>861</ele>
        <time>2020-03-10T21:04:09Z</time>
      </trkpt>
      <trkpt lat="44.39057" lon="3.29148">
        <ele>861</ele>
        <time>2020-03-10T21:04:12Z</time>
      </trkpt>
      <trkpt lat="44.3907" lon="3.29139">
        <ele>862</ele>
        <time>2020-03-10T21:04:14Z</time>
      </trkpt>
      <trkpt lat="44.39085" lon="3.29118">
        <ele>862</ele>
        <time>2020-03-10T21:04:18Z</time>
      </trkpt>
      <trkpt lat="44.39105" lon="3.29075">
        <ele>864</ele>
        <time>2020-03-10T21:04:25Z</time>
      </trkpt>
      <trkpt lat="44.39122" lon="3.2905">
        <ele>862</ele>
        <time>2020-03-10T21:04:29Z</time>
      </trkpt>
      <trkpt lat="44.39145" lon="3.29037">
        <ele>859</ele>
        <time>2020-03-10T21:04:33Z</time>
      </trkpt>
      <trkpt lat="44.39163" lon="3.29038">
        <ele>857</ele>
        <time>2020-03-10T21:04:37Z</time>
      </trkpt>
      <trkpt lat="44.39237" lon="3.29064">
        <ele>855</ele>
        <time>2020-03-10T21:04:50Z</time>
      </trkpt>
      <trkpt lat="44.39281" lon="3.29091">
        <ele>854</ele>
        <time>2020-03-10T21:04:59Z</time>
      </trkpt>
      <trkpt lat="44.39343" lon="3.29135">
        <ele>849</ele>
        <time>2020-03-10T21:05:11Z</time>
      </trkpt>
      <trkpt lat="44.39382" lon="3.29155">
        <ele>847</ele>
        <time>2020-03-10T21:05:18Z</time>
      </trkpt>
      <trkpt lat="44.39424" lon="3.29162">
        <ele>844</ele>
        <time>2020-03-10T21:05:26Z</time>
      </trkpt>
      <trkpt lat="44.39489" lon="3.29163">
        <ele>836</ele>
        <time>2020-03-10T21:05:38Z</time>
      </trkpt>
      <trkpt lat="44.39517" lon="3.29173">
        <ele>834</ele>
        <time>2020-03-10T21:05:43Z</time>
      </trkpt>
      <trkpt lat="44.39552" lon="3.29192">
        <ele>832</ele>
        <time>2020-03-10T21:05:49Z</time>
      </trkpt>
      <trkpt lat="44.3958" lon="3.29221">
        <ele>829</ele>
        <time>2020-03-10T21:05:56Z</time>
      </trkpt>
      <trkpt lat="44.39608" lon="3.29257">
        <ele>826</ele>
        <time>2020-03-10T21:06:02Z</time>
      </trkpt>
      <trkpt lat="44.39633" lon="3.29282">
        <ele>825</ele>
        <time>2020-03-10T21:06:08Z</time>
      </trkpt>
      <trkpt lat="44.39653" lon="3.29293">
        <ele>825</ele>
        <time>2020-03-10T21:06:12Z</time>
      </trkpt>
      <trkpt lat="44.39691" lon="3.29306">
        <ele>824</ele>
        <time>2020-03-10T21:06:19Z</time>
      </trkpt>
      <trkpt lat="44.39719" lon="3.2931">
        <ele>822</ele>
        <time>2020-03-10T21:06:24Z</time>
      </trkpt>
      <trkpt lat="44.39757" lon="3.29313">
        <ele>820</ele>
        <time>2020-03-10T21:06:30Z</time>
      </trkpt>
      <trkpt lat="44.39818" lon="3.29304">
        <ele>814</ele>
        <time>2020-03-10T21:06:41Z</time>
      </trkpt>
      <trkpt lat="44.39877" lon="3.29306">
        <ele>809</ele>
        <time>2020-03-10T21:06:52Z</time>
      </trkpt>
      <trkpt lat="44.39905" lon="3.29309">
        <ele>807</ele>
        <time>2020-03-10T21:06:57Z</time>
      </trkpt>
      <trkpt lat="44.39973" lon="3.29331">
        <ele>804</ele>
        <time>2020-03-10T21:07:09Z</time>
      </trkpt>
      <trkpt lat="44.39989" lon="3.29332">
        <ele>803</ele>
        <time>2020-03-10T21:07:12Z</time>
      </trkpt>
      <trkpt lat="44.40013" lon="3.29327">
        <ele>803</ele>
        <time>2020-03-10T21:07:16Z</time>
      </trkpt>
      <trkpt lat="44.40046" lon="3.29315">
        <ele>802</ele>
        <time>2020-03-10T21:07:22Z</time>
      </trkpt>
      <trkpt lat="44.4008" lon="3.29296">
        <ele>799</ele>
        <time>2020-03-10T21:07:29Z</time>
      </trkpt>
      <trkpt lat="44.40109" lon="3.29265">
        <ele>803</ele>
        <time>2020-03-10T21:07:35Z</time>
      </trkpt>
      <trkpt lat="44.40122" lon="3.29246">
        <ele>803</ele>
        <time>2020-03-10T21:07:39Z</time>
      </trkpt>
    </trkseg>
  </trk>
</gpx>